<?xml version="1.0" encoding="UTF-8" standalone="no" ?>
<gpx xmlns="http://www.topografix.com/GPX/1/1" xmlns:xsi="http://www.w3.org/2001/XMLSchema-instance" xsi:schemaLocation="http://www.topografix.com/GPX/1/1 http://www.topografix.com/GPX/1/1/gpx.xsd" version="1.1" creator="VisuGPX - https://www.visugpx.com">
  <metadata>
    <name>Chuzelles - boucle vtt -</name>
    <desc><![CDATA[Chuzelles - boucle vtt -]]></desc>
  </metadata>
  <trk>
    <name><![CDATA[Imported]]></name>
    <trkseg>
      <trkpt lat="45.58455" lon="4.87744">
        <ele>239.51300048828</ele>
        <time>2012-06-09T06:50:04Z</time>
      </trkpt>
      <trkpt lat="45.58457" lon="4.87782">
        <ele>239.77099609375</ele>
        <time>2012-06-09T06:50:16Z</time>
      </trkpt>
      <trkpt lat="45.58464" lon="4.87805">
        <ele>240.06199645996</ele>
        <time>2012-06-09T06:50:24Z</time>
      </trkpt>
      <trkpt lat="45.58478" lon="4.87806">
        <ele>241.02400207519</ele>
        <time>2012-06-09T06:50:30Z</time>
      </trkpt>
      <trkpt lat="45.58501" lon="4.87826">
        <ele>242.92199707031</ele>
        <time>2012-06-09T06:50:43Z</time>
      </trkpt>
      <trkpt lat="45.58517" lon="4.87836">
        <ele>242.83299255371</ele>
        <time>2012-06-09T06:50:55Z</time>
      </trkpt>
      <trkpt lat="45.58531" lon="4.87827">
        <ele>244.04800415039</ele>
        <time>2012-06-09T06:51:02Z</time>
      </trkpt>
      <trkpt lat="45.58554" lon="4.87829">
        <ele>246.36399841309</ele>
        <time>2012-06-09T06:51:13Z</time>
      </trkpt>
      <trkpt lat="45.58559" lon="4.87875">
        <ele>247.24699401856</ele>
        <time>2012-06-09T06:51:25Z</time>
      </trkpt>
      <trkpt lat="45.58571" lon="4.87941">
        <ele>247.45100402832</ele>
        <time>2012-06-09T06:51:40Z</time>
      </trkpt>
      <trkpt lat="45.58589" lon="4.88038">
        <ele>245.70100402832</ele>
        <time>2012-06-09T06:51:58Z</time>
      </trkpt>
      <trkpt lat="45.58583" lon="4.88108">
        <ele>243.58399963379</ele>
        <time>2012-06-09T06:52:07Z</time>
      </trkpt>
      <trkpt lat="45.58537" lon="4.88182">
        <ele>240.51400756836</ele>
        <time>2012-06-09T06:52:16Z</time>
      </trkpt>
      <trkpt lat="45.58456" lon="4.88328">
        <ele>234.69599914551</ele>
        <time>2012-06-09T06:52:30Z</time>
      </trkpt>
      <trkpt lat="45.58399" lon="4.88467">
        <ele>229.19799804688</ele>
        <time>2012-06-09T06:52:42Z</time>
      </trkpt>
      <trkpt lat="45.5834" lon="4.88571">
        <ele>227.59199523926</ele>
        <time>2012-06-09T06:52:55Z</time>
      </trkpt>
      <trkpt lat="45.58318" lon="4.88616">
        <ele>226.05200195312</ele>
        <time>2012-06-09T06:53:03Z</time>
      </trkpt>
      <trkpt lat="45.58282" lon="4.88657">
        <ele>223.22900390625</ele>
        <time>2012-06-09T06:53:13Z</time>
      </trkpt>
      <trkpt lat="45.58233" lon="4.88718">
        <ele>219.76100158691</ele>
        <time>2012-06-09T06:53:23Z</time>
      </trkpt>
      <trkpt lat="45.58176" lon="4.88845">
        <ele>214.61399841309</ele>
        <time>2012-06-09T06:53:37Z</time>
      </trkpt>
      <trkpt lat="45.58111" lon="4.88986">
        <ele>210.37399291992</ele>
        <time>2012-06-09T06:53:52Z</time>
      </trkpt>
      <trkpt lat="45.58044" lon="4.8906">
        <ele>207.86999511719</ele>
        <time>2012-06-09T06:54:03Z</time>
      </trkpt>
      <trkpt lat="45.57963" lon="4.8908">
        <ele>206.69700622559</ele>
        <time>2012-06-09T06:54:14Z</time>
      </trkpt>
      <trkpt lat="45.57929" lon="4.89068">
        <ele>206.15100097656</ele>
        <time>2012-06-09T06:54:19Z</time>
      </trkpt>
      <trkpt lat="45.57884" lon="4.89076">
        <ele>205.0950012207</ele>
        <time>2012-06-09T06:54:27Z</time>
      </trkpt>
      <trkpt lat="45.57867" lon="4.89099">
        <ele>204.50900268555</ele>
        <time>2012-06-09T06:54:34Z</time>
      </trkpt>
      <trkpt lat="45.57842" lon="4.89139">
        <ele>206.57299804688</ele>
        <time>2012-06-09T06:54:47Z</time>
      </trkpt>
      <trkpt lat="45.57826" lon="4.8914">
        <ele>207.25</ele>
        <time>2012-06-09T06:54:55Z</time>
      </trkpt>
      <trkpt lat="45.57784" lon="4.8908">
        <ele>206.89900207519</ele>
        <time>2012-06-09T06:55:13Z</time>
      </trkpt>
      <trkpt lat="45.57732" lon="4.89035">
        <ele>205.48100280762</ele>
        <time>2012-06-09T06:55:26Z</time>
      </trkpt>
      <trkpt lat="45.57692" lon="4.88995">
        <ele>204.58299255371</ele>
        <time>2012-06-09T06:55:37Z</time>
      </trkpt>
      <trkpt lat="45.57661" lon="4.8896">
        <ele>204.06599426269</ele>
        <time>2012-06-09T06:55:47Z</time>
      </trkpt>
      <trkpt lat="45.57648" lon="4.88947">
        <ele>204.12600708008</ele>
        <time>2012-06-09T06:55:50Z</time>
      </trkpt>
      <trkpt lat="45.57604" lon="4.88899">
        <ele>204.19000244141</ele>
        <time>2012-06-09T06:56:02Z</time>
      </trkpt>
      <trkpt lat="45.57571" lon="4.88844">
        <ele>204.23399353027</ele>
        <time>2012-06-09T06:56:14Z</time>
      </trkpt>
      <trkpt lat="45.57555" lon="4.88808">
        <ele>203.2859954834</ele>
        <time>2012-06-09T06:56:22Z</time>
      </trkpt>
      <trkpt lat="45.57531" lon="4.88764">
        <ele>203.64799499512</ele>
        <time>2012-06-09T06:56:31Z</time>
      </trkpt>
      <trkpt lat="45.57505" lon="4.88704">
        <ele>203.49000549316</ele>
        <time>2012-06-09T06:56:42Z</time>
      </trkpt>
      <trkpt lat="45.57489" lon="4.88657">
        <ele>203.22399902344</ele>
        <time>2012-06-09T06:56:51Z</time>
      </trkpt>
      <trkpt lat="45.57462" lon="4.88607">
        <ele>204</ele>
        <time>2012-06-09T06:57:02Z</time>
      </trkpt>
      <trkpt lat="45.57427" lon="4.88587">
        <ele>206.20399475098</ele>
        <time>2012-06-09T06:57:14Z</time>
      </trkpt>
      <trkpt lat="45.57405" lon="4.88572">
        <ele>205.94099426269</ele>
        <time>2012-06-09T06:57:23Z</time>
      </trkpt>
      <trkpt lat="45.57413" lon="4.88551">
        <ele>205.11099243164</ele>
        <time>2012-06-09T06:57:30Z</time>
      </trkpt>
      <trkpt lat="45.57438" lon="4.88492">
        <ele>203.82699584961</ele>
        <time>2012-06-09T06:57:42Z</time>
      </trkpt>
      <trkpt lat="45.57437" lon="4.88442">
        <ele>203.26300048828</ele>
        <time>2012-06-09T06:57:50Z</time>
      </trkpt>
      <trkpt lat="45.57406" lon="4.88417">
        <ele>202.81599426269</ele>
        <time>2012-06-09T06:57:58Z</time>
      </trkpt>
      <trkpt lat="45.57368" lon="4.88425">
        <ele>203.82600402832</ele>
        <time>2012-06-09T06:58:07Z</time>
      </trkpt>
      <trkpt lat="45.57324" lon="4.88432">
        <ele>204.60099792481</ele>
        <time>2012-06-09T06:58:17Z</time>
      </trkpt>
      <trkpt lat="45.57254" lon="4.88413">
        <ele>204.57800292969</ele>
        <time>2012-06-09T06:58:31Z</time>
      </trkpt>
      <trkpt lat="45.57166" lon="4.88365">
        <ele>205.14300537109</ele>
        <time>2012-06-09T06:58:49Z</time>
      </trkpt>
      <trkpt lat="45.57078" lon="4.88321">
        <ele>205.31799316406</ele>
        <time>2012-06-09T06:59:08Z</time>
      </trkpt>
      <trkpt lat="45.56989" lon="4.88288">
        <ele>203.55400085449</ele>
        <time>2012-06-09T06:59:25Z</time>
      </trkpt>
      <trkpt lat="45.56953" lon="4.8827">
        <ele>202.80700683594</ele>
        <time>2012-06-09T06:59:32Z</time>
      </trkpt>
      <trkpt lat="45.56934" lon="4.88233">
        <ele>202.50500488281</ele>
        <time>2012-06-09T06:59:41Z</time>
      </trkpt>
      <trkpt lat="45.56886" lon="4.88244">
        <ele>203.24000549316</ele>
        <time>2012-06-09T06:59:53Z</time>
      </trkpt>
      <trkpt lat="45.56808" lon="4.88276">
        <ele>205.47500610352</ele>
        <time>2012-06-09T07:00:13Z</time>
      </trkpt>
      <trkpt lat="45.56749" lon="4.88309">
        <ele>209.57699584961</ele>
        <time>2012-06-09T07:00:33Z</time>
      </trkpt>
      <trkpt lat="45.56704" lon="4.88333">
        <ele>212.77699279785</ele>
        <time>2012-06-09T07:00:50Z</time>
      </trkpt>
      <trkpt lat="45.56667" lon="4.88337">
        <ele>215.41700744629</ele>
        <time>2012-06-09T07:01:05Z</time>
      </trkpt>
      <trkpt lat="45.56652" lon="4.883">
        <ele>217.91200256348</ele>
        <time>2012-06-09T07:01:17Z</time>
      </trkpt>
      <trkpt lat="45.56641" lon="4.88255">
        <ele>221.9049987793</ele>
        <time>2012-06-09T07:01:32Z</time>
      </trkpt>
      <trkpt lat="45.5661" lon="4.88249">
        <ele>226.31700134277</ele>
        <time>2012-06-09T07:01:47Z</time>
      </trkpt>
      <trkpt lat="45.56581" lon="4.88258">
        <ele>229.93200683594</ele>
        <time>2012-06-09T07:02:02Z</time>
      </trkpt>
      <trkpt lat="45.56554" lon="4.88266">
        <ele>233.44799804688</ele>
        <time>2012-06-09T07:02:17Z</time>
      </trkpt>
      <trkpt lat="45.56524" lon="4.88256">
        <ele>236.89799499512</ele>
        <time>2012-06-09T07:02:33Z</time>
      </trkpt>
      <trkpt lat="45.56481" lon="4.88267">
        <ele>238.61999511719</ele>
        <time>2012-06-09T07:02:52Z</time>
      </trkpt>
      <trkpt lat="45.56443" lon="4.8828">
        <ele>240.54600524902</ele>
        <time>2012-06-09T07:03:08Z</time>
      </trkpt>
      <trkpt lat="45.56398" lon="4.88296">
        <ele>244.07400512695</ele>
        <time>2012-06-09T07:03:27Z</time>
      </trkpt>
      <trkpt lat="45.56355" lon="4.88311">
        <ele>246.93499755859</ele>
        <time>2012-06-09T07:03:46Z</time>
      </trkpt>
      <trkpt lat="45.56324" lon="4.88322">
        <ele>249.67599487305</ele>
        <time>2012-06-09T07:04:00Z</time>
      </trkpt>
      <trkpt lat="45.56315" lon="4.88343">
        <ele>251.52499389648</ele>
        <time>2012-06-09T07:04:11Z</time>
      </trkpt>
      <trkpt lat="45.56307" lon="4.8841">
        <ele>251.44500732422</ele>
        <time>2012-06-09T07:04:26Z</time>
      </trkpt>
      <trkpt lat="45.563" lon="4.88469">
        <ele>250.30900573731</ele>
        <time>2012-06-09T07:04:40Z</time>
      </trkpt>
      <trkpt lat="45.56294" lon="4.8854">
        <ele>250.20899963379</ele>
        <time>2012-06-09T07:04:56Z</time>
      </trkpt>
      <trkpt lat="45.56304" lon="4.88576">
        <ele>250.68800354004</ele>
        <time>2012-06-09T07:05:06Z</time>
      </trkpt>
      <trkpt lat="45.56326" lon="4.88602">
        <ele>250.81199645996</ele>
        <time>2012-06-09T07:05:14Z</time>
      </trkpt>
      <trkpt lat="45.56371" lon="4.887">
        <ele>246.20100402832</ele>
        <time>2012-06-09T07:05:29Z</time>
      </trkpt>
      <trkpt lat="45.56401" lon="4.8877">
        <ele>241.73399353027</ele>
        <time>2012-06-09T07:05:40Z</time>
      </trkpt>
      <trkpt lat="45.56395" lon="4.88766">
        <ele>240.25500488281</ele>
        <time>2012-06-09T07:05:55Z</time>
      </trkpt>
      <trkpt lat="45.56385" lon="4.88776">
        <ele>240.53799438477</ele>
        <time>2012-06-09T07:06:15Z</time>
      </trkpt>
      <trkpt lat="45.56354" lon="4.88796">
        <ele>241.06500244141</ele>
        <time>2012-06-09T07:06:30Z</time>
      </trkpt>
      <trkpt lat="45.56328" lon="4.88808">
        <ele>241.94599914551</ele>
        <time>2012-06-09T07:06:45Z</time>
      </trkpt>
      <trkpt lat="45.56303" lon="4.8881">
        <ele>242.56599426269</ele>
        <time>2012-06-09T07:06:58Z</time>
      </trkpt>
      <trkpt lat="45.56276" lon="4.88818">
        <ele>242.44799804688</ele>
        <time>2012-06-09T07:07:11Z</time>
      </trkpt>
      <trkpt lat="45.56255" lon="4.8882">
        <ele>242.98899841309</ele>
        <time>2012-06-09T07:07:24Z</time>
      </trkpt>
      <trkpt lat="45.56244" lon="4.88821">
        <ele>243.49800109863</ele>
        <time>2012-06-09T07:07:31Z</time>
      </trkpt>
      <trkpt lat="45.56234" lon="4.88825">
        <ele>243.74200439453</ele>
        <time>2012-06-09T07:07:36Z</time>
      </trkpt>
      <trkpt lat="45.56216" lon="4.88829">
        <ele>244.34700012207</ele>
        <time>2012-06-09T07:07:45Z</time>
      </trkpt>
      <trkpt lat="45.56197" lon="4.88841">
        <ele>244.82099914551</ele>
        <time>2012-06-09T07:07:58Z</time>
      </trkpt>
      <trkpt lat="45.56185" lon="4.88843">
        <ele>245.47999572754</ele>
        <time>2012-06-09T07:08:07Z</time>
      </trkpt>
      <trkpt lat="45.56168" lon="4.88846">
        <ele>245.41900634766</ele>
        <time>2012-06-09T07:08:16Z</time>
      </trkpt>
      <trkpt lat="45.5615" lon="4.88853">
        <ele>246.04800415039</ele>
        <time>2012-06-09T07:08:43Z</time>
      </trkpt>
      <trkpt lat="45.56132" lon="4.88873">
        <ele>247.15600585938</ele>
        <time>2012-06-09T07:08:54Z</time>
      </trkpt>
      <trkpt lat="45.56113" lon="4.889">
        <ele>248.38600158691</ele>
        <time>2012-06-09T07:09:04Z</time>
      </trkpt>
      <trkpt lat="45.56104" lon="4.88929">
        <ele>249.38600158691</ele>
        <time>2012-06-09T07:09:15Z</time>
      </trkpt>
      <trkpt lat="45.56099" lon="4.88944">
        <ele>250.31599426269</ele>
        <time>2012-06-09T07:09:23Z</time>
      </trkpt>
      <trkpt lat="45.56086" lon="4.88959">
        <ele>251.3690032959</ele>
        <time>2012-06-09T07:09:31Z</time>
      </trkpt>
      <trkpt lat="45.56066" lon="4.88976">
        <ele>252.67599487305</ele>
        <time>2012-06-09T07:09:42Z</time>
      </trkpt>
      <trkpt lat="45.56049" lon="4.88996">
        <ele>254.74699401856</ele>
        <time>2012-06-09T07:09:54Z</time>
      </trkpt>
      <trkpt lat="45.56039" lon="4.89029">
        <ele>256.61700439453</ele>
        <time>2012-06-09T07:10:08Z</time>
      </trkpt>
      <trkpt lat="45.56031" lon="4.89071">
        <ele>260.13400268555</ele>
        <time>2012-06-09T07:10:22Z</time>
      </trkpt>
      <trkpt lat="45.56019" lon="4.89097">
        <ele>262.0419921875</ele>
        <time>2012-06-09T07:10:33Z</time>
      </trkpt>
      <trkpt lat="45.56022" lon="4.89122">
        <ele>267.48699951172</ele>
        <time>2012-06-09T07:10:59Z</time>
      </trkpt>
      <trkpt lat="45.56028" lon="4.89127">
        <ele>271.04598999023</ele>
        <time>2012-06-09T07:11:13Z</time>
      </trkpt>
      <trkpt lat="45.56031" lon="4.8913">
        <ele>273.25799560547</ele>
        <time>2012-06-09T07:11:21Z</time>
      </trkpt>
      <trkpt lat="45.56039" lon="4.89141">
        <ele>277.39199829102</ele>
        <time>2012-06-09T07:11:36Z</time>
      </trkpt>
      <trkpt lat="45.56044" lon="4.89146">
        <ele>279.96301269531</ele>
        <time>2012-06-09T07:11:48Z</time>
      </trkpt>
      <trkpt lat="45.5605" lon="4.89149">
        <ele>281.67498779297</ele>
        <time>2012-06-09T07:11:56Z</time>
      </trkpt>
      <trkpt lat="45.5605" lon="4.89175">
        <ele>283.56298828125</ele>
        <time>2012-06-09T07:13:36Z</time>
      </trkpt>
      <trkpt lat="45.56044" lon="4.89193">
        <ele>283.43798828125</ele>
        <time>2012-06-09T07:13:48Z</time>
      </trkpt>
      <trkpt lat="45.56031" lon="4.89216">
        <ele>283.4280090332</ele>
        <time>2012-06-09T07:13:58Z</time>
      </trkpt>
      <trkpt lat="45.56017" lon="4.8924">
        <ele>282.73098754883</ele>
        <time>2012-06-09T07:14:06Z</time>
      </trkpt>
      <trkpt lat="45.56007" lon="4.89244">
        <ele>282.46301269531</ele>
        <time>2012-06-09T07:14:12Z</time>
      </trkpt>
      <trkpt lat="45.55997" lon="4.89244">
        <ele>282.04998779297</ele>
        <time>2012-06-09T07:14:17Z</time>
      </trkpt>
      <trkpt lat="45.5598" lon="4.89253">
        <ele>281.1130065918</ele>
        <time>2012-06-09T07:14:28Z</time>
      </trkpt>
      <trkpt lat="45.55968" lon="4.89263">
        <ele>282.35400390625</ele>
        <time>2012-06-09T07:14:36Z</time>
      </trkpt>
      <trkpt lat="45.5596" lon="4.89268">
        <ele>282.78900146484</ele>
        <time>2012-06-09T07:14:41Z</time>
      </trkpt>
      <trkpt lat="45.55941" lon="4.89288">
        <ele>284.60800170898</ele>
        <time>2012-06-09T07:14:54Z</time>
      </trkpt>
      <trkpt lat="45.55922" lon="4.89302">
        <ele>285.78900146484</ele>
        <time>2012-06-09T07:15:06Z</time>
      </trkpt>
      <trkpt lat="45.55908" lon="4.8932">
        <ele>287.86898803711</ele>
        <time>2012-06-09T07:15:17Z</time>
      </trkpt>
      <trkpt lat="45.55899" lon="4.89363">
        <ele>289.33099365234</ele>
        <time>2012-06-09T07:15:30Z</time>
      </trkpt>
      <trkpt lat="45.55891" lon="4.89373">
        <ele>289.96200561523</ele>
        <time>2012-06-09T07:15:38Z</time>
      </trkpt>
      <trkpt lat="45.55873" lon="4.89387">
        <ele>290.52099609375</ele>
        <time>2012-06-09T07:15:48Z</time>
      </trkpt>
      <trkpt lat="45.55863" lon="4.89398">
        <ele>292.4049987793</ele>
        <time>2012-06-09T07:15:57Z</time>
      </trkpt>
      <trkpt lat="45.55862" lon="4.89381">
        <ele>292.72601318359</ele>
        <time>2012-06-09T07:16:05Z</time>
      </trkpt>
      <trkpt lat="45.55855" lon="4.89363">
        <ele>292.91198730469</ele>
        <time>2012-06-09T07:16:16Z</time>
      </trkpt>
      <trkpt lat="45.55836" lon="4.89326">
        <ele>293.74398803711</ele>
        <time>2012-06-09T07:16:27Z</time>
      </trkpt>
      <trkpt lat="45.55815" lon="4.89264">
        <ele>295.30801391602</ele>
        <time>2012-06-09T07:16:42Z</time>
      </trkpt>
      <trkpt lat="45.55804" lon="4.8919">
        <ele>295.0710144043</ele>
        <time>2012-06-09T07:16:57Z</time>
      </trkpt>
      <trkpt lat="45.55799" lon="4.89132">
        <ele>293.30099487305</ele>
        <time>2012-06-09T07:17:09Z</time>
      </trkpt>
      <trkpt lat="45.5578" lon="4.89122">
        <ele>293.61401367188</ele>
        <time>2012-06-09T07:17:19Z</time>
      </trkpt>
      <trkpt lat="45.55761" lon="4.89106">
        <ele>295.48901367188</ele>
        <time>2012-06-09T07:17:27Z</time>
      </trkpt>
      <trkpt lat="45.55742" lon="4.8909">
        <ele>294.625</ele>
        <time>2012-06-09T07:17:34Z</time>
      </trkpt>
      <trkpt lat="45.55736" lon="4.89077">
        <ele>293.85000610352</ele>
        <time>2012-06-09T07:17:38Z</time>
      </trkpt>
      <trkpt lat="45.55717" lon="4.89059">
        <ele>292.90600585938</ele>
        <time>2012-06-09T07:17:46Z</time>
      </trkpt>
      <trkpt lat="45.55698" lon="4.8904">
        <ele>292.06100463867</ele>
        <time>2012-06-09T07:17:54Z</time>
      </trkpt>
      <trkpt lat="45.55687" lon="4.89014">
        <ele>291.41198730469</ele>
        <time>2012-06-09T07:18:01Z</time>
      </trkpt>
      <trkpt lat="45.55672" lon="4.88995">
        <ele>289.78900146484</ele>
        <time>2012-06-09T07:18:09Z</time>
      </trkpt>
      <trkpt lat="45.55658" lon="4.88971">
        <ele>289.19198608398</ele>
        <time>2012-06-09T07:18:17Z</time>
      </trkpt>
      <trkpt lat="45.55656" lon="4.8895">
        <ele>288.56900024414</ele>
        <time>2012-06-09T07:18:23Z</time>
      </trkpt>
      <trkpt lat="45.55635" lon="4.88939">
        <ele>288.84298706055</ele>
        <time>2012-06-09T07:18:32Z</time>
      </trkpt>
      <trkpt lat="45.55625" lon="4.88936">
        <ele>289.58499145508</ele>
        <time>2012-06-09T07:18:37Z</time>
      </trkpt>
      <trkpt lat="45.55606" lon="4.88906">
        <ele>290.60998535156</ele>
        <time>2012-06-09T07:18:46Z</time>
      </trkpt>
      <trkpt lat="45.55582" lon="4.88899">
        <ele>289.7200012207</ele>
        <time>2012-06-09T07:18:55Z</time>
      </trkpt>
      <trkpt lat="45.55573" lon="4.88886">
        <ele>290.83401489258</ele>
        <time>2012-06-09T07:20:16Z</time>
      </trkpt>
      <trkpt lat="45.55569" lon="4.88873">
        <ele>290.54699707031</ele>
        <time>2012-06-09T07:20:24Z</time>
      </trkpt>
      <trkpt lat="45.55552" lon="4.88858">
        <ele>291.09201049805</ele>
        <time>2012-06-09T07:20:34Z</time>
      </trkpt>
      <trkpt lat="45.55534" lon="4.88844">
        <ele>290.56399536133</ele>
        <time>2012-06-09T07:20:44Z</time>
      </trkpt>
      <trkpt lat="45.55529" lon="4.88834">
        <ele>290.56698608398</ele>
        <time>2012-06-09T07:20:53Z</time>
      </trkpt>
      <trkpt lat="45.55506" lon="4.88831">
        <ele>292.00799560547</ele>
        <time>2012-06-09T07:21:02Z</time>
      </trkpt>
      <trkpt lat="45.55481" lon="4.88824">
        <ele>293.33700561523</ele>
        <time>2012-06-09T07:21:10Z</time>
      </trkpt>
      <trkpt lat="45.55462" lon="4.88823">
        <ele>294.4460144043</ele>
        <time>2012-06-09T07:21:18Z</time>
      </trkpt>
      <trkpt lat="45.55438" lon="4.88816">
        <ele>295.78500366211</ele>
        <time>2012-06-09T07:21:27Z</time>
      </trkpt>
      <trkpt lat="45.55406" lon="4.88818">
        <ele>296.6549987793</ele>
        <time>2012-06-09T07:21:37Z</time>
      </trkpt>
      <trkpt lat="45.55375" lon="4.88815">
        <ele>296.70401000977</ele>
        <time>2012-06-09T07:21:47Z</time>
      </trkpt>
      <trkpt lat="45.55357" lon="4.88815">
        <ele>296.3630065918</ele>
        <time>2012-06-09T07:21:57Z</time>
      </trkpt>
      <trkpt lat="45.55332" lon="4.88816">
        <ele>296.67199707031</ele>
        <time>2012-06-09T07:22:07Z</time>
      </trkpt>
      <trkpt lat="45.55321" lon="4.88813">
        <ele>296.70300292969</ele>
        <time>2012-06-09T07:22:13Z</time>
      </trkpt>
      <trkpt lat="45.55316" lon="4.88825">
        <ele>296.83499145508</ele>
        <time>2012-06-09T07:22:22Z</time>
      </trkpt>
      <trkpt lat="45.55326" lon="4.88863">
        <ele>295.65100097656</ele>
        <time>2012-06-09T07:22:29Z</time>
      </trkpt>
      <trkpt lat="45.55358" lon="4.88916">
        <ele>293.52398681641</ele>
        <time>2012-06-09T07:22:37Z</time>
      </trkpt>
      <trkpt lat="45.55387" lon="4.88946">
        <ele>292.70001220703</ele>
        <time>2012-06-09T07:22:43Z</time>
      </trkpt>
      <trkpt lat="45.55434" lon="4.89024">
        <ele>289.92199707031</ele>
        <time>2012-06-09T07:22:55Z</time>
      </trkpt>
      <trkpt lat="45.55474" lon="4.89118">
        <ele>287.8039855957</ele>
        <time>2012-06-09T07:23:08Z</time>
      </trkpt>
      <trkpt lat="45.55515" lon="4.89216">
        <ele>286.75500488281</ele>
        <time>2012-06-09T07:23:22Z</time>
      </trkpt>
      <trkpt lat="45.55541" lon="4.89299">
        <ele>289.44400024414</ele>
        <time>2012-06-09T07:23:37Z</time>
      </trkpt>
      <trkpt lat="45.55567" lon="4.89352">
        <ele>289.94900512695</ele>
        <time>2012-06-09T07:23:50Z</time>
      </trkpt>
      <trkpt lat="45.55585" lon="4.89394">
        <ele>292.12701416016</ele>
        <time>2012-06-09T07:24:04Z</time>
      </trkpt>
      <trkpt lat="45.556" lon="4.89429">
        <ele>294.95300292969</ele>
        <time>2012-06-09T07:24:15Z</time>
      </trkpt>
      <trkpt lat="45.5561" lon="4.89484">
        <ele>299.94799804688</ele>
        <time>2012-06-09T07:24:29Z</time>
      </trkpt>
      <trkpt lat="45.55639" lon="4.89542">
        <ele>303.72100830078</ele>
        <time>2012-06-09T07:24:47Z</time>
      </trkpt>
      <trkpt lat="45.55661" lon="4.89574">
        <ele>304.87701416016</ele>
        <time>2012-06-09T07:24:58Z</time>
      </trkpt>
      <trkpt lat="45.55695" lon="4.8962">
        <ele>305.43399047852</ele>
        <time>2012-06-09T07:25:12Z</time>
      </trkpt>
      <trkpt lat="45.55721" lon="4.89656">
        <ele>304.52899169922</ele>
        <time>2012-06-09T07:25:21Z</time>
      </trkpt>
      <trkpt lat="45.55759" lon="4.89704">
        <ele>304.16000366211</ele>
        <time>2012-06-09T07:25:36Z</time>
      </trkpt>
      <trkpt lat="45.558" lon="4.89744">
        <ele>302.66198730469</ele>
        <time>2012-06-09T07:25:49Z</time>
      </trkpt>
      <trkpt lat="45.55839" lon="4.89792">
        <ele>300.32901000977</ele>
        <time>2012-06-09T07:26:00Z</time>
      </trkpt>
      <trkpt lat="45.5585" lon="4.89848">
        <ele>300.31900024414</ele>
        <time>2012-06-09T07:26:09Z</time>
      </trkpt>
      <trkpt lat="45.55851" lon="4.89943">
        <ele>302.20199584961</ele>
        <time>2012-06-09T07:26:26Z</time>
      </trkpt>
      <trkpt lat="45.55839" lon="4.90039">
        <ele>302.48498535156</ele>
        <time>2012-06-09T07:26:43Z</time>
      </trkpt>
      <trkpt lat="45.55819" lon="4.9012">
        <ele>303.06600952148</ele>
        <time>2012-06-09T07:26:57Z</time>
      </trkpt>
      <trkpt lat="45.55777" lon="4.90225">
        <ele>303.09899902344</ele>
        <time>2012-06-09T07:27:16Z</time>
      </trkpt>
      <trkpt lat="45.55751" lon="4.90306">
        <ele>303.66000366211</ele>
        <time>2012-06-09T07:27:31Z</time>
      </trkpt>
      <trkpt lat="45.55729" lon="4.9038">
        <ele>303.9289855957</ele>
        <time>2012-06-09T07:27:46Z</time>
      </trkpt>
      <trkpt lat="45.55718" lon="4.90378">
        <ele>304.3030090332</ele>
        <time>2012-06-09T07:27:55Z</time>
      </trkpt>
      <trkpt lat="45.55698" lon="4.90361">
        <ele>304.22799682617</ele>
        <time>2012-06-09T07:28:02Z</time>
      </trkpt>
      <trkpt lat="45.55659" lon="4.90327">
        <ele>303.85000610352</ele>
        <time>2012-06-09T07:28:17Z</time>
      </trkpt>
      <trkpt lat="45.55636" lon="4.90327">
        <ele>302.89898681641</ele>
        <time>2012-06-09T07:28:26Z</time>
      </trkpt>
      <trkpt lat="45.55638" lon="4.90372">
        <ele>303.45199584961</ele>
        <time>2012-06-09T07:28:37Z</time>
      </trkpt>
      <trkpt lat="45.55644" lon="4.90423">
        <ele>305.09799194336</ele>
        <time>2012-06-09T07:28:54Z</time>
      </trkpt>
      <trkpt lat="45.55651" lon="4.90472">
        <ele>306.17498779297</ele>
        <time>2012-06-09T07:29:10Z</time>
      </trkpt>
      <trkpt lat="45.55661" lon="4.90518">
        <ele>306.23699951172</ele>
        <time>2012-06-09T07:29:24Z</time>
      </trkpt>
      <trkpt lat="45.55658" lon="4.90548">
        <ele>306.18499755859</ele>
        <time>2012-06-09T07:29:33Z</time>
      </trkpt>
      <trkpt lat="45.5563" lon="4.90565">
        <ele>306.39599609375</ele>
        <time>2012-06-09T07:29:42Z</time>
      </trkpt>
      <trkpt lat="45.55585" lon="4.90595">
        <ele>304.44900512695</ele>
        <time>2012-06-09T07:29:53Z</time>
      </trkpt>
      <trkpt lat="45.5556" lon="4.90611">
        <ele>301.65100097656</ele>
        <time>2012-06-09T07:30:02Z</time>
      </trkpt>
      <trkpt lat="45.55532" lon="4.9062">
        <ele>300.27398681641</ele>
        <time>2012-06-09T07:30:08Z</time>
      </trkpt>
      <trkpt lat="45.55465" lon="4.90607">
        <ele>299.73498535156</ele>
        <time>2012-06-09T07:30:21Z</time>
      </trkpt>
      <trkpt lat="45.55415" lon="4.90599">
        <ele>296.37899780273</ele>
        <time>2012-06-09T07:30:30Z</time>
      </trkpt>
      <trkpt lat="45.55424" lon="4.90628">
        <ele>291.5530090332</ele>
        <time>2012-06-09T07:30:40Z</time>
      </trkpt>
      <trkpt lat="45.5546" lon="4.90666">
        <ele>282.38299560547</ele>
        <time>2012-06-09T07:30:50Z</time>
      </trkpt>
      <trkpt lat="45.55492" lon="4.90698">
        <ele>277.83898925781</ele>
        <time>2012-06-09T07:30:59Z</time>
      </trkpt>
      <trkpt lat="45.55518" lon="4.90736">
        <ele>268.07000732422</ele>
        <time>2012-06-09T07:31:07Z</time>
      </trkpt>
      <trkpt lat="45.55495" lon="4.90743">
        <ele>261.59799194336</ele>
        <time>2012-06-09T07:31:15Z</time>
      </trkpt>
      <trkpt lat="45.55459" lon="4.90734">
        <ele>257.56100463867</ele>
        <time>2012-06-09T07:31:25Z</time>
      </trkpt>
      <trkpt lat="45.55434" lon="4.90722">
        <ele>254.68299865723</ele>
        <time>2012-06-09T07:31:36Z</time>
      </trkpt>
      <trkpt lat="45.55402" lon="4.90714">
        <ele>253.68400573731</ele>
        <time>2012-06-09T07:31:46Z</time>
      </trkpt>
      <trkpt lat="45.55361" lon="4.90716">
        <ele>252.60299682617</ele>
        <time>2012-06-09T07:31:56Z</time>
      </trkpt>
      <trkpt lat="45.55309" lon="4.90718">
        <ele>249.14500427246</ele>
        <time>2012-06-09T07:32:07Z</time>
      </trkpt>
      <trkpt lat="45.55309" lon="4.90724">
        <ele>246.34700012207</ele>
        <time>2012-06-09T07:32:35Z</time>
      </trkpt>
      <trkpt lat="45.55294" lon="4.9072">
        <ele>246.3869934082</ele>
        <time>2012-06-09T07:33:28Z</time>
      </trkpt>
      <trkpt lat="45.55279" lon="4.90719">
        <ele>245.48199462891</ele>
        <time>2012-06-09T07:34:47Z</time>
      </trkpt>
      <trkpt lat="45.55275" lon="4.90717">
        <ele>242.7440032959</ele>
        <time>2012-06-09T07:35:01Z</time>
      </trkpt>
      <trkpt lat="45.5528" lon="4.90714">
        <ele>251.11799621582</ele>
        <time>2012-06-09T07:42:15Z</time>
      </trkpt>
      <trkpt lat="45.55271" lon="4.90726">
        <ele>250.75799560547</ele>
        <time>2012-06-09T07:42:22Z</time>
      </trkpt>
      <trkpt lat="45.55256" lon="4.90739">
        <ele>250.29499816894</ele>
        <time>2012-06-09T07:42:33Z</time>
      </trkpt>
      <trkpt lat="45.55239" lon="4.90762">
        <ele>249.70700073242</ele>
        <time>2012-06-09T07:42:43Z</time>
      </trkpt>
      <trkpt lat="45.55209" lon="4.90769">
        <ele>249.28100585938</ele>
        <time>2012-06-09T07:42:53Z</time>
      </trkpt>
      <trkpt lat="45.55196" lon="4.90774">
        <ele>248.66200256348</ele>
        <time>2012-06-09T07:43:00Z</time>
      </trkpt>
      <trkpt lat="45.55183" lon="4.90795">
        <ele>247.77900695801</ele>
        <time>2012-06-09T07:43:12Z</time>
      </trkpt>
      <trkpt lat="45.55177" lon="4.90814">
        <ele>247.54299926758</ele>
        <time>2012-06-09T07:43:19Z</time>
      </trkpt>
      <trkpt lat="45.55169" lon="4.9082">
        <ele>247.0890045166</ele>
        <time>2012-06-09T07:43:24Z</time>
      </trkpt>
      <trkpt lat="45.55158" lon="4.90852">
        <ele>245.96200561523</ele>
        <time>2012-06-09T07:43:33Z</time>
      </trkpt>
      <trkpt lat="45.55145" lon="4.90862">
        <ele>245.58500671387</ele>
        <time>2012-06-09T07:43:41Z</time>
      </trkpt>
      <trkpt lat="45.55141" lon="4.90878">
        <ele>245.20199584961</ele>
        <time>2012-06-09T07:43:46Z</time>
      </trkpt>
      <trkpt lat="45.55143" lon="4.9091">
        <ele>244.18800354004</ele>
        <time>2012-06-09T07:43:57Z</time>
      </trkpt>
      <trkpt lat="45.55143" lon="4.90961">
        <ele>242.77200317383</ele>
        <time>2012-06-09T07:44:15Z</time>
      </trkpt>
      <trkpt lat="45.55144" lon="4.9099">
        <ele>241.91000366211</ele>
        <time>2012-06-09T07:44:24Z</time>
      </trkpt>
      <trkpt lat="45.55149" lon="4.91018">
        <ele>241.12699890137</ele>
        <time>2012-06-09T07:44:36Z</time>
      </trkpt>
      <trkpt lat="45.55154" lon="4.91017">
        <ele>241.13299560547</ele>
        <time>2012-06-09T07:45:26Z</time>
      </trkpt>
      <trkpt lat="45.55158" lon="4.91049">
        <ele>241.39900207519</ele>
        <time>2012-06-09T07:45:39Z</time>
      </trkpt>
      <trkpt lat="45.5517" lon="4.91074">
        <ele>240.83599853516</ele>
        <time>2012-06-09T07:45:47Z</time>
      </trkpt>
      <trkpt lat="45.55178" lon="4.91112">
        <ele>240.2799987793</ele>
        <time>2012-06-09T07:45:58Z</time>
      </trkpt>
      <trkpt lat="45.55177" lon="4.91143">
        <ele>239.71200561523</ele>
        <time>2012-06-09T07:46:09Z</time>
      </trkpt>
      <trkpt lat="45.55184" lon="4.91167">
        <ele>239.00100708008</ele>
        <time>2012-06-09T07:46:18Z</time>
      </trkpt>
      <trkpt lat="45.55189" lon="4.91185">
        <ele>238.33700561523</ele>
        <time>2012-06-09T07:46:27Z</time>
      </trkpt>
      <trkpt lat="45.55169" lon="4.91203">
        <ele>237.75500488281</ele>
        <time>2012-06-09T07:46:38Z</time>
      </trkpt>
      <trkpt lat="45.55158" lon="4.91233">
        <ele>236.81100463867</ele>
        <time>2012-06-09T07:46:46Z</time>
      </trkpt>
      <trkpt lat="45.55173" lon="4.91276">
        <ele>235.82200622559</ele>
        <time>2012-06-09T07:46:56Z</time>
      </trkpt>
      <trkpt lat="45.5519" lon="4.91297">
        <ele>235.09899902344</ele>
        <time>2012-06-09T07:47:05Z</time>
      </trkpt>
      <trkpt lat="45.55185" lon="4.91336">
        <ele>234.64900207519</ele>
        <time>2012-06-09T07:47:16Z</time>
      </trkpt>
      <trkpt lat="45.55172" lon="4.91371">
        <ele>233.76600646973</ele>
        <time>2012-06-09T07:47:28Z</time>
      </trkpt>
      <trkpt lat="45.55147" lon="4.914">
        <ele>233.1609954834</ele>
        <time>2012-06-09T07:47:39Z</time>
      </trkpt>
      <trkpt lat="45.55125" lon="4.91396">
        <ele>232.67300415039</ele>
        <time>2012-06-09T07:47:48Z</time>
      </trkpt>
      <trkpt lat="45.55108" lon="4.91405">
        <ele>232.19599914551</ele>
        <time>2012-06-09T07:47:54Z</time>
      </trkpt>
      <trkpt lat="45.55085" lon="4.91434">
        <ele>231.46499633789</ele>
        <time>2012-06-09T07:48:04Z</time>
      </trkpt>
      <trkpt lat="45.55061" lon="4.91465">
        <ele>230.96200561523</ele>
        <time>2012-06-09T07:48:15Z</time>
      </trkpt>
      <trkpt lat="45.55059" lon="4.91482">
        <ele>230.77799987793</ele>
        <time>2012-06-09T07:48:20Z</time>
      </trkpt>
      <trkpt lat="45.55068" lon="4.9153">
        <ele>230.30000305176</ele>
        <time>2012-06-09T07:48:32Z</time>
      </trkpt>
      <trkpt lat="45.55067" lon="4.9156">
        <ele>229.96600341797</ele>
        <time>2012-06-09T07:48:39Z</time>
      </trkpt>
      <trkpt lat="45.55043" lon="4.91592">
        <ele>229.30900573731</ele>
        <time>2012-06-09T07:48:49Z</time>
      </trkpt>
      <trkpt lat="45.55003" lon="4.91622">
        <ele>229.25199890137</ele>
        <time>2012-06-09T07:49:00Z</time>
      </trkpt>
      <trkpt lat="45.54969" lon="4.91634">
        <ele>228.68800354004</ele>
        <time>2012-06-09T07:49:10Z</time>
      </trkpt>
      <trkpt lat="45.54933" lon="4.91645">
        <ele>227.98699951172</ele>
        <time>2012-06-09T07:49:22Z</time>
      </trkpt>
      <trkpt lat="45.54895" lon="4.91687">
        <ele>227.3450012207</ele>
        <time>2012-06-09T07:49:36Z</time>
      </trkpt>
      <trkpt lat="45.54865" lon="4.91732">
        <ele>226.46800231934</ele>
        <time>2012-06-09T07:49:49Z</time>
      </trkpt>
      <trkpt lat="45.54839" lon="4.9177">
        <ele>225.87899780273</ele>
        <time>2012-06-09T07:50:00Z</time>
      </trkpt>
      <trkpt lat="45.54805" lon="4.91821">
        <ele>225.28100585938</ele>
        <time>2012-06-09T07:50:14Z</time>
      </trkpt>
      <trkpt lat="45.54798" lon="4.91879">
        <ele>224.86199951172</ele>
        <time>2012-06-09T07:50:26Z</time>
      </trkpt>
      <trkpt lat="45.54799" lon="4.91889">
        <ele>224.42399597168</ele>
        <time>2012-06-09T07:50:32Z</time>
      </trkpt>
      <trkpt lat="45.54805" lon="4.91885">
        <ele>222.95700073242</ele>
        <time>2012-06-09T07:55:00Z</time>
      </trkpt>
      <trkpt lat="45.54833" lon="4.91868">
        <ele>224.67300415039</ele>
        <time>2012-06-09T07:55:14Z</time>
      </trkpt>
      <trkpt lat="45.54863" lon="4.91852">
        <ele>227.99899291992</ele>
        <time>2012-06-09T07:55:32Z</time>
      </trkpt>
      <trkpt lat="45.54881" lon="4.91836">
        <ele>230.46800231934</ele>
        <time>2012-06-09T07:55:45Z</time>
      </trkpt>
      <trkpt lat="45.549" lon="4.91811">
        <ele>234.83000183106</ele>
        <time>2012-06-09T07:56:03Z</time>
      </trkpt>
      <trkpt lat="45.54919" lon="4.91791">
        <ele>239.47500610352</ele>
        <time>2012-06-09T07:56:21Z</time>
      </trkpt>
      <trkpt lat="45.54937" lon="4.91779">
        <ele>244.77900695801</ele>
        <time>2012-06-09T07:56:35Z</time>
      </trkpt>
      <trkpt lat="45.54957" lon="4.91763">
        <ele>250.64999389648</ele>
        <time>2012-06-09T07:56:52Z</time>
      </trkpt>
      <trkpt lat="45.54973" lon="4.91748">
        <ele>256.15301513672</ele>
        <time>2012-06-09T07:57:07Z</time>
      </trkpt>
      <trkpt lat="45.54983" lon="4.91741">
        <ele>258.26300048828</ele>
        <time>2012-06-09T07:57:16Z</time>
      </trkpt>
      <trkpt lat="45.55001" lon="4.9175">
        <ele>263.00100708008</ele>
        <time>2012-06-09T07:57:32Z</time>
      </trkpt>
      <trkpt lat="45.5502" lon="4.91761">
        <ele>267.14801025391</ele>
        <time>2012-06-09T07:57:48Z</time>
      </trkpt>
      <trkpt lat="45.5504" lon="4.91775">
        <ele>272.22601318359</ele>
        <time>2012-06-09T07:58:06Z</time>
      </trkpt>
      <trkpt lat="45.5506" lon="4.91781">
        <ele>276.44000244141</ele>
        <time>2012-06-09T07:58:22Z</time>
      </trkpt>
      <trkpt lat="45.55079" lon="4.91796">
        <ele>280.9469909668</ele>
        <time>2012-06-09T07:58:39Z</time>
      </trkpt>
      <trkpt lat="45.55087" lon="4.91818">
        <ele>285.29501342773</ele>
        <time>2012-06-09T07:58:54Z</time>
      </trkpt>
      <trkpt lat="45.55088" lon="4.91848">
        <ele>288.89801025391</ele>
        <time>2012-06-09T07:59:10Z</time>
      </trkpt>
      <trkpt lat="45.55091" lon="4.91883">
        <ele>291.3630065918</ele>
        <time>2012-06-09T07:59:27Z</time>
      </trkpt>
      <trkpt lat="45.55103" lon="4.9191">
        <ele>293.45999145508</ele>
        <time>2012-06-09T07:59:41Z</time>
      </trkpt>
      <trkpt lat="45.55125" lon="4.91939">
        <ele>296.43399047852</ele>
        <time>2012-06-09T08:00:01Z</time>
      </trkpt>
      <trkpt lat="45.55146" lon="4.91956">
        <ele>299.79800415039</ele>
        <time>2012-06-09T08:00:18Z</time>
      </trkpt>
      <trkpt lat="45.55182" lon="4.91976">
        <ele>305.38198852539</ele>
        <time>2012-06-09T08:00:32Z</time>
      </trkpt>
      <trkpt lat="45.55212" lon="4.91986">
        <ele>310.31100463867</ele>
        <time>2012-06-09T08:00:46Z</time>
      </trkpt>
      <trkpt lat="45.55233" lon="4.92002">
        <ele>314.6969909668</ele>
        <time>2012-06-09T08:01:02Z</time>
      </trkpt>
      <trkpt lat="45.55243" lon="4.92027">
        <ele>318.54000854492</ele>
        <time>2012-06-09T08:01:17Z</time>
      </trkpt>
      <trkpt lat="45.55235" lon="4.92045">
        <ele>319.68099975586</ele>
        <time>2012-06-09T08:01:29Z</time>
      </trkpt>
      <trkpt lat="45.5523" lon="4.92057">
        <ele>320.42700195312</ele>
        <time>2012-06-09T08:01:37Z</time>
      </trkpt>
      <trkpt lat="45.55231" lon="4.92054">
        <ele>320.57699584961</ele>
        <time>2012-06-09T08:01:45Z</time>
      </trkpt>
      <trkpt lat="45.55242" lon="4.92026">
        <ele>320.21798706055</ele>
        <time>2012-06-09T08:01:53Z</time>
      </trkpt>
      <trkpt lat="45.55258" lon="4.92016">
        <ele>319.89999389648</ele>
        <time>2012-06-09T08:01:59Z</time>
      </trkpt>
      <trkpt lat="45.55264" lon="4.92009">
        <ele>319.70999145508</ele>
        <time>2012-06-09T08:02:08Z</time>
      </trkpt>
      <trkpt lat="45.55244" lon="4.92024">
        <ele>319.20498657227</ele>
        <time>2012-06-09T08:02:23Z</time>
      </trkpt>
      <trkpt lat="45.55244" lon="4.92032">
        <ele>319.21200561523</ele>
        <time>2012-06-09T08:02:31Z</time>
      </trkpt>
      <trkpt lat="45.55256" lon="4.9202">
        <ele>319.33099365234</ele>
        <time>2012-06-09T08:02:43Z</time>
      </trkpt>
      <trkpt lat="45.55252" lon="4.92022">
        <ele>319.35598754883</ele>
        <time>2012-06-09T08:02:52Z</time>
      </trkpt>
      <trkpt lat="45.55246" lon="4.92025">
        <ele>319.20498657227</ele>
        <time>2012-06-09T08:03:04Z</time>
      </trkpt>
      <trkpt lat="45.55247" lon="4.92028">
        <ele>319.06399536133</ele>
        <time>2012-06-09T08:03:17Z</time>
      </trkpt>
      <trkpt lat="45.55246" lon="4.92028">
        <ele>318.96899414062</ele>
        <time>2012-06-09T08:07:55Z</time>
      </trkpt>
      <trkpt lat="45.55258" lon="4.92016">
        <ele>319.41101074219</ele>
        <time>2012-06-09T08:08:07Z</time>
      </trkpt>
      <trkpt lat="45.55286" lon="4.92001">
        <ele>319.39199829102</ele>
        <time>2012-06-09T08:08:23Z</time>
      </trkpt>
      <trkpt lat="45.55318" lon="4.91981">
        <ele>320.62600708008</ele>
        <time>2012-06-09T08:08:38Z</time>
      </trkpt>
      <trkpt lat="45.55357" lon="4.91958">
        <ele>322.91400146484</ele>
        <time>2012-06-09T08:08:56Z</time>
      </trkpt>
      <trkpt lat="45.55377" lon="4.91954">
        <ele>323.74700927734</ele>
        <time>2012-06-09T08:09:05Z</time>
      </trkpt>
      <trkpt lat="45.55424" lon="4.91935">
        <ele>325.08099365234</ele>
        <time>2012-06-09T08:09:23Z</time>
      </trkpt>
      <trkpt lat="45.55471" lon="4.9189">
        <ele>325.20599365234</ele>
        <time>2012-06-09T08:09:40Z</time>
      </trkpt>
      <trkpt lat="45.55536" lon="4.91872">
        <ele>323.57699584961</ele>
        <time>2012-06-09T08:09:56Z</time>
      </trkpt>
      <trkpt lat="45.55597" lon="4.91855">
        <ele>321.63900756836</ele>
        <time>2012-06-09T08:10:11Z</time>
      </trkpt>
      <trkpt lat="45.55621" lon="4.91845">
        <ele>320.09799194336</ele>
        <time>2012-06-09T08:10:19Z</time>
      </trkpt>
      <trkpt lat="45.55694" lon="4.91829">
        <ele>318.22100830078</ele>
        <time>2012-06-09T08:10:31Z</time>
      </trkpt>
      <trkpt lat="45.55753" lon="4.9184">
        <ele>319.04800415039</ele>
        <time>2012-06-09T08:10:45Z</time>
      </trkpt>
      <trkpt lat="45.55814" lon="4.91848">
        <ele>322.27600097656</ele>
        <time>2012-06-09T08:11:00Z</time>
      </trkpt>
      <trkpt lat="45.55862" lon="4.91849">
        <ele>323.49301147461</ele>
        <time>2012-06-09T08:11:14Z</time>
      </trkpt>
      <trkpt lat="45.55873" lon="4.91907">
        <ele>322.85501098633</ele>
        <time>2012-06-09T08:11:27Z</time>
      </trkpt>
      <trkpt lat="45.55889" lon="4.91997">
        <ele>322.75100708008</ele>
        <time>2012-06-09T08:11:42Z</time>
      </trkpt>
      <trkpt lat="45.55925" lon="4.92133">
        <ele>321.46398925781</ele>
        <time>2012-06-09T08:12:00Z</time>
      </trkpt>
      <trkpt lat="45.5596" lon="4.92251">
        <ele>322.05999755859</ele>
        <time>2012-06-09T08:12:18Z</time>
      </trkpt>
      <trkpt lat="45.55999" lon="4.92357">
        <ele>323.52499389648</ele>
        <time>2012-06-09T08:12:36Z</time>
      </trkpt>
      <trkpt lat="45.56036" lon="4.92473">
        <ele>323.8330078125</ele>
        <time>2012-06-09T08:12:53Z</time>
      </trkpt>
      <trkpt lat="45.5607" lon="4.92591">
        <ele>323.4289855957</ele>
        <time>2012-06-09T08:13:09Z</time>
      </trkpt>
      <trkpt lat="45.56102" lon="4.92704">
        <ele>324.58599853516</ele>
        <time>2012-06-09T08:13:22Z</time>
      </trkpt>
      <trkpt lat="45.56136" lon="4.92839">
        <ele>325.52600097656</ele>
        <time>2012-06-09T08:13:34Z</time>
      </trkpt>
      <trkpt lat="45.5616" lon="4.92946">
        <ele>324.89401245117</ele>
        <time>2012-06-09T08:13:44Z</time>
      </trkpt>
      <trkpt lat="45.56161" lon="4.92997">
        <ele>324.75698852539</ele>
        <time>2012-06-09T08:13:51Z</time>
      </trkpt>
      <trkpt lat="45.5615" lon="4.93006">
        <ele>324.36099243164</ele>
        <time>2012-06-09T08:13:56Z</time>
      </trkpt>
      <trkpt lat="45.56136" lon="4.93013">
        <ele>323.72299194336</ele>
        <time>2012-06-09T08:14:05Z</time>
      </trkpt>
      <trkpt lat="45.56109" lon="4.93027">
        <ele>323.27899169922</ele>
        <time>2012-06-09T08:14:11Z</time>
      </trkpt>
      <trkpt lat="45.56081" lon="4.93036">
        <ele>322.22100830078</ele>
        <time>2012-06-09T08:14:15Z</time>
      </trkpt>
      <trkpt lat="45.55994" lon="4.93067">
        <ele>318.50500488281</ele>
        <time>2012-06-09T08:14:27Z</time>
      </trkpt>
      <trkpt lat="45.55918" lon="4.93092">
        <ele>318.59799194336</ele>
        <time>2012-06-09T08:14:41Z</time>
      </trkpt>
      <trkpt lat="45.55885" lon="4.93097">
        <ele>314.01998901367</ele>
        <time>2012-06-09T08:14:48Z</time>
      </trkpt>
      <trkpt lat="45.55846" lon="4.93102">
        <ele>310.37899780273</ele>
        <time>2012-06-09T08:14:54Z</time>
      </trkpt>
      <trkpt lat="45.55764" lon="4.931">
        <ele>301.33999633789</ele>
        <time>2012-06-09T08:15:05Z</time>
      </trkpt>
      <trkpt lat="45.5573" lon="4.93071">
        <ele>294.99499511719</ele>
        <time>2012-06-09T08:15:11Z</time>
      </trkpt>
      <trkpt lat="45.55671" lon="4.93033">
        <ele>285.64599609375</ele>
        <time>2012-06-09T08:15:19Z</time>
      </trkpt>
      <trkpt lat="45.55614" lon="4.93017">
        <ele>277.16799926758</ele>
        <time>2012-06-09T08:15:26Z</time>
      </trkpt>
      <trkpt lat="45.55557" lon="4.92987">
        <ele>265.24499511719</ele>
        <time>2012-06-09T08:15:34Z</time>
      </trkpt>
      <trkpt lat="45.55534" lon="4.9301">
        <ele>259.76300048828</ele>
        <time>2012-06-09T08:15:38Z</time>
      </trkpt>
      <trkpt lat="45.555" lon="4.93072">
        <ele>252.87399291992</ele>
        <time>2012-06-09T08:15:45Z</time>
      </trkpt>
      <trkpt lat="45.55476" lon="4.93123">
        <ele>247.96200561523</ele>
        <time>2012-06-09T08:15:50Z</time>
      </trkpt>
      <trkpt lat="45.55463" lon="4.93183">
        <ele>240.48699951172</ele>
        <time>2012-06-09T08:15:57Z</time>
      </trkpt>
      <trkpt lat="45.55466" lon="4.9319">
        <ele>235.96000671387</ele>
        <time>2012-06-09T08:16:04Z</time>
      </trkpt>
      <trkpt lat="45.55468" lon="4.93217">
        <ele>234.63600158691</ele>
        <time>2012-06-09T08:16:09Z</time>
      </trkpt>
      <trkpt lat="45.55468" lon="4.93266">
        <ele>231.57699584961</ele>
        <time>2012-06-09T08:16:15Z</time>
      </trkpt>
      <trkpt lat="45.55456" lon="4.93316">
        <ele>225.39100646973</ele>
        <time>2012-06-09T08:16:24Z</time>
      </trkpt>
      <trkpt lat="45.55433" lon="4.93354">
        <ele>224.17199707031</ele>
        <time>2012-06-09T08:16:34Z</time>
      </trkpt>
      <trkpt lat="45.55418" lon="4.93394">
        <ele>223.94700622559</ele>
        <time>2012-06-09T08:16:44Z</time>
      </trkpt>
      <trkpt lat="45.55397" lon="4.93414">
        <ele>224.02099609375</ele>
        <time>2012-06-09T08:16:55Z</time>
      </trkpt>
      <trkpt lat="45.55367" lon="4.93434">
        <ele>223.20100402832</ele>
        <time>2012-06-09T08:17:06Z</time>
      </trkpt>
      <trkpt lat="45.55317" lon="4.93468">
        <ele>222.86999511719</ele>
        <time>2012-06-09T08:17:19Z</time>
      </trkpt>
      <trkpt lat="45.55278" lon="4.93477">
        <ele>222.31799316406</ele>
        <time>2012-06-09T08:17:29Z</time>
      </trkpt>
      <trkpt lat="45.55224" lon="4.93485">
        <ele>222.00500488281</ele>
        <time>2012-06-09T08:17:40Z</time>
      </trkpt>
      <trkpt lat="45.55185" lon="4.93514">
        <ele>221.61999511719</ele>
        <time>2012-06-09T08:17:48Z</time>
      </trkpt>
      <trkpt lat="45.55148" lon="4.93542">
        <ele>220.75300598144</ele>
        <time>2012-06-09T08:17:57Z</time>
      </trkpt>
      <trkpt lat="45.55147" lon="4.93547">
        <ele>219.99200439453</ele>
        <time>2012-06-09T08:18:04Z</time>
      </trkpt>
      <trkpt lat="45.55163" lon="4.93532">
        <ele>220.40600585938</ele>
        <time>2012-06-09T08:18:13Z</time>
      </trkpt>
      <trkpt lat="45.55177" lon="4.93536">
        <ele>220.34199523926</ele>
        <time>2012-06-09T08:18:23Z</time>
      </trkpt>
      <trkpt lat="45.55167" lon="4.93563">
        <ele>222.50100708008</ele>
        <time>2012-06-09T08:18:34Z</time>
      </trkpt>
      <trkpt lat="45.55164" lon="4.93606">
        <ele>223.43699645996</ele>
        <time>2012-06-09T08:18:48Z</time>
      </trkpt>
      <trkpt lat="45.5517" lon="4.93654">
        <ele>227.06399536133</ele>
        <time>2012-06-09T08:19:07Z</time>
      </trkpt>
      <trkpt lat="45.55188" lon="4.93701">
        <ele>231.90800476074</ele>
        <time>2012-06-09T08:19:25Z</time>
      </trkpt>
      <trkpt lat="45.55209" lon="4.93741">
        <ele>233.54699707031</ele>
        <time>2012-06-09T08:19:42Z</time>
      </trkpt>
      <trkpt lat="45.5523" lon="4.93788">
        <ele>235.95500183106</ele>
        <time>2012-06-09T08:20:01Z</time>
      </trkpt>
      <trkpt lat="45.55255" lon="4.93832">
        <ele>236.54200744629</ele>
        <time>2012-06-09T08:20:16Z</time>
      </trkpt>
      <trkpt lat="45.55262" lon="4.93839">
        <ele>236.8450012207</ele>
        <time>2012-06-09T08:20:23Z</time>
      </trkpt>
      <trkpt lat="45.55279" lon="4.9384">
        <ele>237.07400512695</ele>
        <time>2012-06-09T08:20:38Z</time>
      </trkpt>
      <trkpt lat="45.553" lon="4.93842">
        <ele>238.37600708008</ele>
        <time>2012-06-09T08:20:51Z</time>
      </trkpt>
      <trkpt lat="45.55326" lon="4.93844">
        <ele>243.37800598144</ele>
        <time>2012-06-09T08:21:09Z</time>
      </trkpt>
      <trkpt lat="45.55347" lon="4.93839">
        <ele>245.79100036621</ele>
        <time>2012-06-09T08:21:22Z</time>
      </trkpt>
      <trkpt lat="45.5536" lon="4.93834">
        <ele>248.39900207519</ele>
        <time>2012-06-09T08:21:33Z</time>
      </trkpt>
      <trkpt lat="45.55369" lon="4.93833">
        <ele>250.0059967041</ele>
        <time>2012-06-09T08:21:41Z</time>
      </trkpt>
      <trkpt lat="45.55391" lon="4.93846">
        <ele>254.19099426269</ele>
        <time>2012-06-09T08:21:58Z</time>
      </trkpt>
      <trkpt lat="45.55407" lon="4.93858">
        <ele>258.61898803711</ele>
        <time>2012-06-09T08:22:13Z</time>
      </trkpt>
      <trkpt lat="45.55416" lon="4.93869">
        <ele>261.39898681641</ele>
        <time>2012-06-09T08:22:25Z</time>
      </trkpt>
      <trkpt lat="45.55421" lon="4.93877">
        <ele>263.02099609375</ele>
        <time>2012-06-09T08:22:34Z</time>
      </trkpt>
      <trkpt lat="45.5544" lon="4.93879">
        <ele>267.65399169922</ele>
        <time>2012-06-09T08:22:52Z</time>
      </trkpt>
      <trkpt lat="45.55452" lon="4.93879">
        <ele>270.33999633789</ele>
        <time>2012-06-09T08:23:03Z</time>
      </trkpt>
      <trkpt lat="45.55468" lon="4.9388">
        <ele>275.54400634766</ele>
        <time>2012-06-09T08:23:19Z</time>
      </trkpt>
      <trkpt lat="45.55475" lon="4.93879">
        <ele>276.8630065918</ele>
        <time>2012-06-09T08:23:26Z</time>
      </trkpt>
      <trkpt lat="45.55491" lon="4.93872">
        <ele>280.65200805664</ele>
        <time>2012-06-09T08:23:43Z</time>
      </trkpt>
      <trkpt lat="45.55504" lon="4.93868">
        <ele>282.64898681641</ele>
        <time>2012-06-09T08:23:54Z</time>
      </trkpt>
      <trkpt lat="45.55507" lon="4.93866">
        <ele>284.46600341797</ele>
        <time>2012-06-09T08:24:04Z</time>
      </trkpt>
      <trkpt lat="45.55518" lon="4.93859">
        <ele>287.89498901367</ele>
        <time>2012-06-09T08:24:23Z</time>
      </trkpt>
      <trkpt lat="45.55528" lon="4.93858">
        <ele>289.44100952148</ele>
        <time>2012-06-09T08:24:36Z</time>
      </trkpt>
      <trkpt lat="45.55521" lon="4.93859">
        <ele>289.2080078125</ele>
        <time>2012-06-09T08:24:45Z</time>
      </trkpt>
      <trkpt lat="45.55529" lon="4.93854">
        <ele>289.36499023438</ele>
        <time>2012-06-09T08:24:52Z</time>
      </trkpt>
      <trkpt lat="45.55533" lon="4.93859">
        <ele>289.62100219727</ele>
        <time>2012-06-09T08:24:58Z</time>
      </trkpt>
      <trkpt lat="45.55524" lon="4.93857">
        <ele>289.37899780273</ele>
        <time>2012-06-09T08:25:07Z</time>
      </trkpt>
      <trkpt lat="45.55529" lon="4.93859">
        <ele>289.15399169922</ele>
        <time>2012-06-09T08:25:18Z</time>
      </trkpt>
      <trkpt lat="45.55522" lon="4.93859">
        <ele>289.36599731445</ele>
        <time>2012-06-09T08:25:27Z</time>
      </trkpt>
      <trkpt lat="45.55527" lon="4.93858">
        <ele>288.76699829102</ele>
        <time>2012-06-09T08:26:04Z</time>
      </trkpt>
      <trkpt lat="45.55531" lon="4.93861">
        <ele>288.39999389648</ele>
        <time>2012-06-09T08:29:54Z</time>
      </trkpt>
      <trkpt lat="45.55541" lon="4.93859">
        <ele>289.52801513672</ele>
        <time>2012-06-09T08:30:03Z</time>
      </trkpt>
      <trkpt lat="45.55568" lon="4.93856">
        <ele>291.99200439453</ele>
        <time>2012-06-09T08:30:21Z</time>
      </trkpt>
      <trkpt lat="45.55603" lon="4.93856">
        <ele>294.57400512695</ele>
        <time>2012-06-09T08:30:40Z</time>
      </trkpt>
      <trkpt lat="45.55634" lon="4.9387">
        <ele>295.25900268555</ele>
        <time>2012-06-09T08:30:55Z</time>
      </trkpt>
      <trkpt lat="45.55659" lon="4.93884">
        <ele>296.47799682617</ele>
        <time>2012-06-09T08:31:09Z</time>
      </trkpt>
      <trkpt lat="45.55687" lon="4.93901">
        <ele>298.39599609375</ele>
        <time>2012-06-09T08:31:24Z</time>
      </trkpt>
      <trkpt lat="45.55726" lon="4.9391">
        <ele>299.59298706055</ele>
        <time>2012-06-09T08:31:42Z</time>
      </trkpt>
      <trkpt lat="45.55764" lon="4.93926">
        <ele>299.41900634766</ele>
        <time>2012-06-09T08:31:58Z</time>
      </trkpt>
      <trkpt lat="45.55789" lon="4.93954">
        <ele>300.85198974609</ele>
        <time>2012-06-09T08:32:12Z</time>
      </trkpt>
      <trkpt lat="45.55807" lon="4.93996">
        <ele>300.40301513672</ele>
        <time>2012-06-09T08:32:26Z</time>
      </trkpt>
      <trkpt lat="45.55812" lon="4.94054">
        <ele>299.85501098633</ele>
        <time>2012-06-09T08:32:44Z</time>
      </trkpt>
      <trkpt lat="45.55813" lon="4.94054">
        <ele>300.23199462891</ele>
        <time>2012-06-09T08:33:07Z</time>
      </trkpt>
      <trkpt lat="45.55818" lon="4.94085">
        <ele>300.16598510742</ele>
        <time>2012-06-09T08:33:48Z</time>
      </trkpt>
      <trkpt lat="45.55827" lon="4.94145">
        <ele>299.93798828125</ele>
        <time>2012-06-09T08:34:02Z</time>
      </trkpt>
      <trkpt lat="45.55829" lon="4.94182">
        <ele>300.96200561523</ele>
        <time>2012-06-09T08:34:14Z</time>
      </trkpt>
      <trkpt lat="45.5584" lon="4.94211">
        <ele>303.32400512695</ele>
        <time>2012-06-09T08:34:25Z</time>
      </trkpt>
      <trkpt lat="45.55857" lon="4.94251">
        <ele>304.1549987793</ele>
        <time>2012-06-09T08:34:38Z</time>
      </trkpt>
      <trkpt lat="45.55877" lon="4.94286">
        <ele>305.40399169922</ele>
        <time>2012-06-09T08:34:51Z</time>
      </trkpt>
      <trkpt lat="45.55906" lon="4.94333">
        <ele>305.56500244141</ele>
        <time>2012-06-09T08:35:07Z</time>
      </trkpt>
      <trkpt lat="45.55944" lon="4.94358">
        <ele>305.80499267578</ele>
        <time>2012-06-09T08:35:22Z</time>
      </trkpt>
      <trkpt lat="45.55967" lon="4.94388">
        <ele>306.83801269531</ele>
        <time>2012-06-09T08:35:36Z</time>
      </trkpt>
      <trkpt lat="45.5598" lon="4.94409">
        <ele>309.31799316406</ele>
        <time>2012-06-09T08:35:52Z</time>
      </trkpt>
      <trkpt lat="45.55997" lon="4.94416">
        <ele>312.82299804688</ele>
        <time>2012-06-09T08:36:08Z</time>
      </trkpt>
      <trkpt lat="45.56004" lon="4.9442">
        <ele>315.48300170898</ele>
        <time>2012-06-09T08:36:19Z</time>
      </trkpt>
      <trkpt lat="45.56018" lon="4.94441">
        <ele>318.90100097656</ele>
        <time>2012-06-09T08:36:33Z</time>
      </trkpt>
      <trkpt lat="45.56027" lon="4.94458">
        <ele>322.15701293945</ele>
        <time>2012-06-09T08:36:46Z</time>
      </trkpt>
      <trkpt lat="45.56031" lon="4.94471">
        <ele>323.57998657227</ele>
        <time>2012-06-09T08:36:54Z</time>
      </trkpt>
      <trkpt lat="45.5604" lon="4.94498">
        <ele>326.77200317383</ele>
        <time>2012-06-09T08:37:10Z</time>
      </trkpt>
      <trkpt lat="45.56046" lon="4.94526">
        <ele>328.32901000977</ele>
        <time>2012-06-09T08:37:23Z</time>
      </trkpt>
      <trkpt lat="45.56049" lon="4.94537">
        <ele>328.81298828125</ele>
        <time>2012-06-09T08:37:34Z</time>
      </trkpt>
      <trkpt lat="45.56049" lon="4.94544">
        <ele>328.69299316406</ele>
        <time>2012-06-09T08:38:08Z</time>
      </trkpt>
      <trkpt lat="45.56076" lon="4.94519">
        <ele>328.46099853516</ele>
        <time>2012-06-09T08:38:22Z</time>
      </trkpt>
      <trkpt lat="45.561" lon="4.94506">
        <ele>326.8039855957</ele>
        <time>2012-06-09T08:38:33Z</time>
      </trkpt>
      <trkpt lat="45.56099" lon="4.94528">
        <ele>327.0719909668</ele>
        <time>2012-06-09T08:38:44Z</time>
      </trkpt>
      <trkpt lat="45.56087" lon="4.94564">
        <ele>328.68399047852</ele>
        <time>2012-06-09T08:38:55Z</time>
      </trkpt>
      <trkpt lat="45.5607" lon="4.94627">
        <ele>330.94799804688</ele>
        <time>2012-06-09T08:39:12Z</time>
      </trkpt>
      <trkpt lat="45.56065" lon="4.94695">
        <ele>333.39401245117</ele>
        <time>2012-06-09T08:39:26Z</time>
      </trkpt>
      <trkpt lat="45.56076" lon="4.94758">
        <ele>333.04998779297</ele>
        <time>2012-06-09T08:39:37Z</time>
      </trkpt>
      <trkpt lat="45.56128" lon="4.94884">
        <ele>328.77801513672</ele>
        <time>2012-06-09T08:39:52Z</time>
      </trkpt>
      <trkpt lat="45.56182" lon="4.9496">
        <ele>326.00100708008</ele>
        <time>2012-06-09T08:40:03Z</time>
      </trkpt>
      <trkpt lat="45.56255" lon="4.94996">
        <ele>323.94799804688</ele>
        <time>2012-06-09T08:40:16Z</time>
      </trkpt>
      <trkpt lat="45.56306" lon="4.95017">
        <ele>322.66900634766</ele>
        <time>2012-06-09T08:40:25Z</time>
      </trkpt>
      <trkpt lat="45.56379" lon="4.95086">
        <ele>321.9880065918</ele>
        <time>2012-06-09T08:40:40Z</time>
      </trkpt>
      <trkpt lat="45.56472" lon="4.95185">
        <ele>319.93600463867</ele>
        <time>2012-06-09T08:40:58Z</time>
      </trkpt>
      <trkpt lat="45.56562" lon="4.95248">
        <ele>313.38598632812</ele>
        <time>2012-06-09T08:41:08Z</time>
      </trkpt>
      <trkpt lat="45.56605" lon="4.95309">
        <ele>306.92599487305</ele>
        <time>2012-06-09T08:41:13Z</time>
      </trkpt>
      <trkpt lat="45.56606" lon="4.9542">
        <ele>299.60998535156</ele>
        <time>2012-06-09T08:41:19Z</time>
      </trkpt>
      <trkpt lat="45.56571" lon="4.95606">
        <ele>289.22601318359</ele>
        <time>2012-06-09T08:41:30Z</time>
      </trkpt>
      <trkpt lat="45.56565" lon="4.95675">
        <ele>286.20001220703</ele>
        <time>2012-06-09T08:41:38Z</time>
      </trkpt>
      <trkpt lat="45.5656" lon="4.95718">
        <ele>288.06900024414</ele>
        <time>2012-06-09T08:41:49Z</time>
      </trkpt>
      <trkpt lat="45.56553" lon="4.95772">
        <ele>292.73300170898</ele>
        <time>2012-06-09T08:42:05Z</time>
      </trkpt>
      <trkpt lat="45.56547" lon="4.95823">
        <ele>296.68798828125</ele>
        <time>2012-06-09T08:42:20Z</time>
      </trkpt>
      <trkpt lat="45.56537" lon="4.95883">
        <ele>300.92498779297</ele>
        <time>2012-06-09T08:42:38Z</time>
      </trkpt>
      <trkpt lat="45.56519" lon="4.95928">
        <ele>302.86898803711</ele>
        <time>2012-06-09T08:42:52Z</time>
      </trkpt>
      <trkpt lat="45.56498" lon="4.95973">
        <ele>305.18600463867</ele>
        <time>2012-06-09T08:43:07Z</time>
      </trkpt>
      <trkpt lat="45.56482" lon="4.96033">
        <ele>308.44000244141</ele>
        <time>2012-06-09T08:43:25Z</time>
      </trkpt>
      <trkpt lat="45.56475" lon="4.96091">
        <ele>312.37899780273</ele>
        <time>2012-06-09T08:43:43Z</time>
      </trkpt>
      <trkpt lat="45.56473" lon="4.96119">
        <ele>315.4700012207</ele>
        <time>2012-06-09T08:43:54Z</time>
      </trkpt>
      <trkpt lat="45.5647" lon="4.9616">
        <ele>319.44100952148</ele>
        <time>2012-06-09T08:44:08Z</time>
      </trkpt>
      <trkpt lat="45.56484" lon="4.96214">
        <ele>322.34698486328</ele>
        <time>2012-06-09T08:44:24Z</time>
      </trkpt>
      <trkpt lat="45.56498" lon="4.96252">
        <ele>325.5950012207</ele>
        <time>2012-06-09T08:44:38Z</time>
      </trkpt>
      <trkpt lat="45.56512" lon="4.96303">
        <ele>328.41500854492</ele>
        <time>2012-06-09T08:44:55Z</time>
      </trkpt>
      <trkpt lat="45.56517" lon="4.96349">
        <ele>331.01000976562</ele>
        <time>2012-06-09T08:45:09Z</time>
      </trkpt>
      <trkpt lat="45.56515" lon="4.96413">
        <ele>334.48001098633</ele>
        <time>2012-06-09T08:45:28Z</time>
      </trkpt>
      <trkpt lat="45.56516" lon="4.96461">
        <ele>333.71398925781</ele>
        <time>2012-06-09T08:45:39Z</time>
      </trkpt>
      <trkpt lat="45.56506" lon="4.96471">
        <ele>332.21301269531</ele>
        <time>2012-06-09T08:45:46Z</time>
      </trkpt>
      <trkpt lat="45.56477" lon="4.96488">
        <ele>330.71600341797</ele>
        <time>2012-06-09T08:45:56Z</time>
      </trkpt>
      <trkpt lat="45.56417" lon="4.96533">
        <ele>326.64700317383</ele>
        <time>2012-06-09T08:46:05Z</time>
      </trkpt>
      <trkpt lat="45.56376" lon="4.96561">
        <ele>322.8210144043</ele>
        <time>2012-06-09T08:46:12Z</time>
      </trkpt>
      <trkpt lat="45.56318" lon="4.96559">
        <ele>321.51000976562</ele>
        <time>2012-06-09T08:46:26Z</time>
      </trkpt>
      <trkpt lat="45.56278" lon="4.96575">
        <ele>320.20700073242</ele>
        <time>2012-06-09T08:46:35Z</time>
      </trkpt>
      <trkpt lat="45.56253" lon="4.96592">
        <ele>318.01098632812</ele>
        <time>2012-06-09T08:46:44Z</time>
      </trkpt>
      <trkpt lat="45.56232" lon="4.96602">
        <ele>316.28601074219</ele>
        <time>2012-06-09T08:46:49Z</time>
      </trkpt>
      <trkpt lat="45.56199" lon="4.96597">
        <ele>312.13000488281</ele>
        <time>2012-06-09T08:46:55Z</time>
      </trkpt>
      <trkpt lat="45.56154" lon="4.96578">
        <ele>304.90399169922</ele>
        <time>2012-06-09T08:47:04Z</time>
      </trkpt>
      <trkpt lat="45.56155" lon="4.9653">
        <ele>301.84799194336</ele>
        <time>2012-06-09T08:47:10Z</time>
      </trkpt>
      <trkpt lat="45.56109" lon="4.96466">
        <ele>295.55499267578</ele>
        <time>2012-06-09T08:47:22Z</time>
      </trkpt>
      <trkpt lat="45.56068" lon="4.96425">
        <ele>290.64300537109</ele>
        <time>2012-06-09T08:47:29Z</time>
      </trkpt>
      <trkpt lat="45.5604" lon="4.96408">
        <ele>286.26699829102</ele>
        <time>2012-06-09T08:47:34Z</time>
      </trkpt>
      <trkpt lat="45.56018" lon="4.96387">
        <ele>282.27301025391</ele>
        <time>2012-06-09T08:47:39Z</time>
      </trkpt>
      <trkpt lat="45.55977" lon="4.96326">
        <ele>271.43499755859</ele>
        <time>2012-06-09T08:47:51Z</time>
      </trkpt>
      <trkpt lat="45.55965" lon="4.96287">
        <ele>264.49499511719</ele>
        <time>2012-06-09T08:47:57Z</time>
      </trkpt>
      <trkpt lat="45.55952" lon="4.96243">
        <ele>257.97799682617</ele>
        <time>2012-06-09T08:48:04Z</time>
      </trkpt>
      <trkpt lat="45.55919" lon="4.96233">
        <ele>250.41400146484</ele>
        <time>2012-06-09T08:48:10Z</time>
      </trkpt>
      <trkpt lat="45.55884" lon="4.96276">
        <ele>241.79600524902</ele>
        <time>2012-06-09T08:48:18Z</time>
      </trkpt>
      <trkpt lat="45.55878" lon="4.9631">
        <ele>239.2140045166</ele>
        <time>2012-06-09T08:48:22Z</time>
      </trkpt>
      <trkpt lat="45.55866" lon="4.96296">
        <ele>234.60899353027</ele>
        <time>2012-06-09T08:48:28Z</time>
      </trkpt>
      <trkpt lat="45.55857" lon="4.9629">
        <ele>232.50100708008</ele>
        <time>2012-06-09T08:48:32Z</time>
      </trkpt>
      <trkpt lat="45.55823" lon="4.96294">
        <ele>229.64799499512</ele>
        <time>2012-06-09T08:48:39Z</time>
      </trkpt>
      <trkpt lat="45.55797" lon="4.96293">
        <ele>225.51300048828</ele>
        <time>2012-06-09T08:48:49Z</time>
      </trkpt>
      <trkpt lat="45.55782" lon="4.96283">
        <ele>225.21099853516</ele>
        <time>2012-06-09T08:49:08Z</time>
      </trkpt>
      <trkpt lat="45.5578" lon="4.96277">
        <ele>225.56599426269</ele>
        <time>2012-06-09T08:49:16Z</time>
      </trkpt>
      <trkpt lat="45.5578" lon="4.96265">
        <ele>226.26899719238</ele>
        <time>2012-06-09T08:53:41Z</time>
      </trkpt>
      <trkpt lat="45.55782" lon="4.96226">
        <ele>225.97999572754</ele>
        <time>2012-06-09T08:53:54Z</time>
      </trkpt>
      <trkpt lat="45.55769" lon="4.96219">
        <ele>225.86500549316</ele>
        <time>2012-06-09T08:53:59Z</time>
      </trkpt>
      <trkpt lat="45.5569" lon="4.96219">
        <ele>224.51600646973</ele>
        <time>2012-06-09T08:54:14Z</time>
      </trkpt>
      <trkpt lat="45.55589" lon="4.96221">
        <ele>222.46800231934</ele>
        <time>2012-06-09T08:54:31Z</time>
      </trkpt>
      <trkpt lat="45.55495" lon="4.96221">
        <ele>220.70199584961</ele>
        <time>2012-06-09T08:54:48Z</time>
      </trkpt>
      <trkpt lat="45.55403" lon="4.96221">
        <ele>221.12800598144</ele>
        <time>2012-06-09T08:55:07Z</time>
      </trkpt>
      <trkpt lat="45.55301" lon="4.96224">
        <ele>220.45399475098</ele>
        <time>2012-06-09T08:55:27Z</time>
      </trkpt>
      <trkpt lat="45.55196" lon="4.96224">
        <ele>219.82200622559</ele>
        <time>2012-06-09T08:55:47Z</time>
      </trkpt>
      <trkpt lat="45.55082" lon="4.96226">
        <ele>219.77699279785</ele>
        <time>2012-06-09T08:56:09Z</time>
      </trkpt>
      <trkpt lat="45.54962" lon="4.96226">
        <ele>220.14900207519</ele>
        <time>2012-06-09T08:56:32Z</time>
      </trkpt>
      <trkpt lat="45.54925" lon="4.96225">
        <ele>219.71299743652</ele>
        <time>2012-06-09T08:56:44Z</time>
      </trkpt>
      <trkpt lat="45.54886" lon="4.96227">
        <ele>220.09399414062</ele>
        <time>2012-06-09T08:56:55Z</time>
      </trkpt>
      <trkpt lat="45.548" lon="4.96227">
        <ele>221.29699707031</ele>
        <time>2012-06-09T08:57:14Z</time>
      </trkpt>
      <trkpt lat="45.54699" lon="4.96228">
        <ele>220.79100036621</ele>
        <time>2012-06-09T08:57:35Z</time>
      </trkpt>
      <trkpt lat="45.54617" lon="4.96228">
        <ele>222.00900268555</ele>
        <time>2012-06-09T08:57:53Z</time>
      </trkpt>
      <trkpt lat="45.54567" lon="4.96229">
        <ele>225.0359954834</ele>
        <time>2012-06-09T08:58:08Z</time>
      </trkpt>
      <trkpt lat="45.54523" lon="4.96231">
        <ele>227.45799255371</ele>
        <time>2012-06-09T08:58:20Z</time>
      </trkpt>
      <trkpt lat="45.54452" lon="4.96271">
        <ele>228.41799926758</ele>
        <time>2012-06-09T08:58:39Z</time>
      </trkpt>
      <trkpt lat="45.54393" lon="4.96307">
        <ele>228.43899536133</ele>
        <time>2012-06-09T08:58:55Z</time>
      </trkpt>
      <trkpt lat="45.54346" lon="4.96343">
        <ele>229.15699768066</ele>
        <time>2012-06-09T08:59:10Z</time>
      </trkpt>
      <trkpt lat="45.54258" lon="4.96411">
        <ele>231.39799499512</ele>
        <time>2012-06-09T08:59:34Z</time>
      </trkpt>
      <trkpt lat="45.54196" lon="4.96451">
        <ele>232.73100280762</ele>
        <time>2012-06-09T08:59:51Z</time>
      </trkpt>
      <trkpt lat="45.54116" lon="4.96501">
        <ele>234.12600708008</ele>
        <time>2012-06-09T09:00:11Z</time>
      </trkpt>
      <trkpt lat="45.54049" lon="4.96542">
        <ele>237.27400207519</ele>
        <time>2012-06-09T09:00:30Z</time>
      </trkpt>
      <trkpt lat="45.54019" lon="4.96582">
        <ele>240.90299987793</ele>
        <time>2012-06-09T09:00:44Z</time>
      </trkpt>
      <trkpt lat="45.54023" lon="4.9664">
        <ele>243.51400756836</ele>
        <time>2012-06-09T09:00:57Z</time>
      </trkpt>
      <trkpt lat="45.54034" lon="4.96731">
        <ele>245.10800170898</ele>
        <time>2012-06-09T09:01:15Z</time>
      </trkpt>
      <trkpt lat="45.54038" lon="4.96814">
        <ele>248.47599792481</ele>
        <time>2012-06-09T09:01:33Z</time>
      </trkpt>
      <trkpt lat="45.54042" lon="4.96874">
        <ele>250.42900085449</ele>
        <time>2012-06-09T09:01:51Z</time>
      </trkpt>
      <trkpt lat="45.54044" lon="4.96949">
        <ele>248.91299438477</ele>
        <time>2012-06-09T09:02:03Z</time>
      </trkpt>
      <trkpt lat="45.54036" lon="4.97018">
        <ele>244.52799987793</ele>
        <time>2012-06-09T09:02:12Z</time>
      </trkpt>
      <trkpt lat="45.54001" lon="4.9705">
        <ele>244.18600463867</ele>
        <time>2012-06-09T09:02:22Z</time>
      </trkpt>
      <trkpt lat="45.53967" lon="4.97089">
        <ele>244.91299438477</ele>
        <time>2012-06-09T09:02:34Z</time>
      </trkpt>
      <trkpt lat="45.5394" lon="4.97106">
        <ele>245.88800048828</ele>
        <time>2012-06-09T09:02:43Z</time>
      </trkpt>
      <trkpt lat="45.53951" lon="4.97118">
        <ele>246.62199401856</ele>
        <time>2012-06-09T09:02:51Z</time>
      </trkpt>
      <trkpt lat="45.53968" lon="4.97126">
        <ele>248.46000671387</ele>
        <time>2012-06-09T09:02:59Z</time>
      </trkpt>
      <trkpt lat="45.53999" lon="4.97143">
        <ele>252.00700378418</ele>
        <time>2012-06-09T09:03:12Z</time>
      </trkpt>
      <trkpt lat="45.54037" lon="4.97165">
        <ele>253.33500671387</ele>
        <time>2012-06-09T09:03:25Z</time>
      </trkpt>
      <trkpt lat="45.54066" lon="4.97204">
        <ele>251.26100158691</ele>
        <time>2012-06-09T09:03:35Z</time>
      </trkpt>
      <trkpt lat="45.54053" lon="4.97222">
        <ele>250.66799926758</ele>
        <time>2012-06-09T09:03:44Z</time>
      </trkpt>
      <trkpt lat="45.54009" lon="4.97263">
        <ele>252.28900146484</ele>
        <time>2012-06-09T09:04:03Z</time>
      </trkpt>
      <trkpt lat="45.53972" lon="4.97296">
        <ele>254.24899291992</ele>
        <time>2012-06-09T09:04:20Z</time>
      </trkpt>
      <trkpt lat="45.53936" lon="4.97331">
        <ele>256.6369934082</ele>
        <time>2012-06-09T09:04:37Z</time>
      </trkpt>
      <trkpt lat="45.53906" lon="4.9735">
        <ele>259.5</ele>
        <time>2012-06-09T09:04:51Z</time>
      </trkpt>
      <trkpt lat="45.53879" lon="4.97357">
        <ele>261.92999267578</ele>
        <time>2012-06-09T09:05:03Z</time>
      </trkpt>
      <trkpt lat="45.53864" lon="4.97377">
        <ele>264.74499511719</ele>
        <time>2012-06-09T09:05:13Z</time>
      </trkpt>
      <trkpt lat="45.53848" lon="4.97403">
        <ele>267.53100585938</ele>
        <time>2012-06-09T09:05:24Z</time>
      </trkpt>
      <trkpt lat="45.53834" lon="4.97435">
        <ele>270.38800048828</ele>
        <time>2012-06-09T09:05:35Z</time>
      </trkpt>
      <trkpt lat="45.53819" lon="4.97476">
        <ele>272.72299194336</ele>
        <time>2012-06-09T09:05:46Z</time>
      </trkpt>
      <trkpt lat="45.53814" lon="4.97503">
        <ele>274.04800415039</ele>
        <time>2012-06-09T09:05:53Z</time>
      </trkpt>
      <trkpt lat="45.53804" lon="4.97539">
        <ele>276.18600463867</ele>
        <time>2012-06-09T09:06:04Z</time>
      </trkpt>
      <trkpt lat="45.53794" lon="4.9758">
        <ele>279.17401123047</ele>
        <time>2012-06-09T09:06:17Z</time>
      </trkpt>
      <trkpt lat="45.5379" lon="4.97603">
        <ele>281.07998657227</ele>
        <time>2012-06-09T09:06:24Z</time>
      </trkpt>
      <trkpt lat="45.53787" lon="4.97624">
        <ele>282.93099975586</ele>
        <time>2012-06-09T09:06:31Z</time>
      </trkpt>
      <trkpt lat="45.53779" lon="4.9766">
        <ele>286.14001464844</ele>
        <time>2012-06-09T09:06:42Z</time>
      </trkpt>
      <trkpt lat="45.53767" lon="4.97694">
        <ele>289.05999755859</ele>
        <time>2012-06-09T09:06:52Z</time>
      </trkpt>
      <trkpt lat="45.53762" lon="4.9772">
        <ele>291.29098510742</ele>
        <time>2012-06-09T09:07:01Z</time>
      </trkpt>
      <trkpt lat="45.53752" lon="4.97765">
        <ele>295.27200317383</ele>
        <time>2012-06-09T09:07:15Z</time>
      </trkpt>
      <trkpt lat="45.53744" lon="4.97812">
        <ele>298.48901367188</ele>
        <time>2012-06-09T09:07:30Z</time>
      </trkpt>
      <trkpt lat="45.53734" lon="4.97857">
        <ele>301.67999267578</ele>
        <time>2012-06-09T09:07:44Z</time>
      </trkpt>
      <trkpt lat="45.53718" lon="4.97909">
        <ele>304.9469909668</ele>
        <time>2012-06-09T09:08:01Z</time>
      </trkpt>
      <trkpt lat="45.53702" lon="4.97959">
        <ele>307.37100219727</ele>
        <time>2012-06-09T09:08:16Z</time>
      </trkpt>
      <trkpt lat="45.53686" lon="4.98">
        <ele>309.50399780273</ele>
        <time>2012-06-09T09:08:29Z</time>
      </trkpt>
      <trkpt lat="45.5368" lon="4.98058">
        <ele>311.08700561523</ele>
        <time>2012-06-09T09:08:45Z</time>
      </trkpt>
      <trkpt lat="45.53677" lon="4.98121">
        <ele>313.71798706055</ele>
        <time>2012-06-09T09:09:02Z</time>
      </trkpt>
      <trkpt lat="45.53672" lon="4.98186">
        <ele>316.86700439453</ele>
        <time>2012-06-09T09:09:20Z</time>
      </trkpt>
      <trkpt lat="45.53654" lon="4.98263">
        <ele>321.11700439453</ele>
        <time>2012-06-09T09:09:44Z</time>
      </trkpt>
      <trkpt lat="45.53643" lon="4.98301">
        <ele>322.38400268555</ele>
        <time>2012-06-09T09:09:56Z</time>
      </trkpt>
      <trkpt lat="45.53626" lon="4.98343">
        <ele>323.50698852539</ele>
        <time>2012-06-09T09:10:10Z</time>
      </trkpt>
      <trkpt lat="45.53599" lon="4.98365">
        <ele>323.04699707031</ele>
        <time>2012-06-09T09:10:25Z</time>
      </trkpt>
      <trkpt lat="45.53578" lon="4.98367">
        <ele>323.31600952148</ele>
        <time>2012-06-09T09:10:35Z</time>
      </trkpt>
      <trkpt lat="45.53556" lon="4.98372">
        <ele>323.77899169922</ele>
        <time>2012-06-09T09:10:47Z</time>
      </trkpt>
      <trkpt lat="45.53525" lon="4.98394">
        <ele>325.81799316406</ele>
        <time>2012-06-09T09:11:04Z</time>
      </trkpt>
      <trkpt lat="45.53533" lon="4.98422">
        <ele>327.54800415039</ele>
        <time>2012-06-09T09:11:19Z</time>
      </trkpt>
      <trkpt lat="45.53543" lon="4.98453">
        <ele>327.82901000977</ele>
        <time>2012-06-09T09:13:57Z</time>
      </trkpt>
      <trkpt lat="45.5356" lon="4.98525">
        <ele>327.59899902344</ele>
        <time>2012-06-09T09:14:14Z</time>
      </trkpt>
      <trkpt lat="45.53536" lon="4.98568">
        <ele>328.51000976562</ele>
        <time>2012-06-09T09:14:28Z</time>
      </trkpt>
      <trkpt lat="45.53506" lon="4.98603">
        <ele>332.49200439453</ele>
        <time>2012-06-09T09:14:46Z</time>
      </trkpt>
      <trkpt lat="45.53482" lon="4.98633">
        <ele>336.9880065918</ele>
        <time>2012-06-09T09:15:03Z</time>
      </trkpt>
      <trkpt lat="45.53448" lon="4.9865">
        <ele>342.32598876953</ele>
        <time>2012-06-09T09:15:23Z</time>
      </trkpt>
      <trkpt lat="45.53415" lon="4.98652">
        <ele>344.97198486328</ele>
        <time>2012-06-09T09:15:38Z</time>
      </trkpt>
      <trkpt lat="45.53377" lon="4.98656">
        <ele>344.51800537109</ele>
        <time>2012-06-09T09:15:51Z</time>
      </trkpt>
      <trkpt lat="45.53371" lon="4.98692">
        <ele>344.64898681641</ele>
        <time>2012-06-09T09:16:00Z</time>
      </trkpt>
      <trkpt lat="45.53373" lon="4.9869">
        <ele>344.63299560547</ele>
        <time>2012-06-09T09:16:09Z</time>
      </trkpt>
      <trkpt lat="45.53371" lon="4.98691">
        <ele>344.6969909668</ele>
        <time>2012-06-09T09:16:18Z</time>
      </trkpt>
      <trkpt lat="45.53373" lon="4.98739">
        <ele>345.35900878906</ele>
        <time>2012-06-09T09:16:31Z</time>
      </trkpt>
      <trkpt lat="45.53381" lon="4.98806">
        <ele>347.16500854492</ele>
        <time>2012-06-09T09:16:46Z</time>
      </trkpt>
      <trkpt lat="45.53388" lon="4.98862">
        <ele>348.12799072266</ele>
        <time>2012-06-09T09:17:02Z</time>
      </trkpt>
      <trkpt lat="45.53395" lon="4.98933">
        <ele>349.88598632812</ele>
        <time>2012-06-09T09:17:19Z</time>
      </trkpt>
      <trkpt lat="45.53402" lon="4.98998">
        <ele>352.07800292969</ele>
        <time>2012-06-09T09:17:34Z</time>
      </trkpt>
      <trkpt lat="45.5341" lon="4.99083">
        <ele>352.40301513672</ele>
        <time>2012-06-09T09:17:49Z</time>
      </trkpt>
      <trkpt lat="45.53416" lon="4.99192">
        <ele>350.75799560547</ele>
        <time>2012-06-09T09:18:06Z</time>
      </trkpt>
      <trkpt lat="45.53404" lon="4.99266">
        <ele>350.28698730469</ele>
        <time>2012-06-09T09:18:20Z</time>
      </trkpt>
      <trkpt lat="45.53361" lon="4.99361">
        <ele>351.22198486328</ele>
        <time>2012-06-09T09:18:41Z</time>
      </trkpt>
      <trkpt lat="45.5334" lon="4.99443">
        <ele>352.44198608398</ele>
        <time>2012-06-09T09:18:59Z</time>
      </trkpt>
      <trkpt lat="45.53327" lon="4.99518">
        <ele>354.64599609375</ele>
        <time>2012-06-09T09:19:15Z</time>
      </trkpt>
      <trkpt lat="45.53317" lon="4.99601">
        <ele>356.48901367188</ele>
        <time>2012-06-09T09:19:33Z</time>
      </trkpt>
      <trkpt lat="45.53321" lon="4.99692">
        <ele>357.65301513672</ele>
        <time>2012-06-09T09:19:51Z</time>
      </trkpt>
      <trkpt lat="45.53326" lon="4.9979">
        <ele>357.50500488281</ele>
        <time>2012-06-09T09:20:07Z</time>
      </trkpt>
      <trkpt lat="45.53318" lon="4.99914">
        <ele>357.10800170898</ele>
        <time>2012-06-09T09:20:26Z</time>
      </trkpt>
      <trkpt lat="45.53322" lon="5.00022">
        <ele>358.13000488281</ele>
        <time>2012-06-09T09:20:43Z</time>
      </trkpt>
      <trkpt lat="45.53325" lon="5.00149">
        <ele>359.83200073242</ele>
        <time>2012-06-09T09:21:03Z</time>
      </trkpt>
      <trkpt lat="45.53322" lon="5.00257">
        <ele>362.66598510742</ele>
        <time>2012-06-09T09:21:22Z</time>
      </trkpt>
      <trkpt lat="45.53325" lon="5.00301">
        <ele>362.73498535156</ele>
        <time>2012-06-09T09:21:35Z</time>
      </trkpt>
      <trkpt lat="45.53329" lon="5.00345">
        <ele>362.78601074219</ele>
        <time>2012-06-09T09:21:47Z</time>
      </trkpt>
      <trkpt lat="45.53334" lon="5.00389">
        <ele>363.14700317383</ele>
        <time>2012-06-09T09:21:59Z</time>
      </trkpt>
      <trkpt lat="45.5335" lon="5.00466">
        <ele>363.71099853516</ele>
        <time>2012-06-09T09:22:15Z</time>
      </trkpt>
      <trkpt lat="45.53356" lon="5.00558">
        <ele>364.69500732422</ele>
        <time>2012-06-09T09:22:31Z</time>
      </trkpt>
      <trkpt lat="45.53357" lon="5.00583">
        <ele>364.49301147461</ele>
        <time>2012-06-09T09:22:38Z</time>
      </trkpt>
      <trkpt lat="45.53363" lon="5.00589">
        <ele>364.54000854492</ele>
        <time>2012-06-09T09:22:54Z</time>
      </trkpt>
      <trkpt lat="45.53364" lon="5.00586">
        <ele>365.08499145508</ele>
        <time>2012-06-09T09:24:09Z</time>
      </trkpt>
      <trkpt lat="45.534" lon="5.00602">
        <ele>366.18701171875</ele>
        <time>2012-06-09T09:24:22Z</time>
      </trkpt>
      <trkpt lat="45.53439" lon="5.00616">
        <ele>367.02398681641</ele>
        <time>2012-06-09T09:24:35Z</time>
      </trkpt>
      <trkpt lat="45.53482" lon="5.00622">
        <ele>366.96701049805</ele>
        <time>2012-06-09T09:24:48Z</time>
      </trkpt>
      <trkpt lat="45.53539" lon="5.00628">
        <ele>366.02200317383</ele>
        <time>2012-06-09T09:24:59Z</time>
      </trkpt>
      <trkpt lat="45.53547" lon="5.00659">
        <ele>365.01998901367</ele>
        <time>2012-06-09T09:25:07Z</time>
      </trkpt>
      <trkpt lat="45.53542" lon="5.00711">
        <ele>365.61099243164</ele>
        <time>2012-06-09T09:25:17Z</time>
      </trkpt>
      <trkpt lat="45.53539" lon="5.00753">
        <ele>366.86599731445</ele>
        <time>2012-06-09T09:25:27Z</time>
      </trkpt>
      <trkpt lat="45.5354" lon="5.00792">
        <ele>368.0719909668</ele>
        <time>2012-06-09T09:25:37Z</time>
      </trkpt>
      <trkpt lat="45.53539" lon="5.00828">
        <ele>368.55899047852</ele>
        <time>2012-06-09T09:25:46Z</time>
      </trkpt>
      <trkpt lat="45.53535" lon="5.00869">
        <ele>369.22198486328</ele>
        <time>2012-06-09T09:25:56Z</time>
      </trkpt>
      <trkpt lat="45.53532" lon="5.00907">
        <ele>369.68600463867</ele>
        <time>2012-06-09T09:26:04Z</time>
      </trkpt>
      <trkpt lat="45.5353" lon="5.00958">
        <ele>370.38101196289</ele>
        <time>2012-06-09T09:26:16Z</time>
      </trkpt>
      <trkpt lat="45.53527" lon="5.00996">
        <ele>370.79699707031</ele>
        <time>2012-06-09T09:26:25Z</time>
      </trkpt>
      <trkpt lat="45.53524" lon="5.01034">
        <ele>370.8869934082</ele>
        <time>2012-06-09T09:26:34Z</time>
      </trkpt>
      <trkpt lat="45.53521" lon="5.01069">
        <ele>370.81298828125</ele>
        <time>2012-06-09T09:26:41Z</time>
      </trkpt>
      <trkpt lat="45.53519" lon="5.01098">
        <ele>370.14898681641</ele>
        <time>2012-06-09T09:26:49Z</time>
      </trkpt>
      <trkpt lat="45.53516" lon="5.01128">
        <ele>369.98699951172</ele>
        <time>2012-06-09T09:26:56Z</time>
      </trkpt>
      <trkpt lat="45.53511" lon="5.01152">
        <ele>369.80200195312</ele>
        <time>2012-06-09T09:27:02Z</time>
      </trkpt>
      <trkpt lat="45.53508" lon="5.01179">
        <ele>369.64700317383</ele>
        <time>2012-06-09T09:27:11Z</time>
      </trkpt>
      <trkpt lat="45.53506" lon="5.01203">
        <ele>369.72500610352</ele>
        <time>2012-06-09T09:27:18Z</time>
      </trkpt>
      <trkpt lat="45.53477" lon="5.01215">
        <ele>369.6669921875</ele>
        <time>2012-06-09T09:27:29Z</time>
      </trkpt>
      <trkpt lat="45.53449" lon="5.01214">
        <ele>369.52200317383</ele>
        <time>2012-06-09T09:27:39Z</time>
      </trkpt>
      <trkpt lat="45.53418" lon="5.0122">
        <ele>368.97900390625</ele>
        <time>2012-06-09T09:27:49Z</time>
      </trkpt>
      <trkpt lat="45.53394" lon="5.01221">
        <ele>368.33898925781</ele>
        <time>2012-06-09T09:27:55Z</time>
      </trkpt>
      <trkpt lat="45.53368" lon="5.01218">
        <ele>366.32800292969</ele>
        <time>2012-06-09T09:28:02Z</time>
      </trkpt>
      <trkpt lat="45.53344" lon="5.01247">
        <ele>365.95498657227</ele>
        <time>2012-06-09T09:28:10Z</time>
      </trkpt>
      <trkpt lat="45.53331" lon="5.01275">
        <ele>365.98599243164</ele>
        <time>2012-06-09T09:28:16Z</time>
      </trkpt>
      <trkpt lat="45.53314" lon="5.01306">
        <ele>365.97100830078</ele>
        <time>2012-06-09T09:28:23Z</time>
      </trkpt>
      <trkpt lat="45.53298" lon="5.01345">
        <ele>366.40399169922</ele>
        <time>2012-06-09T09:28:32Z</time>
      </trkpt>
      <trkpt lat="45.53272" lon="5.01389">
        <ele>367.86099243164</ele>
        <time>2012-06-09T09:28:44Z</time>
      </trkpt>
      <trkpt lat="45.53231" lon="5.01452">
        <ele>368.66500854492</ele>
        <time>2012-06-09T09:29:00Z</time>
      </trkpt>
      <trkpt lat="45.53216" lon="5.0152">
        <ele>369.02801513672</ele>
        <time>2012-06-09T09:29:13Z</time>
      </trkpt>
      <trkpt lat="45.53204" lon="5.016">
        <ele>370.36199951172</ele>
        <time>2012-06-09T09:29:28Z</time>
      </trkpt>
      <trkpt lat="45.5321" lon="5.01636">
        <ele>372.36599731445</ele>
        <time>2012-06-09T09:29:38Z</time>
      </trkpt>
      <trkpt lat="45.53236" lon="5.01669">
        <ele>373.65301513672</ele>
        <time>2012-06-09T09:29:48Z</time>
      </trkpt>
      <trkpt lat="45.53273" lon="5.01725">
        <ele>373.92098999023</ele>
        <time>2012-06-09T09:30:03Z</time>
      </trkpt>
      <trkpt lat="45.53286" lon="5.01744">
        <ele>373.44000244141</ele>
        <time>2012-06-09T09:30:15Z</time>
      </trkpt>
      <trkpt lat="45.53289" lon="5.01753">
        <ele>374.29098510742</ele>
        <time>2012-06-09T09:31:43Z</time>
      </trkpt>
      <trkpt lat="45.53299" lon="5.01767">
        <ele>374.10501098633</ele>
        <time>2012-06-09T09:32:03Z</time>
      </trkpt>
      <trkpt lat="45.53323" lon="5.01807">
        <ele>374.31298828125</ele>
        <time>2012-06-09T09:32:18Z</time>
      </trkpt>
      <trkpt lat="45.53336" lon="5.01853">
        <ele>374.04800415039</ele>
        <time>2012-06-09T09:32:33Z</time>
      </trkpt>
      <trkpt lat="45.53328" lon="5.01901">
        <ele>376.30499267578</ele>
        <time>2012-06-09T09:32:48Z</time>
      </trkpt>
      <trkpt lat="45.53332" lon="5.01937">
        <ele>379.46398925781</ele>
        <time>2012-06-09T09:33:01Z</time>
      </trkpt>
      <trkpt lat="45.53351" lon="5.01964">
        <ele>379.35501098633</ele>
        <time>2012-06-09T09:33:10Z</time>
      </trkpt>
      <trkpt lat="45.53361" lon="5.02">
        <ele>379.3039855957</ele>
        <time>2012-06-09T09:33:21Z</time>
      </trkpt>
      <trkpt lat="45.53374" lon="5.02024">
        <ele>379.5830078125</ele>
        <time>2012-06-09T09:33:29Z</time>
      </trkpt>
      <trkpt lat="45.53397" lon="5.02067">
        <ele>378.80899047852</ele>
        <time>2012-06-09T09:33:39Z</time>
      </trkpt>
      <trkpt lat="45.53396" lon="5.0212">
        <ele>376.71600341797</ele>
        <time>2012-06-09T09:33:51Z</time>
      </trkpt>
      <trkpt lat="45.53388" lon="5.02155">
        <ele>376.65200805664</ele>
        <time>2012-06-09T09:34:01Z</time>
      </trkpt>
      <trkpt lat="45.53394" lon="5.02201">
        <ele>377.58401489258</ele>
        <time>2012-06-09T09:34:11Z</time>
      </trkpt>
      <trkpt lat="45.534" lon="5.02264">
        <ele>380.24200439453</ele>
        <time>2012-06-09T09:34:26Z</time>
      </trkpt>
      <trkpt lat="45.53404" lon="5.02324">
        <ele>380.6969909668</ele>
        <time>2012-06-09T09:34:37Z</time>
      </trkpt>
      <trkpt lat="45.5341" lon="5.02403">
        <ele>380.29299926758</ele>
        <time>2012-06-09T09:34:50Z</time>
      </trkpt>
      <trkpt lat="45.53382" lon="5.02473">
        <ele>381.13400268555</ele>
        <time>2012-06-09T09:35:04Z</time>
      </trkpt>
      <trkpt lat="45.53345" lon="5.0257">
        <ele>382.37399291992</ele>
        <time>2012-06-09T09:35:21Z</time>
      </trkpt>
      <trkpt lat="45.53328" lon="5.02615">
        <ele>381.92098999023</ele>
        <time>2012-06-09T09:35:29Z</time>
      </trkpt>
      <trkpt lat="45.53317" lon="5.02637">
        <ele>381.8030090332</ele>
        <time>2012-06-09T09:35:33Z</time>
      </trkpt>
      <trkpt lat="45.53272" lon="5.02672">
        <ele>381.76800537109</ele>
        <time>2012-06-09T09:35:45Z</time>
      </trkpt>
      <trkpt lat="45.53224" lon="5.02706">
        <ele>381.46301269531</ele>
        <time>2012-06-09T09:35:58Z</time>
      </trkpt>
      <trkpt lat="45.53208" lon="5.02723">
        <ele>381.01800537109</ele>
        <time>2012-06-09T09:36:08Z</time>
      </trkpt>
      <trkpt lat="45.53198" lon="5.02773">
        <ele>380.42401123047</ele>
        <time>2012-06-09T09:36:18Z</time>
      </trkpt>
      <trkpt lat="45.53178" lon="5.02853">
        <ele>379.25500488281</ele>
        <time>2012-06-09T09:36:33Z</time>
      </trkpt>
      <trkpt lat="45.53166" lon="5.02899">
        <ele>379.20199584961</ele>
        <time>2012-06-09T09:36:41Z</time>
      </trkpt>
      <trkpt lat="45.53137" lon="5.02991">
        <ele>379.46398925781</ele>
        <time>2012-06-09T09:36:56Z</time>
      </trkpt>
      <trkpt lat="45.53127" lon="5.03069">
        <ele>379.54901123047</ele>
        <time>2012-06-09T09:37:11Z</time>
      </trkpt>
      <trkpt lat="45.53179" lon="5.03128">
        <ele>380.37200927734</ele>
        <time>2012-06-09T09:37:30Z</time>
      </trkpt>
      <trkpt lat="45.5325" lon="5.03177">
        <ele>381.68701171875</ele>
        <time>2012-06-09T09:37:49Z</time>
      </trkpt>
      <trkpt lat="45.53307" lon="5.03216">
        <ele>384.37600708008</ele>
        <time>2012-06-09T09:38:05Z</time>
      </trkpt>
      <trkpt lat="45.53354" lon="5.03256">
        <ele>386.08999633789</ele>
        <time>2012-06-09T09:38:20Z</time>
      </trkpt>
      <trkpt lat="45.53391" lon="5.03311">
        <ele>386.96600341797</ele>
        <time>2012-06-09T09:38:35Z</time>
      </trkpt>
      <trkpt lat="45.53422" lon="5.03341">
        <ele>387.63101196289</ele>
        <time>2012-06-09T09:38:48Z</time>
      </trkpt>
      <trkpt lat="45.53491" lon="5.03393">
        <ele>385.34100341797</ele>
        <time>2012-06-09T09:39:03Z</time>
      </trkpt>
      <trkpt lat="45.53535" lon="5.03431">
        <ele>384.16500854492</ele>
        <time>2012-06-09T09:39:13Z</time>
      </trkpt>
      <trkpt lat="45.53568" lon="5.03394">
        <ele>384.05899047852</ele>
        <time>2012-06-09T09:39:20Z</time>
      </trkpt>
      <trkpt lat="45.53609" lon="5.03354">
        <ele>386.26599121094</ele>
        <time>2012-06-09T09:39:29Z</time>
      </trkpt>
      <trkpt lat="45.53649" lon="5.03314">
        <ele>384.36499023438</ele>
        <time>2012-06-09T09:39:39Z</time>
      </trkpt>
      <trkpt lat="45.53734" lon="5.03277">
        <ele>382.13299560547</ele>
        <time>2012-06-09T09:39:55Z</time>
      </trkpt>
      <trkpt lat="45.53762" lon="5.03259">
        <ele>381.7799987793</ele>
        <time>2012-06-09T09:40:01Z</time>
      </trkpt>
      <trkpt lat="45.53811" lon="5.03239">
        <ele>382.08401489258</ele>
        <time>2012-06-09T09:40:09Z</time>
      </trkpt>
      <trkpt lat="45.53867" lon="5.03212">
        <ele>383.87600708008</ele>
        <time>2012-06-09T09:40:22Z</time>
      </trkpt>
      <trkpt lat="45.53906" lon="5.03176">
        <ele>385.45001220703</ele>
        <time>2012-06-09T09:40:34Z</time>
      </trkpt>
      <trkpt lat="45.53947" lon="5.03132">
        <ele>388.2200012207</ele>
        <time>2012-06-09T09:40:48Z</time>
      </trkpt>
      <trkpt lat="45.53997" lon="5.03115">
        <ele>388.88198852539</ele>
        <time>2012-06-09T09:41:00Z</time>
      </trkpt>
      <trkpt lat="45.54068" lon="5.03059">
        <ele>388.02499389648</ele>
        <time>2012-06-09T09:41:13Z</time>
      </trkpt>
      <trkpt lat="45.54132" lon="5.03">
        <ele>386.4460144043</ele>
        <time>2012-06-09T09:41:26Z</time>
      </trkpt>
      <trkpt lat="45.54201" lon="5.02939">
        <ele>380.8330078125</ele>
        <time>2012-06-09T09:41:37Z</time>
      </trkpt>
      <trkpt lat="45.54219" lon="5.02943">
        <ele>378.0530090332</ele>
        <time>2012-06-09T09:41:44Z</time>
      </trkpt>
      <trkpt lat="45.54221" lon="5.03008">
        <ele>377.29098510742</ele>
        <time>2012-06-09T09:41:57Z</time>
      </trkpt>
      <trkpt lat="45.54236" lon="5.03005">
        <ele>375.73098754883</ele>
        <time>2012-06-09T09:42:04Z</time>
      </trkpt>
      <trkpt lat="45.54279" lon="5.02979">
        <ele>373.57598876953</ele>
        <time>2012-06-09T09:42:14Z</time>
      </trkpt>
      <trkpt lat="45.54315" lon="5.02985">
        <ele>372.11099243164</ele>
        <time>2012-06-09T09:42:20Z</time>
      </trkpt>
      <trkpt lat="45.54389" lon="5.03009">
        <ele>370.04598999023</ele>
        <time>2012-06-09T09:42:32Z</time>
      </trkpt>
      <trkpt lat="45.54465" lon="5.03011">
        <ele>369.99798583984</ele>
        <time>2012-06-09T09:42:47Z</time>
      </trkpt>
      <trkpt lat="45.54502" lon="5.03009">
        <ele>370.51599121094</ele>
        <time>2012-06-09T09:42:56Z</time>
      </trkpt>
      <trkpt lat="45.54549" lon="5.02989">
        <ele>370.62100219727</ele>
        <time>2012-06-09T09:43:07Z</time>
      </trkpt>
      <trkpt lat="45.54584" lon="5.02973">
        <ele>369.17498779297</ele>
        <time>2012-06-09T09:43:16Z</time>
      </trkpt>
      <trkpt lat="45.54639" lon="5.03017">
        <ele>366.90899658203</ele>
        <time>2012-06-09T09:43:27Z</time>
      </trkpt>
      <trkpt lat="45.54702" lon="5.0303">
        <ele>362.72500610352</ele>
        <time>2012-06-09T09:43:37Z</time>
      </trkpt>
      <trkpt lat="45.54763" lon="5.03045">
        <ele>357.84298706055</ele>
        <time>2012-06-09T09:43:46Z</time>
      </trkpt>
      <trkpt lat="45.54817" lon="5.03059">
        <ele>354.21200561523</ele>
        <time>2012-06-09T09:43:54Z</time>
      </trkpt>
      <trkpt lat="45.54861" lon="5.03055">
        <ele>350.79000854492</ele>
        <time>2012-06-09T09:44:01Z</time>
      </trkpt>
      <trkpt lat="45.54863" lon="5.0303">
        <ele>349.52899169922</ele>
        <time>2012-06-09T09:44:04Z</time>
      </trkpt>
      <trkpt lat="45.54873" lon="5.0292">
        <ele>349.35699462891</ele>
        <time>2012-06-09T09:44:21Z</time>
      </trkpt>
      <trkpt lat="45.54924" lon="5.02929">
        <ele>346.21701049805</ele>
        <time>2012-06-09T09:44:30Z</time>
      </trkpt>
      <trkpt lat="45.5498" lon="5.02941">
        <ele>342.04098510742</ele>
        <time>2012-06-09T09:44:38Z</time>
      </trkpt>
      <trkpt lat="45.55096" lon="5.02964">
        <ele>330.67098999023</ele>
        <time>2012-06-09T09:44:52Z</time>
      </trkpt>
      <trkpt lat="45.55155" lon="5.02956">
        <ele>328.27099609375</ele>
        <time>2012-06-09T09:44:59Z</time>
      </trkpt>
      <trkpt lat="45.55271" lon="5.02895">
        <ele>321.08700561523</ele>
        <time>2012-06-09T09:45:15Z</time>
      </trkpt>
      <trkpt lat="45.55362" lon="5.02846">
        <ele>311.11199951172</ele>
        <time>2012-06-09T09:45:27Z</time>
      </trkpt>
      <trkpt lat="45.55405" lon="5.02823">
        <ele>305.81298828125</ele>
        <time>2012-06-09T09:45:33Z</time>
      </trkpt>
      <trkpt lat="45.55459" lon="5.02794">
        <ele>296.93200683594</ele>
        <time>2012-06-09T09:45:41Z</time>
      </trkpt>
      <trkpt lat="45.55506" lon="5.02736">
        <ele>288.91799926758</ele>
        <time>2012-06-09T09:45:49Z</time>
      </trkpt>
      <trkpt lat="45.55577" lon="5.02692">
        <ele>281.33200073242</ele>
        <time>2012-06-09T09:45:58Z</time>
      </trkpt>
      <trkpt lat="45.55631" lon="5.0268">
        <ele>277.59899902344</ele>
        <time>2012-06-09T09:46:04Z</time>
      </trkpt>
      <trkpt lat="45.55651" lon="5.02693">
        <ele>275.25698852539</ele>
        <time>2012-06-09T09:46:09Z</time>
      </trkpt>
      <trkpt lat="45.55653" lon="5.02689">
        <ele>273.36801147461</ele>
        <time>2012-06-09T09:46:13Z</time>
      </trkpt>
      <trkpt lat="45.55652" lon="5.02692">
        <ele>272.82699584961</ele>
        <time>2012-06-09T09:46:29Z</time>
      </trkpt>
      <trkpt lat="45.55632" lon="5.0272">
        <ele>273.30599975586</ele>
        <time>2012-06-09T09:48:02Z</time>
      </trkpt>
      <trkpt lat="45.55598" lon="5.02776">
        <ele>273.82901000977</ele>
        <time>2012-06-09T09:48:19Z</time>
      </trkpt>
      <trkpt lat="45.55568" lon="5.02848">
        <ele>274.44500732422</ele>
        <time>2012-06-09T09:48:34Z</time>
      </trkpt>
      <trkpt lat="45.55551" lon="5.02924">
        <ele>275.6130065918</ele>
        <time>2012-06-09T09:48:49Z</time>
      </trkpt>
      <trkpt lat="45.55524" lon="5.03007">
        <ele>276.19799804688</ele>
        <time>2012-06-09T09:49:05Z</time>
      </trkpt>
      <trkpt lat="45.55481" lon="5.0308">
        <ele>276.94198608398</ele>
        <time>2012-06-09T09:49:21Z</time>
      </trkpt>
      <trkpt lat="45.55436" lon="5.03141">
        <ele>278.13198852539</ele>
        <time>2012-06-09T09:49:37Z</time>
      </trkpt>
      <trkpt lat="45.55424" lon="5.0318">
        <ele>278.64199829102</ele>
        <time>2012-06-09T09:49:45Z</time>
      </trkpt>
      <trkpt lat="45.5541" lon="5.03211">
        <ele>278.79299926758</ele>
        <time>2012-06-09T09:49:52Z</time>
      </trkpt>
      <trkpt lat="45.55432" lon="5.03273">
        <ele>279.37200927734</ele>
        <time>2012-06-09T09:50:05Z</time>
      </trkpt>
      <trkpt lat="45.55434" lon="5.03322">
        <ele>280.99700927734</ele>
        <time>2012-06-09T09:50:16Z</time>
      </trkpt>
      <trkpt lat="45.55443" lon="5.03327">
        <ele>282.30700683594</ele>
        <time>2012-06-09T09:50:21Z</time>
      </trkpt>
      <trkpt lat="45.55491" lon="5.03299">
        <ele>283.7919921875</ele>
        <time>2012-06-09T09:50:36Z</time>
      </trkpt>
      <trkpt lat="45.55547" lon="5.03288">
        <ele>286.87399291992</ele>
        <time>2012-06-09T09:50:53Z</time>
      </trkpt>
      <trkpt lat="45.55603" lon="5.03269">
        <ele>286.21200561523</ele>
        <time>2012-06-09T09:51:07Z</time>
      </trkpt>
      <trkpt lat="45.55637" lon="5.03256">
        <ele>285.20599365234</ele>
        <time>2012-06-09T09:51:15Z</time>
      </trkpt>
      <trkpt lat="45.55693" lon="5.03206">
        <ele>284.58599853516</ele>
        <time>2012-06-09T09:51:28Z</time>
      </trkpt>
      <trkpt lat="45.5573" lon="5.0317">
        <ele>283.75100708008</ele>
        <time>2012-06-09T09:51:39Z</time>
      </trkpt>
      <trkpt lat="45.55746" lon="5.03205">
        <ele>285.23999023438</ele>
        <time>2012-06-09T09:51:50Z</time>
      </trkpt>
      <trkpt lat="45.55739" lon="5.03245">
        <ele>289.56900024414</ele>
        <time>2012-06-09T09:52:03Z</time>
      </trkpt>
      <trkpt lat="45.55745" lon="5.03282">
        <ele>292.62899780273</ele>
        <time>2012-06-09T09:52:17Z</time>
      </trkpt>
      <trkpt lat="45.55765" lon="5.03311">
        <ele>296.48498535156</ele>
        <time>2012-06-09T09:52:30Z</time>
      </trkpt>
      <trkpt lat="45.5578" lon="5.03344">
        <ele>300.57299804688</ele>
        <time>2012-06-09T09:52:43Z</time>
      </trkpt>
      <trkpt lat="45.55782" lon="5.03365">
        <ele>303.88500976562</ele>
        <time>2012-06-09T09:52:55Z</time>
      </trkpt>
      <trkpt lat="45.55761" lon="5.03368">
        <ele>306.01000976562</ele>
        <time>2012-06-09T09:53:05Z</time>
      </trkpt>
      <trkpt lat="45.55725" lon="5.03374">
        <ele>310.19900512695</ele>
        <time>2012-06-09T09:53:22Z</time>
      </trkpt>
      <trkpt lat="45.55702" lon="5.03393">
        <ele>312.69799804688</ele>
        <time>2012-06-09T09:53:35Z</time>
      </trkpt>
      <trkpt lat="45.5568" lon="5.03428">
        <ele>315.7200012207</ele>
        <time>2012-06-09T09:53:50Z</time>
      </trkpt>
      <trkpt lat="45.55661" lon="5.03459">
        <ele>319.0830078125</ele>
        <time>2012-06-09T09:54:02Z</time>
      </trkpt>
      <trkpt lat="45.55641" lon="5.035">
        <ele>323.50698852539</ele>
        <time>2012-06-09T09:54:18Z</time>
      </trkpt>
      <trkpt lat="45.55631" lon="5.0353">
        <ele>327.03298950195</ele>
        <time>2012-06-09T09:54:32Z</time>
      </trkpt>
      <trkpt lat="45.55634" lon="5.03556">
        <ele>329.99899291992</ele>
        <time>2012-06-09T09:54:46Z</time>
      </trkpt>
      <trkpt lat="45.5564" lon="5.03589">
        <ele>333.95498657227</ele>
        <time>2012-06-09T09:55:02Z</time>
      </trkpt>
      <trkpt lat="45.55647" lon="5.03625">
        <ele>336.96301269531</ele>
        <time>2012-06-09T09:55:18Z</time>
      </trkpt>
      <trkpt lat="45.55648" lon="5.03674">
        <ele>341.78500366211</ele>
        <time>2012-06-09T09:55:44Z</time>
      </trkpt>
      <trkpt lat="45.55643" lon="5.03705">
        <ele>345.69500732422</ele>
        <time>2012-06-09T09:56:02Z</time>
      </trkpt>
      <trkpt lat="45.55642" lon="5.03735">
        <ele>349.77899169922</ele>
        <time>2012-06-09T09:56:18Z</time>
      </trkpt>
      <trkpt lat="45.55647" lon="5.03781">
        <ele>355.05499267578</ele>
        <time>2012-06-09T09:56:37Z</time>
      </trkpt>
      <trkpt lat="45.55659" lon="5.03807">
        <ele>357.79299926758</ele>
        <time>2012-06-09T09:56:49Z</time>
      </trkpt>
      <trkpt lat="45.55664" lon="5.03835">
        <ele>359.95300292969</ele>
        <time>2012-06-09T09:57:00Z</time>
      </trkpt>
      <trkpt lat="45.55669" lon="5.03862">
        <ele>362.76400756836</ele>
        <time>2012-06-09T09:57:10Z</time>
      </trkpt>
      <trkpt lat="45.55676" lon="5.03897">
        <ele>365.86801147461</ele>
        <time>2012-06-09T09:57:22Z</time>
      </trkpt>
      <trkpt lat="45.55689" lon="5.03938">
        <ele>368.63101196289</ele>
        <time>2012-06-09T09:57:36Z</time>
      </trkpt>
      <trkpt lat="45.55704" lon="5.03995">
        <ele>371.12701416016</ele>
        <time>2012-06-09T09:57:53Z</time>
      </trkpt>
      <trkpt lat="45.55722" lon="5.04042">
        <ele>372.24301147461</ele>
        <time>2012-06-09T09:58:09Z</time>
      </trkpt>
      <trkpt lat="45.55741" lon="5.04105">
        <ele>371.90399169922</ele>
        <time>2012-06-09T09:58:26Z</time>
      </trkpt>
      <trkpt lat="45.55759" lon="5.0416">
        <ele>371.19799804688</ele>
        <time>2012-06-09T09:58:44Z</time>
      </trkpt>
      <trkpt lat="45.55764" lon="5.04174">
        <ele>370.78298950195</ele>
        <time>2012-06-09T09:58:56Z</time>
      </trkpt>
      <trkpt lat="45.55766" lon="5.04173">
        <ele>370.76800537109</ele>
        <time>2012-06-09T09:59:07Z</time>
      </trkpt>
      <trkpt lat="45.55766" lon="5.04169">
        <ele>371.79998779297</ele>
        <time>2012-06-09T10:02:15Z</time>
      </trkpt>
      <trkpt lat="45.55771" lon="5.04184">
        <ele>371.82501220703</ele>
        <time>2012-06-09T10:02:27Z</time>
      </trkpt>
      <trkpt lat="45.55795" lon="5.04194">
        <ele>372.52301025391</ele>
        <time>2012-06-09T10:02:39Z</time>
      </trkpt>
      <trkpt lat="45.55835" lon="5.04227">
        <ele>373.22601318359</ele>
        <time>2012-06-09T10:02:54Z</time>
      </trkpt>
      <trkpt lat="45.55875" lon="5.04247">
        <ele>374.32598876953</ele>
        <time>2012-06-09T10:03:06Z</time>
      </trkpt>
      <trkpt lat="45.55924" lon="5.04268">
        <ele>375.93200683594</ele>
        <time>2012-06-09T10:03:23Z</time>
      </trkpt>
      <trkpt lat="45.55982" lon="5.04295">
        <ele>374.79901123047</ele>
        <time>2012-06-09T10:03:37Z</time>
      </trkpt>
      <trkpt lat="45.56062" lon="5.0433">
        <ele>374.57998657227</ele>
        <time>2012-06-09T10:03:56Z</time>
      </trkpt>
      <trkpt lat="45.56132" lon="5.04361">
        <ele>375.74600219727</ele>
        <time>2012-06-09T10:04:14Z</time>
      </trkpt>
      <trkpt lat="45.56156" lon="5.04338">
        <ele>376.65200805664</ele>
        <time>2012-06-09T10:04:26Z</time>
      </trkpt>
      <trkpt lat="45.56165" lon="5.04284">
        <ele>376.26000976562</ele>
        <time>2012-06-09T10:04:35Z</time>
      </trkpt>
      <trkpt lat="45.5616" lon="5.0417">
        <ele>373.39999389648</ele>
        <time>2012-06-09T10:04:49Z</time>
      </trkpt>
      <trkpt lat="45.56161" lon="5.04076">
        <ele>370.36401367188</ele>
        <time>2012-06-09T10:04:58Z</time>
      </trkpt>
      <trkpt lat="45.56193" lon="5.03936">
        <ele>366.51901245117</ele>
        <time>2012-06-09T10:05:11Z</time>
      </trkpt>
      <trkpt lat="45.5622" lon="5.03807">
        <ele>367.20700073242</ele>
        <time>2012-06-09T10:05:26Z</time>
      </trkpt>
      <trkpt lat="45.56242" lon="5.03675">
        <ele>369.04901123047</ele>
        <time>2012-06-09T10:05:43Z</time>
      </trkpt>
      <trkpt lat="45.5624" lon="5.03607">
        <ele>370.70700073242</ele>
        <time>2012-06-09T10:05:52Z</time>
      </trkpt>
      <trkpt lat="45.56218" lon="5.03489">
        <ele>368.95001220703</ele>
        <time>2012-06-09T10:06:05Z</time>
      </trkpt>
      <trkpt lat="45.56202" lon="5.03401">
        <ele>365.9280090332</ele>
        <time>2012-06-09T10:06:13Z</time>
      </trkpt>
      <trkpt lat="45.56211" lon="5.03297">
        <ele>363.58200073242</ele>
        <time>2012-06-09T10:06:24Z</time>
      </trkpt>
      <trkpt lat="45.56216" lon="5.03212">
        <ele>366.80801391602</ele>
        <time>2012-06-09T10:06:37Z</time>
      </trkpt>
      <trkpt lat="45.56233" lon="5.03145">
        <ele>367.64898681641</ele>
        <time>2012-06-09T10:06:48Z</time>
      </trkpt>
      <trkpt lat="45.56256" lon="5.03088">
        <ele>365.04598999023</ele>
        <time>2012-06-09T10:06:56Z</time>
      </trkpt>
      <trkpt lat="45.56262" lon="5.03061">
        <ele>362.06298828125</ele>
        <time>2012-06-09T10:07:09Z</time>
      </trkpt>
      <trkpt lat="45.5626" lon="5.0309">
        <ele>362.40200805664</ele>
        <time>2012-06-09T10:07:18Z</time>
      </trkpt>
      <trkpt lat="45.56251" lon="5.03098">
        <ele>362.64498901367</ele>
        <time>2012-06-09T10:07:26Z</time>
      </trkpt>
      <trkpt lat="45.56263" lon="5.03078">
        <ele>362.64199829102</ele>
        <time>2012-06-09T10:07:33Z</time>
      </trkpt>
      <trkpt lat="45.56271" lon="5.03037">
        <ele>362.57299804688</ele>
        <time>2012-06-09T10:07:40Z</time>
      </trkpt>
      <trkpt lat="45.5629" lon="5.02996">
        <ele>363.75900268555</ele>
        <time>2012-06-09T10:07:52Z</time>
      </trkpt>
      <trkpt lat="45.56305" lon="5.02974">
        <ele>365.28601074219</ele>
        <time>2012-06-09T10:08:04Z</time>
      </trkpt>
      <trkpt lat="45.56315" lon="5.02952">
        <ele>367.22601318359</ele>
        <time>2012-06-09T10:08:17Z</time>
      </trkpt>
      <trkpt lat="45.5632" lon="5.02954">
        <ele>367.71398925781</ele>
        <time>2012-06-09T10:08:24Z</time>
      </trkpt>
      <trkpt lat="45.56319" lon="5.0297">
        <ele>367.23001098633</ele>
        <time>2012-06-09T10:08:34Z</time>
      </trkpt>
      <trkpt lat="45.56331" lon="5.0297">
        <ele>367.36599731445</ele>
        <time>2012-06-09T10:08:43Z</time>
      </trkpt>
      <trkpt lat="45.56353" lon="5.02956">
        <ele>367.39300537109</ele>
        <time>2012-06-09T10:08:53Z</time>
      </trkpt>
      <trkpt lat="45.56387" lon="5.02956">
        <ele>365.55499267578</ele>
        <time>2012-06-09T10:09:02Z</time>
      </trkpt>
      <trkpt lat="45.56419" lon="5.02976">
        <ele>360.06399536133</ele>
        <time>2012-06-09T10:09:13Z</time>
      </trkpt>
      <trkpt lat="45.5644" lon="5.02974">
        <ele>354.63800048828</ele>
        <time>2012-06-09T10:09:21Z</time>
      </trkpt>
      <trkpt lat="45.56443" lon="5.02964">
        <ele>353.06201171875</ele>
        <time>2012-06-09T10:09:25Z</time>
      </trkpt>
      <trkpt lat="45.56446" lon="5.02953">
        <ele>352.73599243164</ele>
        <time>2012-06-09T10:09:31Z</time>
      </trkpt>
      <trkpt lat="45.5645" lon="5.02942">
        <ele>351.70300292969</ele>
        <time>2012-06-09T10:09:40Z</time>
      </trkpt>
      <trkpt lat="45.56459" lon="5.02949">
        <ele>350.38198852539</ele>
        <time>2012-06-09T10:09:46Z</time>
      </trkpt>
      <trkpt lat="45.56459" lon="5.02979">
        <ele>347.67401123047</ele>
        <time>2012-06-09T10:09:54Z</time>
      </trkpt>
      <trkpt lat="45.56474" lon="5.02988">
        <ele>346.20599365234</ele>
        <time>2012-06-09T10:10:01Z</time>
      </trkpt>
      <trkpt lat="45.56501" lon="5.02932">
        <ele>340.75</ele>
        <time>2012-06-09T10:10:11Z</time>
      </trkpt>
      <trkpt lat="45.56519" lon="5.02882">
        <ele>335.37600708008</ele>
        <time>2012-06-09T10:10:19Z</time>
      </trkpt>
      <trkpt lat="45.56535" lon="5.02832">
        <ele>329.17401123047</ele>
        <time>2012-06-09T10:10:27Z</time>
      </trkpt>
      <trkpt lat="45.56558" lon="5.02782">
        <ele>317.71798706055</ele>
        <time>2012-06-09T10:10:40Z</time>
      </trkpt>
      <trkpt lat="45.56595" lon="5.02797">
        <ele>312.99301147461</ele>
        <time>2012-06-09T10:10:49Z</time>
      </trkpt>
      <trkpt lat="45.5662" lon="5.02817">
        <ele>307.63800048828</ele>
        <time>2012-06-09T10:10:55Z</time>
      </trkpt>
      <trkpt lat="45.56627" lon="5.02857">
        <ele>302.00799560547</ele>
        <time>2012-06-09T10:11:01Z</time>
      </trkpt>
      <trkpt lat="45.56635" lon="5.02891">
        <ele>296.79098510742</ele>
        <time>2012-06-09T10:11:07Z</time>
      </trkpt>
      <trkpt lat="45.56639" lon="5.02897">
        <ele>294.01998901367</ele>
        <time>2012-06-09T10:11:31Z</time>
      </trkpt>
      <trkpt lat="45.56659" lon="5.02892">
        <ele>290.95300292969</ele>
        <time>2012-06-09T10:11:42Z</time>
      </trkpt>
      <trkpt lat="45.56674" lon="5.02887">
        <ele>287.71398925781</ele>
        <time>2012-06-09T10:11:49Z</time>
      </trkpt>
      <trkpt lat="45.56683" lon="5.02891">
        <ele>285.72198486328</ele>
        <time>2012-06-09T10:13:09Z</time>
      </trkpt>
      <trkpt lat="45.56711" lon="5.02946">
        <ele>283.37200927734</ele>
        <time>2012-06-09T10:13:20Z</time>
      </trkpt>
      <trkpt lat="45.5673" lon="5.02992">
        <ele>281.08401489258</ele>
        <time>2012-06-09T10:13:27Z</time>
      </trkpt>
      <trkpt lat="45.5676" lon="5.02975">
        <ele>279.63800048828</ele>
        <time>2012-06-09T10:13:33Z</time>
      </trkpt>
      <trkpt lat="45.56774" lon="5.02932">
        <ele>277.80200195312</ele>
        <time>2012-06-09T10:13:39Z</time>
      </trkpt>
      <trkpt lat="45.56792" lon="5.0285">
        <ele>275.21200561523</ele>
        <time>2012-06-09T10:13:50Z</time>
      </trkpt>
      <trkpt lat="45.56799" lon="5.0285">
        <ele>272.92001342773</ele>
        <time>2012-06-09T10:14:02Z</time>
      </trkpt>
      <trkpt lat="45.568" lon="5.0285">
        <ele>273.25799560547</ele>
        <time>2012-06-09T10:14:34Z</time>
      </trkpt>
      <trkpt lat="45.56804" lon="5.02863">
        <ele>273.48699951172</ele>
        <time>2012-06-09T10:14:47Z</time>
      </trkpt>
      <trkpt lat="45.56826" lon="5.02924">
        <ele>274.12298583984</ele>
        <time>2012-06-09T10:15:03Z</time>
      </trkpt>
      <trkpt lat="45.56845" lon="5.0301">
        <ele>275.11401367188</ele>
        <time>2012-06-09T10:15:21Z</time>
      </trkpt>
      <trkpt lat="45.56861" lon="5.03088">
        <ele>275.99398803711</ele>
        <time>2012-06-09T10:15:36Z</time>
      </trkpt>
      <trkpt lat="45.56884" lon="5.03194">
        <ele>277.48098754883</ele>
        <time>2012-06-09T10:15:55Z</time>
      </trkpt>
      <trkpt lat="45.569" lon="5.03265">
        <ele>279.06900024414</ele>
        <time>2012-06-09T10:16:10Z</time>
      </trkpt>
      <trkpt lat="45.56917" lon="5.03261">
        <ele>279.77301025391</ele>
        <time>2012-06-09T10:16:17Z</time>
      </trkpt>
      <trkpt lat="45.56992" lon="5.03209">
        <ele>278.71099853516</ele>
        <time>2012-06-09T10:16:36Z</time>
      </trkpt>
      <trkpt lat="45.57068" lon="5.03155">
        <ele>277.28298950195</ele>
        <time>2012-06-09T10:16:55Z</time>
      </trkpt>
      <trkpt lat="45.57083" lon="5.03122">
        <ele>276.47100830078</ele>
        <time>2012-06-09T10:17:04Z</time>
      </trkpt>
      <trkpt lat="45.57082" lon="5.03094">
        <ele>275.63000488281</ele>
        <time>2012-06-09T10:17:14Z</time>
      </trkpt>
      <trkpt lat="45.5709" lon="5.03096">
        <ele>275.06500244141</ele>
        <time>2012-06-09T10:17:21Z</time>
      </trkpt>
      <trkpt lat="45.57114" lon="5.03117">
        <ele>273.45901489258</ele>
        <time>2012-06-09T10:17:30Z</time>
      </trkpt>
      <trkpt lat="45.57124" lon="5.03153">
        <ele>274.125</ele>
        <time>2012-06-09T10:17:39Z</time>
      </trkpt>
      <trkpt lat="45.5713" lon="5.03154">
        <ele>275.35699462891</ele>
        <time>2012-06-09T10:17:44Z</time>
      </trkpt>
      <trkpt lat="45.57137" lon="5.03081">
        <ele>276.55599975586</ele>
        <time>2012-06-09T10:17:57Z</time>
      </trkpt>
      <trkpt lat="45.57141" lon="5.02981">
        <ele>274.7200012207</ele>
        <time>2012-06-09T10:18:15Z</time>
      </trkpt>
      <trkpt lat="45.57145" lon="5.02887">
        <ele>274.26501464844</ele>
        <time>2012-06-09T10:18:29Z</time>
      </trkpt>
      <trkpt lat="45.5715" lon="5.02779">
        <ele>273.26599121094</ele>
        <time>2012-06-09T10:18:47Z</time>
      </trkpt>
      <trkpt lat="45.57179" lon="5.02662">
        <ele>272.70401000977</ele>
        <time>2012-06-09T10:19:07Z</time>
      </trkpt>
      <trkpt lat="45.57195" lon="5.02597">
        <ele>272.10501098633</ele>
        <time>2012-06-09T10:19:17Z</time>
      </trkpt>
      <trkpt lat="45.57222" lon="5.02478">
        <ele>270.63299560547</ele>
        <time>2012-06-09T10:19:35Z</time>
      </trkpt>
      <trkpt lat="45.57232" lon="5.02428">
        <ele>269.41400146484</ele>
        <time>2012-06-09T10:19:44Z</time>
      </trkpt>
      <trkpt lat="45.5724" lon="5.02434">
        <ele>268.98098754883</ele>
        <time>2012-06-09T10:19:49Z</time>
      </trkpt>
      <trkpt lat="45.57268" lon="5.0251">
        <ele>269.39999389648</ele>
        <time>2012-06-09T10:20:03Z</time>
      </trkpt>
      <trkpt lat="45.57289" lon="5.02537">
        <ele>269.69299316406</ele>
        <time>2012-06-09T10:20:10Z</time>
      </trkpt>
      <trkpt lat="45.57309" lon="5.02528">
        <ele>269.92999267578</ele>
        <time>2012-06-09T10:20:17Z</time>
      </trkpt>
      <trkpt lat="45.57309" lon="5.02528">
        <ele>269.35501098633</ele>
        <time>2012-06-09T10:20:57Z</time>
      </trkpt>
      <trkpt lat="45.57317" lon="5.02527">
        <ele>269.47500610352</ele>
        <time>2012-06-09T10:21:29Z</time>
      </trkpt>
      <trkpt lat="45.57344" lon="5.02515">
        <ele>269.90798950195</ele>
        <time>2012-06-09T10:21:37Z</time>
      </trkpt>
      <trkpt lat="45.57414" lon="5.02486">
        <ele>269.74099731445</ele>
        <time>2012-06-09T10:21:53Z</time>
      </trkpt>
      <trkpt lat="45.57495" lon="5.0245">
        <ele>269.45401000977</ele>
        <time>2012-06-09T10:22:09Z</time>
      </trkpt>
      <trkpt lat="45.57597" lon="5.02405">
        <ele>268.8630065918</ele>
        <time>2012-06-09T10:22:29Z</time>
      </trkpt>
      <trkpt lat="45.57672" lon="5.02372">
        <ele>268.00100708008</ele>
        <time>2012-06-09T10:22:44Z</time>
      </trkpt>
      <trkpt lat="45.57725" lon="5.02359">
        <ele>267.01000976562</ele>
        <time>2012-06-09T10:22:54Z</time>
      </trkpt>
      <trkpt lat="45.57751" lon="5.0233">
        <ele>266.41299438477</ele>
        <time>2012-06-09T10:23:00Z</time>
      </trkpt>
      <trkpt lat="45.57789" lon="5.02289">
        <ele>266.73699951172</ele>
        <time>2012-06-09T10:23:09Z</time>
      </trkpt>
      <trkpt lat="45.57859" lon="5.02256">
        <ele>267.45401000977</ele>
        <time>2012-06-09T10:23:26Z</time>
      </trkpt>
      <trkpt lat="45.57911" lon="5.02234">
        <ele>268.28298950195</ele>
        <time>2012-06-09T10:23:41Z</time>
      </trkpt>
      <trkpt lat="45.57957" lon="5.02213">
        <ele>269.26800537109</ele>
        <time>2012-06-09T10:23:52Z</time>
      </trkpt>
      <trkpt lat="45.57978" lon="5.02223">
        <ele>269.33499145508</ele>
        <time>2012-06-09T10:23:58Z</time>
      </trkpt>
      <trkpt lat="45.58018" lon="5.02297">
        <ele>270.53100585938</ele>
        <time>2012-06-09T10:24:13Z</time>
      </trkpt>
      <trkpt lat="45.58063" lon="5.02395">
        <ele>272.09399414062</ele>
        <time>2012-06-09T10:24:31Z</time>
      </trkpt>
      <trkpt lat="45.58087" lon="5.02478">
        <ele>272.4460144043</ele>
        <time>2012-06-09T10:24:45Z</time>
      </trkpt>
      <trkpt lat="45.58102" lon="5.02536">
        <ele>273.4280090332</ele>
        <time>2012-06-09T10:24:55Z</time>
      </trkpt>
      <trkpt lat="45.58126" lon="5.02628">
        <ele>275.20098876953</ele>
        <time>2012-06-09T10:25:11Z</time>
      </trkpt>
      <trkpt lat="45.58152" lon="5.02741">
        <ele>275.4880065918</ele>
        <time>2012-06-09T10:25:28Z</time>
      </trkpt>
      <trkpt lat="45.58171" lon="5.02791">
        <ele>275.97198486328</ele>
        <time>2012-06-09T10:25:41Z</time>
      </trkpt>
      <trkpt lat="45.58207" lon="5.02804">
        <ele>279.56201171875</ele>
        <time>2012-06-09T10:25:53Z</time>
      </trkpt>
      <trkpt lat="45.58253" lon="5.02819">
        <ele>284.11199951172</ele>
        <time>2012-06-09T10:26:11Z</time>
      </trkpt>
      <trkpt lat="45.58279" lon="5.02808">
        <ele>286.67001342773</ele>
        <time>2012-06-09T10:26:25Z</time>
      </trkpt>
      <trkpt lat="45.58322" lon="5.02768">
        <ele>293.38198852539</ele>
        <time>2012-06-09T10:26:51Z</time>
      </trkpt>
      <trkpt lat="45.58382" lon="5.02741">
        <ele>300.0719909668</ele>
        <time>2012-06-09T10:27:21Z</time>
      </trkpt>
      <trkpt lat="45.58398" lon="5.02689">
        <ele>300.63299560547</ele>
        <time>2012-06-09T10:27:45Z</time>
      </trkpt>
      <trkpt lat="45.58409" lon="5.02553">
        <ele>304.64300537109</ele>
        <time>2012-06-09T10:28:26Z</time>
      </trkpt>
      <trkpt lat="45.58413" lon="5.02422">
        <ele>306.57400512695</ele>
        <time>2012-06-09T10:29:00Z</time>
      </trkpt>
      <trkpt lat="45.58351" lon="5.02303">
        <ele>308.75100708008</ele>
        <time>2012-06-09T10:29:34Z</time>
      </trkpt>
      <trkpt lat="45.58269" lon="5.02209">
        <ele>309.74200439453</ele>
        <time>2012-06-09T10:30:06Z</time>
      </trkpt>
      <trkpt lat="45.5819" lon="5.02125">
        <ele>315.7619934082</ele>
        <time>2012-06-09T10:30:42Z</time>
      </trkpt>
      <trkpt lat="45.58096" lon="5.02003">
        <ele>317.48300170898</ele>
        <time>2012-06-09T10:31:22Z</time>
      </trkpt>
      <trkpt lat="45.58023" lon="5.019">
        <ele>314.61999511719</ele>
        <time>2012-06-09T10:31:44Z</time>
      </trkpt>
      <trkpt lat="45.57915" lon="5.01743">
        <ele>312.38000488281</ele>
        <time>2012-06-09T10:32:13Z</time>
      </trkpt>
      <trkpt lat="45.57986" lon="5.01652">
        <ele>309.70599365234</ele>
        <time>2012-06-09T10:32:34Z</time>
      </trkpt>
      <trkpt lat="45.58076" lon="5.01565">
        <ele>296.39898681641</ele>
        <time>2012-06-09T10:32:48Z</time>
      </trkpt>
      <trkpt lat="45.58151" lon="5.01533">
        <ele>283.52301025391</ele>
        <time>2012-06-09T10:33:01Z</time>
      </trkpt>
      <trkpt lat="45.58139" lon="5.0139">
        <ele>272.46301269531</ele>
        <time>2012-06-09T10:33:22Z</time>
      </trkpt>
      <trkpt lat="45.58096" lon="5.01279">
        <ele>277.25799560547</ele>
        <time>2012-06-09T10:33:49Z</time>
      </trkpt>
      <trkpt lat="45.58073" lon="5.01227">
        <ele>279.45300292969</ele>
        <time>2012-06-09T10:35:52Z</time>
      </trkpt>
      <trkpt lat="45.58014" lon="5.01084">
        <ele>279.36401367188</ele>
        <time>2012-06-09T10:36:22Z</time>
      </trkpt>
      <trkpt lat="45.57927" lon="5.00862">
        <ele>275.71798706055</ele>
        <time>2012-06-09T10:36:54Z</time>
      </trkpt>
      <trkpt lat="45.57937" lon="5.00768">
        <ele>272.11099243164</ele>
        <time>2012-06-09T10:37:08Z</time>
      </trkpt>
      <trkpt lat="45.5809" lon="5.00661">
        <ele>256.52398681641</ele>
        <time>2012-06-09T10:37:28Z</time>
      </trkpt>
      <trkpt lat="45.58234" lon="5.00556">
        <ele>254.00700378418</ele>
        <time>2012-06-09T10:37:58Z</time>
      </trkpt>
      <trkpt lat="45.58292" lon="5.00518">
        <ele>253.66999816894</ele>
        <time>2012-06-09T10:38:21Z</time>
      </trkpt>
      <trkpt lat="45.58397" lon="5.00445">
        <ele>254.00799560547</ele>
        <time>2012-06-09T10:38:52Z</time>
      </trkpt>
      <trkpt lat="45.58491" lon="5.00415">
        <ele>254.64599609375</ele>
        <time>2012-06-09T10:39:20Z</time>
      </trkpt>
      <trkpt lat="45.58482" lon="5.0032">
        <ele>255.71600341797</ele>
        <time>2012-06-09T10:39:40Z</time>
      </trkpt>
      <trkpt lat="45.58506" lon="5.00215">
        <ele>255.63800048828</ele>
        <time>2012-06-09T10:40:06Z</time>
      </trkpt>
      <trkpt lat="45.58599" lon="5.00181">
        <ele>260.63101196289</ele>
        <time>2012-06-09T10:40:40Z</time>
      </trkpt>
      <trkpt lat="45.5865" lon="5.00141">
        <ele>263.73199462891</ele>
        <time>2012-06-09T10:41:01Z</time>
      </trkpt>
      <trkpt lat="45.58717" lon="5.0006">
        <ele>258.51098632812</ele>
        <time>2012-06-09T10:41:19Z</time>
      </trkpt>
      <trkpt lat="45.58686" lon="4.99956">
        <ele>259.99200439453</ele>
        <time>2012-06-09T10:41:46Z</time>
      </trkpt>
      <trkpt lat="45.5861" lon="4.99815">
        <ele>247.97999572754</ele>
        <time>2012-06-09T10:42:44Z</time>
      </trkpt>
      <trkpt lat="45.58649" lon="4.99855">
        <ele>249.03100585938</ele>
        <time>2012-06-09T10:43:03Z</time>
      </trkpt>
      <trkpt lat="45.58706" lon="5.00005">
        <ele>245.19400024414</ele>
        <time>2012-06-09T10:43:26Z</time>
      </trkpt>
      <trkpt lat="45.58718" lon="5.00049">
        <ele>244.72900390625</ele>
        <time>2012-06-09T10:43:49Z</time>
      </trkpt>
      <trkpt lat="45.58711" lon="5.00085">
        <ele>243.78100585938</ele>
        <time>2012-06-09T10:44:36Z</time>
      </trkpt>
      <trkpt lat="45.58661" lon="5.00133">
        <ele>246.02499389648</ele>
        <time>2012-06-09T10:44:54Z</time>
      </trkpt>
      <trkpt lat="45.58614" lon="5.00169">
        <ele>248.65800476074</ele>
        <time>2012-06-09T10:45:18Z</time>
      </trkpt>
      <trkpt lat="45.58592" lon="5.00185">
        <ele>245.99899291992</ele>
        <time>2012-06-09T10:45:39Z</time>
      </trkpt>
      <trkpt lat="45.58531" lon="5.00208">
        <ele>244.44500732422</ele>
        <time>2012-06-09T10:46:56Z</time>
      </trkpt>
      <trkpt lat="45.5847" lon="5.00228">
        <ele>240.41000366211</ele>
        <time>2012-06-09T10:47:20Z</time>
      </trkpt>
      <trkpt lat="45.58466" lon="5.00261">
        <ele>240.28399658203</ele>
        <time>2012-06-09T10:47:33Z</time>
      </trkpt>
      <trkpt lat="45.58486" lon="5.00408">
        <ele>240.23599243164</ele>
        <time>2012-06-09T10:48:09Z</time>
      </trkpt>
      <trkpt lat="45.58512" lon="5.00562">
        <ele>241.22500610352</ele>
        <time>2012-06-09T10:48:45Z</time>
      </trkpt>
      <trkpt lat="45.58532" lon="5.00697">
        <ele>242.12600708008</ele>
        <time>2012-06-09T10:49:10Z</time>
      </trkpt>
      <trkpt lat="45.58577" lon="5.00886">
        <ele>243.67500305176</ele>
        <time>2012-06-09T10:49:45Z</time>
      </trkpt>
      <trkpt lat="45.58643" lon="5.01052">
        <ele>245.75399780273</ele>
        <time>2012-06-09T10:50:22Z</time>
      </trkpt>
      <trkpt lat="45.58675" lon="5.01282">
        <ele>248.27000427246</ele>
        <time>2012-06-09T10:51:01Z</time>
      </trkpt>
      <trkpt lat="45.58703" lon="5.01544">
        <ele>249.79699707031</ele>
        <time>2012-06-09T10:51:42Z</time>
      </trkpt>
      <trkpt lat="45.58725" lon="5.01656">
        <ele>250.99499511719</ele>
        <time>2012-06-09T10:52:05Z</time>
      </trkpt>
      <trkpt lat="45.58834" lon="5.01625">
        <ele>254.49699401856</ele>
        <time>2012-06-09T10:52:41Z</time>
      </trkpt>
      <trkpt lat="45.58921" lon="5.01602">
        <ele>258.51300048828</ele>
        <time>2012-06-09T10:53:13Z</time>
      </trkpt>
      <trkpt lat="45.58988" lon="5.01585">
        <ele>264.64801025391</ele>
        <time>2012-06-09T10:53:45Z</time>
      </trkpt>
      <trkpt lat="45.59029" lon="5.01622">
        <ele>270.23699951172</ele>
        <time>2012-06-09T10:54:14Z</time>
      </trkpt>
      <trkpt lat="45.5908" lon="5.01659">
        <ele>274.87399291992</ele>
        <time>2012-06-09T10:54:43Z</time>
      </trkpt>
      <trkpt lat="45.59079" lon="5.01654">
        <ele>275.86499023438</ele>
        <time>2012-06-09T10:55:08Z</time>
      </trkpt>
      <trkpt lat="45.59036" lon="5.0173">
        <ele>268.60101318359</ele>
        <time>2012-06-09T10:55:39Z</time>
      </trkpt>
      <trkpt lat="45.59043" lon="5.01853">
        <ele>264.30700683594</ele>
        <time>2012-06-09T10:56:01Z</time>
      </trkpt>
      <trkpt lat="45.59072" lon="5.0194">
        <ele>260.8869934082</ele>
        <time>2012-06-09T10:56:21Z</time>
      </trkpt>
      <trkpt lat="45.59094" lon="5.02061">
        <ele>264.28500366211</ele>
        <time>2012-06-09T10:56:54Z</time>
      </trkpt>
      <trkpt lat="45.59124" lon="5.02099">
        <ele>265.87899780273</ele>
        <time>2012-06-09T10:57:18Z</time>
      </trkpt>
      <trkpt lat="45.59158" lon="5.02106">
        <ele>267.53500366211</ele>
        <time>2012-06-09T10:57:39Z</time>
      </trkpt>
      <trkpt lat="45.59183" lon="5.02074">
        <ele>271.55099487305</ele>
        <time>2012-06-09T10:58:06Z</time>
      </trkpt>
      <trkpt lat="45.59211" lon="5.02012">
        <ele>278.38299560547</ele>
        <time>2012-06-09T10:58:37Z</time>
      </trkpt>
      <trkpt lat="45.59248" lon="5.01991">
        <ele>282.36700439453</ele>
        <time>2012-06-09T10:59:14Z</time>
      </trkpt>
      <trkpt lat="45.59283" lon="5.0199">
        <ele>287.71899414062</ele>
        <time>2012-06-09T10:59:45Z</time>
      </trkpt>
      <trkpt lat="45.59319" lon="5.01994">
        <ele>296.18099975586</ele>
        <time>2012-06-09T11:00:16Z</time>
      </trkpt>
      <trkpt lat="45.59346" lon="5.02004">
        <ele>303.69400024414</ele>
        <time>2012-06-09T11:00:44Z</time>
      </trkpt>
      <trkpt lat="45.59375" lon="5.02">
        <ele>307.38598632812</ele>
        <time>2012-06-09T11:01:16Z</time>
      </trkpt>
      <trkpt lat="45.59396" lon="5.02002">
        <ele>309.40200805664</ele>
        <time>2012-06-09T11:01:31Z</time>
      </trkpt>
      <trkpt lat="45.59444" lon="5.02">
        <ele>312.23001098633</ele>
        <time>2012-06-09T11:02:00Z</time>
      </trkpt>
      <trkpt lat="45.59503" lon="5.02004">
        <ele>313.98300170898</ele>
        <time>2012-06-09T11:02:26Z</time>
      </trkpt>
      <trkpt lat="45.59546" lon="5.02047">
        <ele>315.03100585938</ele>
        <time>2012-06-09T11:02:45Z</time>
      </trkpt>
      <trkpt lat="45.59585" lon="5.02127">
        <ele>315.50601196289</ele>
        <time>2012-06-09T11:03:08Z</time>
      </trkpt>
      <trkpt lat="45.59622" lon="5.02235">
        <ele>321.57000732422</ele>
        <time>2012-06-09T11:03:44Z</time>
      </trkpt>
      <trkpt lat="45.59648" lon="5.02338">
        <ele>327.97100830078</ele>
        <time>2012-06-09T11:04:24Z</time>
      </trkpt>
      <trkpt lat="45.59638" lon="5.0242">
        <ele>331.11599731445</ele>
        <time>2012-06-09T11:04:59Z</time>
      </trkpt>
      <trkpt lat="45.5957" lon="5.02508">
        <ele>331.82800292969</ele>
        <time>2012-06-09T11:05:31Z</time>
      </trkpt>
      <trkpt lat="45.59565" lon="5.02526">
        <ele>332.07400512695</ele>
        <time>2012-06-09T11:06:07Z</time>
      </trkpt>
      <trkpt lat="45.59571" lon="5.02536">
        <ele>332.39599609375</ele>
        <time>2012-06-09T11:08:31Z</time>
      </trkpt>
      <trkpt lat="45.5959" lon="5.02652">
        <ele>337.20098876953</ele>
        <time>2012-06-09T11:09:18Z</time>
      </trkpt>
      <trkpt lat="45.59585" lon="5.02741">
        <ele>344.69299316406</ele>
        <time>2012-06-09T11:09:52Z</time>
      </trkpt>
      <trkpt lat="45.59602" lon="5.02834">
        <ele>350.91198730469</ele>
        <time>2012-06-09T11:10:27Z</time>
      </trkpt>
      <trkpt lat="45.59638" lon="5.02882">
        <ele>354.83700561523</ele>
        <time>2012-06-09T11:10:50Z</time>
      </trkpt>
      <trkpt lat="45.59735" lon="5.02958">
        <ele>353.12899780273</ele>
        <time>2012-06-09T11:11:15Z</time>
      </trkpt>
      <trkpt lat="45.59882" lon="5.03022">
        <ele>355.30499267578</ele>
        <time>2012-06-09T11:11:50Z</time>
      </trkpt>
      <trkpt lat="45.59977" lon="5.0307">
        <ele>359.15600585938</ele>
        <time>2012-06-09T11:12:18Z</time>
      </trkpt>
      <trkpt lat="45.60021" lon="5.03139">
        <ele>366.20700073242</ele>
        <time>2012-06-09T11:12:47Z</time>
      </trkpt>
      <trkpt lat="45.60051" lon="5.0311">
        <ele>369.48699951172</ele>
        <time>2012-06-09T11:13:09Z</time>
      </trkpt>
      <trkpt lat="45.60106" lon="5.03036">
        <ele>370.21099853516</ele>
        <time>2012-06-09T11:13:42Z</time>
      </trkpt>
      <trkpt lat="45.60203" lon="5.02902">
        <ele>368.91000366211</ele>
        <time>2012-06-09T11:14:24Z</time>
      </trkpt>
      <trkpt lat="45.60283" lon="5.02818">
        <ele>367.74600219727</ele>
        <time>2012-06-09T11:14:54Z</time>
      </trkpt>
      <trkpt lat="45.60393" lon="5.02797">
        <ele>362.48498535156</ele>
        <time>2012-06-09T11:15:20Z</time>
      </trkpt>
      <trkpt lat="45.60519" lon="5.0279">
        <ele>353.08700561523</ele>
        <time>2012-06-09T11:15:40Z</time>
      </trkpt>
      <trkpt lat="45.60532" lon="5.02751">
        <ele>349.95599365234</ele>
        <time>2012-06-09T11:15:53Z</time>
      </trkpt>
      <trkpt lat="45.60572" lon="5.02764">
        <ele>344.95300292969</ele>
        <time>2012-06-09T11:16:10Z</time>
      </trkpt>
      <trkpt lat="45.60601" lon="5.02777">
        <ele>342.8039855957</ele>
        <time>2012-06-09T11:16:43Z</time>
      </trkpt>
      <trkpt lat="45.60636" lon="5.02716">
        <ele>334.26800537109</ele>
        <time>2012-06-09T11:17:05Z</time>
      </trkpt>
      <trkpt lat="45.60667" lon="5.02669">
        <ele>327.65399169922</ele>
        <time>2012-06-09T11:18:00Z</time>
      </trkpt>
      <trkpt lat="45.60739" lon="5.0267">
        <ele>315.92199707031</ele>
        <time>2012-06-09T11:18:16Z</time>
      </trkpt>
      <trkpt lat="45.60786" lon="5.0268">
        <ele>307.28900146484</ele>
        <time>2012-06-09T11:18:30Z</time>
      </trkpt>
      <trkpt lat="45.60818" lon="5.02658">
        <ele>302.99301147461</ele>
        <time>2012-06-09T11:18:43Z</time>
      </trkpt>
      <trkpt lat="45.60853" lon="5.02518">
        <ele>302.35598754883</ele>
        <time>2012-06-09T11:19:11Z</time>
      </trkpt>
      <trkpt lat="45.60867" lon="5.02452">
        <ele>306.85699462891</ele>
        <time>2012-06-09T11:19:36Z</time>
      </trkpt>
      <trkpt lat="45.60917" lon="5.02409">
        <ele>312.07598876953</ele>
        <time>2012-06-09T11:20:05Z</time>
      </trkpt>
      <trkpt lat="45.60996" lon="5.02353">
        <ele>315.33898925781</ele>
        <time>2012-06-09T11:20:38Z</time>
      </trkpt>
      <trkpt lat="45.61074" lon="5.02305">
        <ele>319.93301391602</ele>
        <time>2012-06-09T11:21:16Z</time>
      </trkpt>
      <trkpt lat="45.61124" lon="5.02356">
        <ele>327.3450012207</ele>
        <time>2012-06-09T11:21:46Z</time>
      </trkpt>
      <trkpt lat="45.612" lon="5.02458">
        <ele>334.12899780273</ele>
        <time>2012-06-09T11:22:16Z</time>
      </trkpt>
      <trkpt lat="45.61236" lon="5.025">
        <ele>334.68301391602</ele>
        <time>2012-06-09T11:22:43Z</time>
      </trkpt>
      <trkpt lat="45.61232" lon="5.0251">
        <ele>334.47698974609</ele>
        <time>2012-06-09T11:23:16Z</time>
      </trkpt>
      <trkpt lat="45.61217" lon="5.02597">
        <ele>334.83499145508</ele>
        <time>2012-06-09T11:23:37Z</time>
      </trkpt>
      <trkpt lat="45.61255" lon="5.02712">
        <ele>332.19299316406</ele>
        <time>2012-06-09T11:23:54Z</time>
      </trkpt>
      <trkpt lat="45.61271" lon="5.02889">
        <ele>326.47100830078</ele>
        <time>2012-06-09T11:24:10Z</time>
      </trkpt>
      <trkpt lat="45.61357" lon="5.02912">
        <ele>328.48001098633</ele>
        <time>2012-06-09T11:24:29Z</time>
      </trkpt>
      <trkpt lat="45.61426" lon="5.03026">
        <ele>330.44299316406</ele>
        <time>2012-06-09T11:24:56Z</time>
      </trkpt>
      <trkpt lat="45.6152" lon="5.02998">
        <ele>328.50201416016</ele>
        <time>2012-06-09T11:25:17Z</time>
      </trkpt>
      <trkpt lat="45.61563" lon="5.02925">
        <ele>328.95098876953</ele>
        <time>2012-06-09T11:25:33Z</time>
      </trkpt>
      <trkpt lat="45.61618" lon="5.02915">
        <ele>327.55700683594</ele>
        <time>2012-06-09T11:25:49Z</time>
      </trkpt>
      <trkpt lat="45.61694" lon="5.02792">
        <ele>326.93301391602</ele>
        <time>2012-06-09T11:26:17Z</time>
      </trkpt>
      <trkpt lat="45.61713" lon="5.0268">
        <ele>324.32800292969</ele>
        <time>2012-06-09T11:26:39Z</time>
      </trkpt>
      <trkpt lat="45.61685" lon="5.02626">
        <ele>319.98498535156</ele>
        <time>2012-06-09T11:26:49Z</time>
      </trkpt>
      <trkpt lat="45.6173" lon="5.02474">
        <ele>316.33499145508</ele>
        <time>2012-06-09T11:27:11Z</time>
      </trkpt>
      <trkpt lat="45.61753" lon="5.02381">
        <ele>310.66598510742</ele>
        <time>2012-06-09T11:27:27Z</time>
      </trkpt>
      <trkpt lat="45.61763" lon="5.02388">
        <ele>312.45001220703</ele>
        <time>2012-06-09T11:27:58Z</time>
      </trkpt>
      <trkpt lat="45.61739" lon="5.02344">
        <ele>308.79098510742</ele>
        <time>2012-06-09T11:28:14Z</time>
      </trkpt>
      <trkpt lat="45.61781" lon="5.02295">
        <ele>310.76901245117</ele>
        <time>2012-06-09T11:28:38Z</time>
      </trkpt>
      <trkpt lat="45.61833" lon="5.02249">
        <ele>312.62200927734</ele>
        <time>2012-06-09T11:29:04Z</time>
      </trkpt>
      <trkpt lat="45.61858" lon="5.02208">
        <ele>312.02801513672</ele>
        <time>2012-06-09T11:29:22Z</time>
      </trkpt>
      <trkpt lat="45.61885" lon="5.02162">
        <ele>310.5530090332</ele>
        <time>2012-06-09T11:29:36Z</time>
      </trkpt>
      <trkpt lat="45.61909" lon="5.02122">
        <ele>310.29098510742</ele>
        <time>2012-06-09T11:29:49Z</time>
      </trkpt>
      <trkpt lat="45.61922" lon="5.0208">
        <ele>308.02600097656</ele>
        <time>2012-06-09T11:30:01Z</time>
      </trkpt>
      <trkpt lat="45.61954" lon="5.01977">
        <ele>301.99499511719</ele>
        <time>2012-06-09T11:30:16Z</time>
      </trkpt>
      <trkpt lat="45.62008" lon="5.01938">
        <ele>302.86801147461</ele>
        <time>2012-06-09T11:30:36Z</time>
      </trkpt>
      <trkpt lat="45.62034" lon="5.01903">
        <ele>304.93399047852</ele>
        <time>2012-06-09T11:31:00Z</time>
      </trkpt>
      <trkpt lat="45.62038" lon="5.01858">
        <ele>306.85598754883</ele>
        <time>2012-06-09T11:31:17Z</time>
      </trkpt>
      <trkpt lat="45.62023" lon="5.01781">
        <ele>304.17999267578</ele>
        <time>2012-06-09T11:31:40Z</time>
      </trkpt>
      <trkpt lat="45.62014" lon="5.01693">
        <ele>296.1130065918</ele>
        <time>2012-06-09T11:31:57Z</time>
      </trkpt>
      <trkpt lat="45.62039" lon="5.01672">
        <ele>296.95098876953</ele>
        <time>2012-06-09T11:32:15Z</time>
      </trkpt>
      <trkpt lat="45.6206" lon="5.01631">
        <ele>297.10598754883</ele>
        <time>2012-06-09T11:32:31Z</time>
      </trkpt>
      <trkpt lat="45.62093" lon="5.01601">
        <ele>296.75900268555</ele>
        <time>2012-06-09T11:34:56Z</time>
      </trkpt>
      <trkpt lat="45.62146" lon="5.01531">
        <ele>294.72799682617</ele>
        <time>2012-06-09T11:35:15Z</time>
      </trkpt>
      <trkpt lat="45.622" lon="5.01463">
        <ele>293.08599853516</ele>
        <time>2012-06-09T11:35:31Z</time>
      </trkpt>
      <trkpt lat="45.62255" lon="5.01391">
        <ele>292.53399658203</ele>
        <time>2012-06-09T11:35:48Z</time>
      </trkpt>
      <trkpt lat="45.6233" lon="5.01318">
        <ele>292.91598510742</ele>
        <time>2012-06-09T11:36:16Z</time>
      </trkpt>
      <trkpt lat="45.62388" lon="5.01293">
        <ele>290.10000610352</ele>
        <time>2012-06-09T11:36:37Z</time>
      </trkpt>
      <trkpt lat="45.62404" lon="5.01277">
        <ele>286.95901489258</ele>
        <time>2012-06-09T11:36:55Z</time>
      </trkpt>
      <trkpt lat="45.6244" lon="5.01239">
        <ele>283.64999389648</ele>
        <time>2012-06-09T11:37:12Z</time>
      </trkpt>
      <trkpt lat="45.62497" lon="5.01184">
        <ele>275.5119934082</ele>
        <time>2012-06-09T11:37:34Z</time>
      </trkpt>
      <trkpt lat="45.62501" lon="5.01083">
        <ele>270.91799926758</ele>
        <time>2012-06-09T11:37:53Z</time>
      </trkpt>
      <trkpt lat="45.62534" lon="5.01073">
        <ele>267.93301391602</ele>
        <time>2012-06-09T11:38:12Z</time>
      </trkpt>
      <trkpt lat="45.62566" lon="5.01096">
        <ele>268.42098999023</ele>
        <time>2012-06-09T11:39:04Z</time>
      </trkpt>
      <trkpt lat="45.62584" lon="5.01156">
        <ele>269.50500488281</ele>
        <time>2012-06-09T11:39:27Z</time>
      </trkpt>
      <trkpt lat="45.62609" lon="5.0121">
        <ele>269.97299194336</ele>
        <time>2012-06-09T11:39:50Z</time>
      </trkpt>
      <trkpt lat="45.62648" lon="5.01266">
        <ele>271.06600952148</ele>
        <time>2012-06-09T11:40:13Z</time>
      </trkpt>
      <trkpt lat="45.62687" lon="5.01311">
        <ele>270.97198486328</ele>
        <time>2012-06-09T11:40:32Z</time>
      </trkpt>
      <trkpt lat="45.62743" lon="5.01368">
        <ele>271.95401000977</ele>
        <time>2012-06-09T11:40:55Z</time>
      </trkpt>
      <trkpt lat="45.62761" lon="5.01438">
        <ele>272.39599609375</ele>
        <time>2012-06-09T11:41:11Z</time>
      </trkpt>
      <trkpt lat="45.62773" lon="5.01499">
        <ele>272.58700561523</ele>
        <time>2012-06-09T11:41:28Z</time>
      </trkpt>
      <trkpt lat="45.62784" lon="5.01555">
        <ele>273.61999511719</ele>
        <time>2012-06-09T11:41:43Z</time>
      </trkpt>
      <trkpt lat="45.62791" lon="5.01628">
        <ele>277.2799987793</ele>
        <time>2012-06-09T11:42:04Z</time>
      </trkpt>
      <trkpt lat="45.62777" lon="5.01719">
        <ele>277.75399780273</ele>
        <time>2012-06-09T11:42:27Z</time>
      </trkpt>
      <trkpt lat="45.62771" lon="5.01779">
        <ele>279.11999511719</ele>
        <time>2012-06-09T11:43:24Z</time>
      </trkpt>
      <trkpt lat="45.6274" lon="5.01888">
        <ele>277.79699707031</ele>
        <time>2012-06-09T11:43:53Z</time>
      </trkpt>
      <trkpt lat="45.62745" lon="5.01945">
        <ele>277.72399902344</ele>
        <time>2012-06-09T11:44:13Z</time>
      </trkpt>
      <trkpt lat="45.62778" lon="5.01956">
        <ele>282.06298828125</ele>
        <time>2012-06-09T11:44:38Z</time>
      </trkpt>
      <trkpt lat="45.62809" lon="5.01975">
        <ele>285.29501342773</ele>
        <time>2012-06-09T11:44:55Z</time>
      </trkpt>
      <trkpt lat="45.62844" lon="5.01998">
        <ele>288.60000610352</ele>
        <time>2012-06-09T11:45:16Z</time>
      </trkpt>
      <trkpt lat="45.62876" lon="5.02009">
        <ele>293.32800292969</ele>
        <time>2012-06-09T11:45:40Z</time>
      </trkpt>
      <trkpt lat="45.62906" lon="5.02024">
        <ele>296.54501342773</ele>
        <time>2012-06-09T11:45:57Z</time>
      </trkpt>
      <trkpt lat="45.62952" lon="5.02042">
        <ele>298.54800415039</ele>
        <time>2012-06-09T11:46:20Z</time>
      </trkpt>
      <trkpt lat="45.62991" lon="5.02045">
        <ele>300.67999267578</ele>
        <time>2012-06-09T11:46:39Z</time>
      </trkpt>
      <trkpt lat="45.63019" lon="5.0205">
        <ele>303.46798706055</ele>
        <time>2012-06-09T11:46:57Z</time>
      </trkpt>
      <trkpt lat="45.63033" lon="5.02081">
        <ele>306.82598876953</ele>
        <time>2012-06-09T11:47:21Z</time>
      </trkpt>
      <trkpt lat="45.63022" lon="5.02145">
        <ele>313.66299438477</ele>
        <time>2012-06-09T11:47:48Z</time>
      </trkpt>
      <trkpt lat="45.63007" lon="5.02176">
        <ele>317.60400390625</ele>
        <time>2012-06-09T11:48:09Z</time>
      </trkpt>
      <trkpt lat="45.62996" lon="5.02204">
        <ele>322.00100708008</ele>
        <time>2012-06-09T11:48:29Z</time>
      </trkpt>
      <trkpt lat="45.63015" lon="5.02224">
        <ele>326.16198730469</ele>
        <time>2012-06-09T11:48:52Z</time>
      </trkpt>
      <trkpt lat="45.63052" lon="5.02233">
        <ele>329.82299804688</ele>
        <time>2012-06-09T11:49:17Z</time>
      </trkpt>
      <trkpt lat="45.63097" lon="5.02226">
        <ele>331.71701049805</ele>
        <time>2012-06-09T11:49:40Z</time>
      </trkpt>
      <trkpt lat="45.63158" lon="5.02239">
        <ele>337.38299560547</ele>
        <time>2012-06-09T11:50:12Z</time>
      </trkpt>
      <trkpt lat="45.6321" lon="5.02261">
        <ele>340.78399658203</ele>
        <time>2012-06-09T11:50:44Z</time>
      </trkpt>
      <trkpt lat="45.63298" lon="5.02279">
        <ele>343.65399169922</ele>
        <time>2012-06-09T11:51:13Z</time>
      </trkpt>
      <trkpt lat="45.63377" lon="5.02324">
        <ele>342.73699951172</ele>
        <time>2012-06-09T11:51:34Z</time>
      </trkpt>
      <trkpt lat="45.63377" lon="5.02303">
        <ele>343.41299438477</ele>
        <time>2012-06-09T11:56:56Z</time>
      </trkpt>
      <trkpt lat="45.63395" lon="5.02241">
        <ele>346.91000366211</ele>
        <time>2012-06-09T11:57:21Z</time>
      </trkpt>
      <trkpt lat="45.6342" lon="5.02136">
        <ele>351.19900512695</ele>
        <time>2012-06-09T11:57:52Z</time>
      </trkpt>
      <trkpt lat="45.63438" lon="5.02">
        <ele>355.11199951172</ele>
        <time>2012-06-09T11:58:25Z</time>
      </trkpt>
      <trkpt lat="45.63452" lon="5.0179">
        <ele>360.02200317383</ele>
        <time>2012-06-09T11:59:12Z</time>
      </trkpt>
      <trkpt lat="45.63465" lon="5.01625">
        <ele>364.15100097656</ele>
        <time>2012-06-09T11:59:48Z</time>
      </trkpt>
      <trkpt lat="45.6352" lon="5.01435">
        <ele>366.9700012207</ele>
        <time>2012-06-09T12:00:25Z</time>
      </trkpt>
      <trkpt lat="45.63562" lon="5.01255">
        <ele>369.42098999023</ele>
        <time>2012-06-09T12:00:58Z</time>
      </trkpt>
      <trkpt lat="45.63558" lon="5.01135">
        <ele>368.31100463867</ele>
        <time>2012-06-09T12:01:24Z</time>
      </trkpt>
      <trkpt lat="45.63585" lon="5.00895">
        <ele>355.23400878906</ele>
        <time>2012-06-09T12:01:40Z</time>
      </trkpt>
      <trkpt lat="45.63562" lon="5.00756">
        <ele>348.98498535156</ele>
        <time>2012-06-09T12:01:58Z</time>
      </trkpt>
      <trkpt lat="45.63565" lon="5.00772">
        <ele>348.18899536133</ele>
        <time>2012-06-09T12:02:13Z</time>
      </trkpt>
      <trkpt lat="45.63556" lon="5.00744">
        <ele>348.27398681641</ele>
        <time>2012-06-09T12:02:30Z</time>
      </trkpt>
      <trkpt lat="45.63556" lon="5.00724">
        <ele>348.27899169922</ele>
        <time>2012-06-09T12:02:56Z</time>
      </trkpt>
      <trkpt lat="45.63603" lon="5.00634">
        <ele>347.74200439453</ele>
        <time>2012-06-09T12:03:21Z</time>
      </trkpt>
      <trkpt lat="45.63669" lon="5.00551">
        <ele>345.18301391602</ele>
        <time>2012-06-09T12:03:40Z</time>
      </trkpt>
      <trkpt lat="45.63787" lon="5.00286">
        <ele>332.53201293945</ele>
        <time>2012-06-09T12:04:04Z</time>
      </trkpt>
      <trkpt lat="45.63794" lon="5.00156">
        <ele>322.19900512695</ele>
        <time>2012-06-09T12:04:16Z</time>
      </trkpt>
      <trkpt lat="45.63729" lon="5.00079">
        <ele>324.20199584961</ele>
        <time>2012-06-09T12:04:40Z</time>
      </trkpt>
      <trkpt lat="45.63656" lon="4.99974">
        <ele>326.99200439453</ele>
        <time>2012-06-09T12:05:12Z</time>
      </trkpt>
      <trkpt lat="45.63588" lon="4.99868">
        <ele>327.47601318359</ele>
        <time>2012-06-09T12:05:42Z</time>
      </trkpt>
      <trkpt lat="45.63506" lon="4.99818">
        <ele>323.29501342773</ele>
        <time>2012-06-09T12:05:56Z</time>
      </trkpt>
      <trkpt lat="45.63358" lon="4.99782">
        <ele>308.15100097656</ele>
        <time>2012-06-09T12:06:13Z</time>
      </trkpt>
      <trkpt lat="45.63344" lon="4.99869">
        <ele>300.06201171875</ele>
        <time>2012-06-09T12:06:28Z</time>
      </trkpt>
      <trkpt lat="45.63266" lon="5.00009">
        <ele>293.96200561523</ele>
        <time>2012-06-09T12:06:42Z</time>
      </trkpt>
      <trkpt lat="45.63174" lon="5.00059">
        <ele>286.0719909668</ele>
        <time>2012-06-09T12:06:56Z</time>
      </trkpt>
      <trkpt lat="45.6308" lon="5.00094">
        <ele>278.64801025391</ele>
        <time>2012-06-09T12:07:10Z</time>
      </trkpt>
      <trkpt lat="45.63005" lon="5.00273">
        <ele>266.57800292969</ele>
        <time>2012-06-09T12:07:26Z</time>
      </trkpt>
      <trkpt lat="45.6298" lon="5.00485">
        <ele>264.16400146484</ele>
        <time>2012-06-09T12:07:52Z</time>
      </trkpt>
      <trkpt lat="45.62944" lon="5.0056">
        <ele>262.59399414062</ele>
        <time>2012-06-09T12:08:04Z</time>
      </trkpt>
      <trkpt lat="45.62886" lon="5.00554">
        <ele>261.6780090332</ele>
        <time>2012-06-09T12:08:29Z</time>
      </trkpt>
      <trkpt lat="45.62821" lon="5.00558">
        <ele>266.43399047852</ele>
        <time>2012-06-09T12:09:01Z</time>
      </trkpt>
      <trkpt lat="45.62805" lon="5.00643">
        <ele>271.83700561523</ele>
        <time>2012-06-09T12:09:32Z</time>
      </trkpt>
      <trkpt lat="45.6278" lon="5.00708">
        <ele>276.29998779297</ele>
        <time>2012-06-09T12:09:57Z</time>
      </trkpt>
      <trkpt lat="45.62738" lon="5.00729">
        <ele>281.36499023438</ele>
        <time>2012-06-09T12:10:21Z</time>
      </trkpt>
      <trkpt lat="45.62703" lon="5.00718">
        <ele>285.08200073242</ele>
        <time>2012-06-09T12:10:42Z</time>
      </trkpt>
      <trkpt lat="45.62621" lon="5.00724">
        <ele>288.98001098633</ele>
        <time>2012-06-09T12:11:10Z</time>
      </trkpt>
      <trkpt lat="45.62519" lon="5.00758">
        <ele>290.38598632812</ele>
        <time>2012-06-09T12:11:40Z</time>
      </trkpt>
      <trkpt lat="45.6245" lon="5.00796">
        <ele>287.16198730469</ele>
        <time>2012-06-09T12:11:52Z</time>
      </trkpt>
      <trkpt lat="45.62355" lon="5.00832">
        <ele>285.49600219727</ele>
        <time>2012-06-09T12:12:11Z</time>
      </trkpt>
      <trkpt lat="45.62287" lon="5.00811">
        <ele>288.70700073242</ele>
        <time>2012-06-09T12:12:29Z</time>
      </trkpt>
      <trkpt lat="45.62223" lon="5.00831">
        <ele>294.90301513672</ele>
        <time>2012-06-09T12:12:56Z</time>
      </trkpt>
      <trkpt lat="45.62151" lon="5.00916">
        <ele>303.11599731445</ele>
        <time>2012-06-09T12:13:30Z</time>
      </trkpt>
      <trkpt lat="45.62128" lon="5.00938">
        <ele>306.60900878906</ele>
        <time>2012-06-09T12:16:45Z</time>
      </trkpt>
      <trkpt lat="45.62104" lon="5.00841">
        <ele>300.36401367188</ele>
        <time>2012-06-09T12:16:59Z</time>
      </trkpt>
      <trkpt lat="45.62045" lon="5.00742">
        <ele>295.39300537109</ele>
        <time>2012-06-09T12:17:12Z</time>
      </trkpt>
      <trkpt lat="45.62074" lon="5.00667">
        <ele>295.09298706055</ele>
        <time>2012-06-09T12:17:27Z</time>
      </trkpt>
      <trkpt lat="45.62124" lon="5.00611">
        <ele>295.97100830078</ele>
        <time>2012-06-09T12:17:44Z</time>
      </trkpt>
      <trkpt lat="45.62165" lon="5.00541">
        <ele>295.75601196289</ele>
        <time>2012-06-09T12:17:59Z</time>
      </trkpt>
      <trkpt lat="45.62126" lon="5.0039">
        <ele>298.46099853516</ele>
        <time>2012-06-09T12:18:33Z</time>
      </trkpt>
      <trkpt lat="45.62089" lon="5.0026">
        <ele>299.75799560547</ele>
        <time>2012-06-09T12:19:04Z</time>
      </trkpt>
      <trkpt lat="45.62044" lon="5.00126">
        <ele>302.47299194336</ele>
        <time>2012-06-09T12:19:42Z</time>
      </trkpt>
      <trkpt lat="45.62009" lon="4.99994">
        <ele>304.70999145508</ele>
        <time>2012-06-09T12:20:20Z</time>
      </trkpt>
      <trkpt lat="45.61979" lon="4.99906">
        <ele>310.67199707031</ele>
        <time>2012-06-09T12:20:53Z</time>
      </trkpt>
      <trkpt lat="45.6202" lon="4.99815">
        <ele>309.08499145508</ele>
        <time>2012-06-09T12:21:16Z</time>
      </trkpt>
      <trkpt lat="45.62083" lon="4.99687">
        <ele>294.25</ele>
        <time>2012-06-09T12:21:35Z</time>
      </trkpt>
      <trkpt lat="45.6208" lon="4.99597">
        <ele>282.89801025391</ele>
        <time>2012-06-09T12:21:47Z</time>
      </trkpt>
      <trkpt lat="45.62055" lon="4.99517">
        <ele>273.60900878906</ele>
        <time>2012-06-09T12:22:10Z</time>
      </trkpt>
      <trkpt lat="45.62098" lon="4.99469">
        <ele>272.23498535156</ele>
        <time>2012-06-09T12:23:18Z</time>
      </trkpt>
      <trkpt lat="45.62099" lon="4.99439">
        <ele>272.02700805664</ele>
        <time>2012-06-09T12:23:41Z</time>
      </trkpt>
      <trkpt lat="45.62103" lon="4.99369">
        <ele>272.48400878906</ele>
        <time>2012-06-09T12:24:07Z</time>
      </trkpt>
      <trkpt lat="45.62088" lon="4.99256">
        <ele>273.59698486328</ele>
        <time>2012-06-09T12:24:38Z</time>
      </trkpt>
      <trkpt lat="45.62057" lon="4.99207">
        <ele>278.7080078125</ele>
        <time>2012-06-09T12:25:09Z</time>
      </trkpt>
      <trkpt lat="45.61987" lon="4.99215">
        <ele>284.77801513672</ele>
        <time>2012-06-09T12:25:48Z</time>
      </trkpt>
      <trkpt lat="45.61947" lon="4.99177">
        <ele>286.03201293945</ele>
        <time>2012-06-09T12:26:11Z</time>
      </trkpt>
      <trkpt lat="45.61903" lon="4.99216">
        <ele>287.18399047852</ele>
        <time>2012-06-09T12:26:34Z</time>
      </trkpt>
      <trkpt lat="45.6187" lon="4.993">
        <ele>291.98498535156</ele>
        <time>2012-06-09T12:27:05Z</time>
      </trkpt>
      <trkpt lat="45.61829" lon="4.99401">
        <ele>293.46200561523</ele>
        <time>2012-06-09T12:27:40Z</time>
      </trkpt>
      <trkpt lat="45.61793" lon="4.99484">
        <ele>299.00100708008</ele>
        <time>2012-06-09T12:28:14Z</time>
      </trkpt>
      <trkpt lat="45.61768" lon="4.99543">
        <ele>307.31201171875</ele>
        <time>2012-06-09T12:28:43Z</time>
      </trkpt>
      <trkpt lat="45.61741" lon="4.99601">
        <ele>312.71099853516</ele>
        <time>2012-06-09T12:29:13Z</time>
      </trkpt>
      <trkpt lat="45.61711" lon="4.99673">
        <ele>314.96200561523</ele>
        <time>2012-06-09T12:29:40Z</time>
      </trkpt>
      <trkpt lat="45.61661" lon="4.99794">
        <ele>316.81900024414</ele>
        <time>2012-06-09T12:30:07Z</time>
      </trkpt>
      <trkpt lat="45.61601" lon="4.99928">
        <ele>319.67401123047</ele>
        <time>2012-06-09T12:30:40Z</time>
      </trkpt>
      <trkpt lat="45.61556" lon="4.99983">
        <ele>323.39099121094</ele>
        <time>2012-06-09T12:31:06Z</time>
      </trkpt>
      <trkpt lat="45.6151" lon="4.99946">
        <ele>329.64099121094</ele>
        <time>2012-06-09T12:31:32Z</time>
      </trkpt>
      <trkpt lat="45.61501" lon="4.99921">
        <ele>332.71301269531</ele>
        <time>2012-06-09T12:33:43Z</time>
      </trkpt>
      <trkpt lat="45.6151" lon="4.99882">
        <ele>332.13000488281</ele>
        <time>2012-06-09T12:35:11Z</time>
      </trkpt>
      <trkpt lat="45.6153" lon="4.99821">
        <ele>331.87701416016</ele>
        <time>2012-06-09T12:35:35Z</time>
      </trkpt>
      <trkpt lat="45.61557" lon="4.9958">
        <ele>330.21798706055</ele>
        <time>2012-06-09T12:36:09Z</time>
      </trkpt>
      <trkpt lat="45.6155" lon="4.99447">
        <ele>326.58200073242</ele>
        <time>2012-06-09T12:36:24Z</time>
      </trkpt>
      <trkpt lat="45.61514" lon="4.99278">
        <ele>326.7200012207</ele>
        <time>2012-06-09T12:36:58Z</time>
      </trkpt>
      <trkpt lat="45.61492" lon="4.99098">
        <ele>322.9289855957</ele>
        <time>2012-06-09T12:37:19Z</time>
      </trkpt>
      <trkpt lat="45.61466" lon="4.98837">
        <ele>320.80499267578</ele>
        <time>2012-06-09T12:37:50Z</time>
      </trkpt>
      <trkpt lat="45.61427" lon="4.98659">
        <ele>318.7380065918</ele>
        <time>2012-06-09T12:38:14Z</time>
      </trkpt>
      <trkpt lat="45.61352" lon="4.98477">
        <ele>316.3210144043</ele>
        <time>2012-06-09T12:38:38Z</time>
      </trkpt>
      <trkpt lat="45.61249" lon="4.98289">
        <ele>312.98699951172</ele>
        <time>2012-06-09T12:39:03Z</time>
      </trkpt>
      <trkpt lat="45.61206" lon="4.98099">
        <ele>307.82400512695</ele>
        <time>2012-06-09T12:39:26Z</time>
      </trkpt>
      <trkpt lat="45.61118" lon="4.97907">
        <ele>293.26901245117</ele>
        <time>2012-06-09T12:39:41Z</time>
      </trkpt>
      <trkpt lat="45.61066" lon="4.97835">
        <ele>279.38500976562</ele>
        <time>2012-06-09T12:39:59Z</time>
      </trkpt>
      <trkpt lat="45.61009" lon="4.97803">
        <ele>272.21200561523</ele>
        <time>2012-06-09T12:40:11Z</time>
      </trkpt>
      <trkpt lat="45.60978" lon="4.97734">
        <ele>265.74301147461</ele>
        <time>2012-06-09T12:40:23Z</time>
      </trkpt>
      <trkpt lat="45.60896" lon="4.97704">
        <ele>264.47399902344</ele>
        <time>2012-06-09T12:40:46Z</time>
      </trkpt>
      <trkpt lat="45.60847" lon="4.97749">
        <ele>270.92498779297</ele>
        <time>2012-06-09T12:41:15Z</time>
      </trkpt>
      <trkpt lat="45.60815" lon="4.97789">
        <ele>276.84100341797</ele>
        <time>2012-06-09T12:41:41Z</time>
      </trkpt>
      <trkpt lat="45.60779" lon="4.97836">
        <ele>283.53399658203</ele>
        <time>2012-06-09T12:42:12Z</time>
      </trkpt>
      <trkpt lat="45.60761" lon="4.97872">
        <ele>289.70901489258</ele>
        <time>2012-06-09T12:42:35Z</time>
      </trkpt>
      <trkpt lat="45.60737" lon="4.97896">
        <ele>294.58999633789</ele>
        <time>2012-06-09T12:42:59Z</time>
      </trkpt>
      <trkpt lat="45.60715" lon="4.97917">
        <ele>298.22601318359</ele>
        <time>2012-06-09T12:43:44Z</time>
      </trkpt>
      <trkpt lat="45.60703" lon="4.97931">
        <ele>301.86099243164</ele>
        <time>2012-06-09T12:44:18Z</time>
      </trkpt>
      <trkpt lat="45.60686" lon="4.97944">
        <ele>304.67599487305</ele>
        <time>2012-06-09T12:44:44Z</time>
      </trkpt>
      <trkpt lat="45.60664" lon="4.97965">
        <ele>309.16299438477</ele>
        <time>2012-06-09T12:45:13Z</time>
      </trkpt>
      <trkpt lat="45.60637" lon="4.97984">
        <ele>314.67498779297</ele>
        <time>2012-06-09T12:45:47Z</time>
      </trkpt>
      <trkpt lat="45.60616" lon="4.97979">
        <ele>318.8030090332</ele>
        <time>2012-06-09T12:46:15Z</time>
      </trkpt>
      <trkpt lat="45.6062" lon="4.97913">
        <ele>317.21701049805</ele>
        <time>2012-06-09T12:46:35Z</time>
      </trkpt>
      <trkpt lat="45.60603" lon="4.97863">
        <ele>316.56698608398</ele>
        <time>2012-06-09T12:49:02Z</time>
      </trkpt>
      <trkpt lat="45.60568" lon="4.97833">
        <ele>318.0530090332</ele>
        <time>2012-06-09T12:49:22Z</time>
      </trkpt>
      <trkpt lat="45.60549" lon="4.9778">
        <ele>317.54800415039</ele>
        <time>2012-06-09T12:49:39Z</time>
      </trkpt>
      <trkpt lat="45.60545" lon="4.97744">
        <ele>314.69500732422</ele>
        <time>2012-06-09T12:49:54Z</time>
      </trkpt>
      <trkpt lat="45.60519" lon="4.97661">
        <ele>314.17199707031</ele>
        <time>2012-06-09T12:50:15Z</time>
      </trkpt>
      <trkpt lat="45.60479" lon="4.97605">
        <ele>314.75601196289</ele>
        <time>2012-06-09T12:50:37Z</time>
      </trkpt>
      <trkpt lat="45.60437" lon="4.97541">
        <ele>313.01098632812</ele>
        <time>2012-06-09T12:51:01Z</time>
      </trkpt>
      <trkpt lat="45.60399" lon="4.97486">
        <ele>311.49301147461</ele>
        <time>2012-06-09T12:51:25Z</time>
      </trkpt>
      <trkpt lat="45.60375" lon="4.97444">
        <ele>312.88500976562</ele>
        <time>2012-06-09T12:51:47Z</time>
      </trkpt>
      <trkpt lat="45.60365" lon="4.97398">
        <ele>315.28601074219</ele>
        <time>2012-06-09T12:52:07Z</time>
      </trkpt>
      <trkpt lat="45.60342" lon="4.97318">
        <ele>314.96600341797</ele>
        <time>2012-06-09T12:52:30Z</time>
      </trkpt>
      <trkpt lat="45.60332" lon="4.97286">
        <ele>316.70700073242</ele>
        <time>2012-06-09T12:53:00Z</time>
      </trkpt>
      <trkpt lat="45.60295" lon="4.97226">
        <ele>319.95498657227</ele>
        <time>2012-06-09T12:53:31Z</time>
      </trkpt>
      <trkpt lat="45.60236" lon="4.97153">
        <ele>318.97100830078</ele>
        <time>2012-06-09T12:54:00Z</time>
      </trkpt>
      <trkpt lat="45.60187" lon="4.97108">
        <ele>316.8219909668</ele>
        <time>2012-06-09T12:54:21Z</time>
      </trkpt>
      <trkpt lat="45.60152" lon="4.9706">
        <ele>316.30599975586</ele>
        <time>2012-06-09T12:54:41Z</time>
      </trkpt>
      <trkpt lat="45.60123" lon="4.96991">
        <ele>316.55899047852</ele>
        <time>2012-06-09T12:54:58Z</time>
      </trkpt>
      <trkpt lat="45.60115" lon="4.9687">
        <ele>316.65798950195</ele>
        <time>2012-06-09T12:55:25Z</time>
      </trkpt>
      <trkpt lat="45.6007" lon="4.96848">
        <ele>322.04299926758</ele>
        <time>2012-06-09T12:55:52Z</time>
      </trkpt>
      <trkpt lat="45.60027" lon="4.96865">
        <ele>327.72299194336</ele>
        <time>2012-06-09T12:56:21Z</time>
      </trkpt>
      <trkpt lat="45.60023" lon="4.96897">
        <ele>333.18798828125</ele>
        <time>2012-06-09T12:56:45Z</time>
      </trkpt>
      <trkpt lat="45.60033" lon="4.96921">
        <ele>336.69799804688</ele>
        <time>2012-06-09T12:57:04Z</time>
      </trkpt>
      <trkpt lat="45.60053" lon="4.96967">
        <ele>340.08401489258</ele>
        <time>2012-06-09T12:57:27Z</time>
      </trkpt>
      <trkpt lat="45.60062" lon="4.97012">
        <ele>341.06399536133</ele>
        <time>2012-06-09T12:57:47Z</time>
      </trkpt>
      <trkpt lat="45.60072" lon="4.97089">
        <ele>340.54699707031</ele>
        <time>2012-06-09T12:58:13Z</time>
      </trkpt>
      <trkpt lat="45.60096" lon="4.97174">
        <ele>341.40701293945</ele>
        <time>2012-06-09T12:58:37Z</time>
      </trkpt>
      <trkpt lat="45.60117" lon="4.97263">
        <ele>345.57299804688</ele>
        <time>2012-06-09T12:59:00Z</time>
      </trkpt>
      <trkpt lat="45.60141" lon="4.97343">
        <ele>350.44500732422</ele>
        <time>2012-06-09T12:59:30Z</time>
      </trkpt>
      <trkpt lat="45.60187" lon="4.9741">
        <ele>352.3630065918</ele>
        <time>2012-06-09T13:00:03Z</time>
      </trkpt>
      <trkpt lat="45.60237" lon="4.97487">
        <ele>350.75500488281</ele>
        <time>2012-06-09T13:00:27Z</time>
      </trkpt>
      <trkpt lat="45.60318" lon="4.97636">
        <ele>349.1789855957</ele>
        <time>2012-06-09T13:00:52Z</time>
      </trkpt>
      <trkpt lat="45.60337" lon="4.97758">
        <ele>349.33898925781</ele>
        <time>2012-06-09T13:01:12Z</time>
      </trkpt>
      <trkpt lat="45.60355" lon="4.97921">
        <ele>351.41000366211</ele>
        <time>2012-06-09T13:01:39Z</time>
      </trkpt>
      <trkpt lat="45.60333" lon="4.97927">
        <ele>353.33599853516</ele>
        <time>2012-06-09T13:04:02Z</time>
      </trkpt>
      <trkpt lat="45.60271" lon="4.97847">
        <ele>342.93499755859</ele>
        <time>2012-06-09T13:04:16Z</time>
      </trkpt>
      <trkpt lat="45.60241" lon="4.97728">
        <ele>329.20599365234</ele>
        <time>2012-06-09T13:04:32Z</time>
      </trkpt>
      <trkpt lat="45.60143" lon="4.97627">
        <ele>322.7799987793</ele>
        <time>2012-06-09T13:04:49Z</time>
      </trkpt>
      <trkpt lat="45.60089" lon="4.97534">
        <ele>319.74798583984</ele>
        <time>2012-06-09T13:05:07Z</time>
      </trkpt>
      <trkpt lat="45.60043" lon="4.97428">
        <ele>320.29299926758</ele>
        <time>2012-06-09T13:05:27Z</time>
      </trkpt>
      <trkpt lat="45.59998" lon="4.97381">
        <ele>317.49499511719</ele>
        <time>2012-06-09T13:06:22Z</time>
      </trkpt>
      <trkpt lat="45.5998" lon="4.97366">
        <ele>317.60101318359</ele>
        <time>2012-06-09T13:06:44Z</time>
      </trkpt>
      <trkpt lat="45.59959" lon="4.97345">
        <ele>318.21301269531</ele>
        <time>2012-06-09T13:07:34Z</time>
      </trkpt>
      <trkpt lat="45.59908" lon="4.9731">
        <ele>317.81698608398</ele>
        <time>2012-06-09T13:08:05Z</time>
      </trkpt>
      <trkpt lat="45.59855" lon="4.97287">
        <ele>315.89300537109</ele>
        <time>2012-06-09T13:08:40Z</time>
      </trkpt>
      <trkpt lat="45.59798" lon="4.9726">
        <ele>314.42700195312</ele>
        <time>2012-06-09T13:09:00Z</time>
      </trkpt>
      <trkpt lat="45.59706" lon="4.97236">
        <ele>311.22601318359</ele>
        <time>2012-06-09T13:09:19Z</time>
      </trkpt>
      <trkpt lat="45.59619" lon="4.97211">
        <ele>306.21701049805</ele>
        <time>2012-06-09T13:09:42Z</time>
      </trkpt>
      <trkpt lat="45.5955" lon="4.97205">
        <ele>303.4169921875</ele>
        <time>2012-06-09T13:09:57Z</time>
      </trkpt>
      <trkpt lat="45.59483" lon="4.97182">
        <ele>300.93399047852</ele>
        <time>2012-06-09T13:10:22Z</time>
      </trkpt>
      <trkpt lat="45.59383" lon="4.97167">
        <ele>304.54699707031</ele>
        <time>2012-06-09T13:10:52Z</time>
      </trkpt>
      <trkpt lat="45.59314" lon="4.97187">
        <ele>308.2380065918</ele>
        <time>2012-06-09T13:11:16Z</time>
      </trkpt>
      <trkpt lat="45.5926" lon="4.97163">
        <ele>313.84899902344</ele>
        <time>2012-06-09T13:11:44Z</time>
      </trkpt>
      <trkpt lat="45.5924" lon="4.97144">
        <ele>318.17700195312</ele>
        <time>2012-06-09T13:12:03Z</time>
      </trkpt>
      <trkpt lat="45.59208" lon="4.97099">
        <ele>319.7380065918</ele>
        <time>2012-06-09T13:13:44Z</time>
      </trkpt>
      <trkpt lat="45.59189" lon="4.97107">
        <ele>318.85400390625</ele>
        <time>2012-06-09T13:16:04Z</time>
      </trkpt>
      <trkpt lat="45.59133" lon="4.9714">
        <ele>318.03900146484</ele>
        <time>2012-06-09T13:16:27Z</time>
      </trkpt>
      <trkpt lat="45.59084" lon="4.97071">
        <ele>307.49301147461</ele>
        <time>2012-06-09T13:16:51Z</time>
      </trkpt>
      <trkpt lat="45.59051" lon="4.97008">
        <ele>295.61199951172</ele>
        <time>2012-06-09T13:17:05Z</time>
      </trkpt>
      <trkpt lat="45.59023" lon="4.96902">
        <ele>284.13198852539</ele>
        <time>2012-06-09T13:17:21Z</time>
      </trkpt>
      <trkpt lat="45.59013" lon="4.96821">
        <ele>271.33200073242</ele>
        <time>2012-06-09T13:17:39Z</time>
      </trkpt>
      <trkpt lat="45.59018" lon="4.96719">
        <ele>260.02099609375</ele>
        <time>2012-06-09T13:17:56Z</time>
      </trkpt>
      <trkpt lat="45.58974" lon="4.9664">
        <ele>255.05700683594</ele>
        <time>2012-06-09T13:18:08Z</time>
      </trkpt>
      <trkpt lat="45.58973" lon="4.96607">
        <ele>252.94200134277</ele>
        <time>2012-06-09T13:18:31Z</time>
      </trkpt>
      <trkpt lat="45.58989" lon="4.96468">
        <ele>249.10899353027</ele>
        <time>2012-06-09T13:18:51Z</time>
      </trkpt>
      <trkpt lat="45.58981" lon="4.96386">
        <ele>241.02000427246</ele>
        <time>2012-06-09T13:19:09Z</time>
      </trkpt>
      <trkpt lat="45.59029" lon="4.96151">
        <ele>234.33700561523</ele>
        <time>2012-06-09T13:19:33Z</time>
      </trkpt>
      <trkpt lat="45.59001" lon="4.95981">
        <ele>232.41799926758</ele>
        <time>2012-06-09T13:19:55Z</time>
      </trkpt>
      <trkpt lat="45.58953" lon="4.95848">
        <ele>232.53100585938</ele>
        <time>2012-06-09T13:20:21Z</time>
      </trkpt>
      <trkpt lat="45.58892" lon="4.95702">
        <ele>232.47799682617</ele>
        <time>2012-06-09T13:20:45Z</time>
      </trkpt>
      <trkpt lat="45.58885" lon="4.95635">
        <ele>232.52000427246</ele>
        <time>2012-06-09T13:20:57Z</time>
      </trkpt>
      <trkpt lat="45.58916" lon="4.95645">
        <ele>232.36199951172</ele>
        <time>2012-06-09T13:21:15Z</time>
      </trkpt>
      <trkpt lat="45.58942" lon="4.95594">
        <ele>232.27699279785</ele>
        <time>2012-06-09T13:21:36Z</time>
      </trkpt>
      <trkpt lat="45.58941" lon="4.9559">
        <ele>231.68200683594</ele>
        <time>2012-06-09T13:25:21Z</time>
      </trkpt>
      <trkpt lat="45.58928" lon="4.95644">
        <ele>232.73199462891</ele>
        <time>2012-06-09T13:25:42Z</time>
      </trkpt>
      <trkpt lat="45.5899" lon="4.9568">
        <ele>234.18899536133</ele>
        <time>2012-06-09T13:26:10Z</time>
      </trkpt>
      <trkpt lat="45.59062" lon="4.95708">
        <ele>237.2859954834</ele>
        <time>2012-06-09T13:26:41Z</time>
      </trkpt>
      <trkpt lat="45.59115" lon="4.95721">
        <ele>240.30499267578</ele>
        <time>2012-06-09T13:27:05Z</time>
      </trkpt>
      <trkpt lat="45.59171" lon="4.95719">
        <ele>245.49800109863</ele>
        <time>2012-06-09T13:27:36Z</time>
      </trkpt>
      <trkpt lat="45.59222" lon="4.95687">
        <ele>252.11500549316</ele>
        <time>2012-06-09T13:28:08Z</time>
      </trkpt>
      <trkpt lat="45.59272" lon="4.95649">
        <ele>256.8030090332</ele>
        <time>2012-06-09T13:28:39Z</time>
      </trkpt>
      <trkpt lat="45.59324" lon="4.95631">
        <ele>263.53100585938</ele>
        <time>2012-06-09T13:29:11Z</time>
      </trkpt>
      <trkpt lat="45.59379" lon="4.95578">
        <ele>269.65899658203</ele>
        <time>2012-06-09T13:29:42Z</time>
      </trkpt>
      <trkpt lat="45.5944" lon="4.9553">
        <ele>273.13400268555</ele>
        <time>2012-06-09T13:30:15Z</time>
      </trkpt>
      <trkpt lat="45.59532" lon="4.95549">
        <ele>275.37200927734</ele>
        <time>2012-06-09T13:30:48Z</time>
      </trkpt>
      <trkpt lat="45.59611" lon="4.956">
        <ele>280.34399414062</ele>
        <time>2012-06-09T13:31:22Z</time>
      </trkpt>
      <trkpt lat="45.59678" lon="4.95624">
        <ele>285.65100097656</ele>
        <time>2012-06-09T13:31:48Z</time>
      </trkpt>
      <trkpt lat="45.59697" lon="4.95536">
        <ele>290.04598999023</ele>
        <time>2012-06-09T13:32:15Z</time>
      </trkpt>
      <trkpt lat="45.59657" lon="4.95479">
        <ele>287.20300292969</ele>
        <time>2012-06-09T13:32:42Z</time>
      </trkpt>
      <trkpt lat="45.59675" lon="4.95445">
        <ele>281.13000488281</ele>
        <time>2012-06-09T13:32:58Z</time>
      </trkpt>
      <trkpt lat="45.59718" lon="4.95421">
        <ele>270.5530090332</ele>
        <time>2012-06-09T13:33:16Z</time>
      </trkpt>
      <trkpt lat="45.59753" lon="4.95427">
        <ele>269.84399414062</ele>
        <time>2012-06-09T13:33:44Z</time>
      </trkpt>
      <trkpt lat="45.59835" lon="4.95452">
        <ele>269.05099487305</ele>
        <time>2012-06-09T13:34:06Z</time>
      </trkpt>
      <trkpt lat="45.59919" lon="4.95467">
        <ele>269.77600097656</ele>
        <time>2012-06-09T13:34:30Z</time>
      </trkpt>
      <trkpt lat="45.59997" lon="4.95477">
        <ele>271.5</ele>
        <time>2012-06-09T13:34:52Z</time>
      </trkpt>
      <trkpt lat="45.60078" lon="4.95486">
        <ele>271.88000488281</ele>
        <time>2012-06-09T13:35:13Z</time>
      </trkpt>
      <trkpt lat="45.60151" lon="4.95536">
        <ele>272.3869934082</ele>
        <time>2012-06-09T13:35:34Z</time>
      </trkpt>
      <trkpt lat="45.60191" lon="4.95613">
        <ele>275.46600341797</ele>
        <time>2012-06-09T13:35:55Z</time>
      </trkpt>
      <trkpt lat="45.60233" lon="4.95675">
        <ele>274.67199707031</ele>
        <time>2012-06-09T13:36:13Z</time>
      </trkpt>
      <trkpt lat="45.6026" lon="4.95659">
        <ele>269.15701293945</ele>
        <time>2012-06-09T13:36:36Z</time>
      </trkpt>
      <trkpt lat="45.60273" lon="4.95646">
        <ele>265.76501464844</ele>
        <time>2012-06-09T13:37:15Z</time>
      </trkpt>
      <trkpt lat="45.60284" lon="4.95625">
        <ele>261.54901123047</ele>
        <time>2012-06-09T13:37:49Z</time>
      </trkpt>
      <trkpt lat="45.6027" lon="4.95604">
        <ele>259.27398681641</ele>
        <time>2012-06-09T13:38:05Z</time>
      </trkpt>
      <trkpt lat="45.60277" lon="4.956">
        <ele>260.89898681641</ele>
        <time>2012-06-09T13:38:32Z</time>
      </trkpt>
      <trkpt lat="45.60288" lon="4.95595">
        <ele>264.84899902344</ele>
        <time>2012-06-09T13:38:59Z</time>
      </trkpt>
      <trkpt lat="45.60308" lon="4.95595">
        <ele>269.16900634766</ele>
        <time>2012-06-09T13:39:26Z</time>
      </trkpt>
      <trkpt lat="45.60316" lon="4.95604">
        <ele>271.01699829102</ele>
        <time>2012-06-09T13:39:59Z</time>
      </trkpt>
      <trkpt lat="45.60344" lon="4.95638">
        <ele>271.98400878906</ele>
        <time>2012-06-09T13:40:22Z</time>
      </trkpt>
      <trkpt lat="45.60374" lon="4.95645">
        <ele>274.90701293945</ele>
        <time>2012-06-09T13:40:43Z</time>
      </trkpt>
      <trkpt lat="45.60421" lon="4.95645">
        <ele>276.54699707031</ele>
        <time>2012-06-09T13:41:03Z</time>
      </trkpt>
      <trkpt lat="45.60466" lon="4.9563">
        <ele>278.64801025391</ele>
        <time>2012-06-09T13:41:25Z</time>
      </trkpt>
      <trkpt lat="45.60496" lon="4.95596">
        <ele>281.37701416016</ele>
        <time>2012-06-09T13:41:49Z</time>
      </trkpt>
      <trkpt lat="45.60513" lon="4.95559">
        <ele>283.45901489258</ele>
        <time>2012-06-09T13:42:11Z</time>
      </trkpt>
      <trkpt lat="45.60524" lon="4.95493">
        <ele>289.4280090332</ele>
        <time>2012-06-09T13:42:49Z</time>
      </trkpt>
      <trkpt lat="45.60523" lon="4.95446">
        <ele>293.31600952148</ele>
        <time>2012-06-09T13:43:17Z</time>
      </trkpt>
      <trkpt lat="45.60515" lon="4.95405">
        <ele>297.55700683594</ele>
        <time>2012-06-09T13:43:43Z</time>
      </trkpt>
      <trkpt lat="45.60494" lon="4.95352">
        <ele>303.39001464844</ele>
        <time>2012-06-09T13:44:14Z</time>
      </trkpt>
      <trkpt lat="45.60476" lon="4.95292">
        <ele>307.79000854492</ele>
        <time>2012-06-09T13:44:44Z</time>
      </trkpt>
      <trkpt lat="45.60445" lon="4.95197">
        <ele>312.48999023438</ele>
        <time>2012-06-09T13:45:24Z</time>
      </trkpt>
      <trkpt lat="45.60456" lon="4.95115">
        <ele>316.52899169922</ele>
        <time>2012-06-09T13:45:58Z</time>
      </trkpt>
      <trkpt lat="45.60445" lon="4.95064">
        <ele>320.02200317383</ele>
        <time>2012-06-09T13:46:25Z</time>
      </trkpt>
      <trkpt lat="45.60442" lon="4.95019">
        <ele>324.11700439453</ele>
        <time>2012-06-09T13:46:45Z</time>
      </trkpt>
      <trkpt lat="45.6045" lon="4.94948">
        <ele>328.15100097656</ele>
        <time>2012-06-09T13:47:18Z</time>
      </trkpt>
      <trkpt lat="45.60453" lon="4.94844">
        <ele>334.46099853516</ele>
        <time>2012-06-09T13:47:56Z</time>
      </trkpt>
      <trkpt lat="45.60463" lon="4.94732">
        <ele>337.94500732422</ele>
        <time>2012-06-09T13:48:29Z</time>
      </trkpt>
      <trkpt lat="45.60469" lon="4.94536">
        <ele>338.04800415039</ele>
        <time>2012-06-09T13:49:23Z</time>
      </trkpt>
      <trkpt lat="45.60469" lon="4.94529">
        <ele>337.72601318359</ele>
        <time>2012-06-09T13:54:23Z</time>
      </trkpt>
      <trkpt lat="45.60483" lon="4.94513">
        <ele>338.0719909668</ele>
        <time>2012-06-09T13:54:53Z</time>
      </trkpt>
      <trkpt lat="45.60513" lon="4.94413">
        <ele>339.86401367188</ele>
        <time>2012-06-09T13:55:20Z</time>
      </trkpt>
      <trkpt lat="45.60559" lon="4.94259">
        <ele>340.50201416016</ele>
        <time>2012-06-09T13:55:52Z</time>
      </trkpt>
      <trkpt lat="45.60624" lon="4.94123">
        <ele>341.24099731445</ele>
        <time>2012-06-09T13:56:25Z</time>
      </trkpt>
      <trkpt lat="45.60712" lon="4.93928">
        <ele>335.21499633789</ele>
        <time>2012-06-09T13:56:49Z</time>
      </trkpt>
      <trkpt lat="45.60812" lon="4.93754">
        <ele>335.24798583984</ele>
        <time>2012-06-09T13:57:20Z</time>
      </trkpt>
      <trkpt lat="45.60879" lon="4.93642">
        <ele>334.76901245117</ele>
        <time>2012-06-09T13:57:48Z</time>
      </trkpt>
      <trkpt lat="45.61018" lon="4.93542">
        <ele>330.0950012207</ele>
        <time>2012-06-09T13:58:19Z</time>
      </trkpt>
      <trkpt lat="45.61092" lon="4.93485">
        <ele>327.54501342773</ele>
        <time>2012-06-09T13:58:36Z</time>
      </trkpt>
      <trkpt lat="45.61093" lon="4.93319">
        <ele>327.62399291992</ele>
        <time>2012-06-09T13:59:06Z</time>
      </trkpt>
      <trkpt lat="45.61007" lon="4.93205">
        <ele>323.96600341797</ele>
        <time>2012-06-09T13:59:34Z</time>
      </trkpt>
      <trkpt lat="45.60891" lon="4.93162">
        <ele>319.49798583984</ele>
        <time>2012-06-09T13:59:55Z</time>
      </trkpt>
      <trkpt lat="45.60763" lon="4.93121">
        <ele>314.62298583984</ele>
        <time>2012-06-09T14:00:21Z</time>
      </trkpt>
      <trkpt lat="45.60679" lon="4.93101">
        <ele>314.8330078125</ele>
        <time>2012-06-09T14:00:40Z</time>
      </trkpt>
      <trkpt lat="45.60602" lon="4.93132">
        <ele>313.23498535156</ele>
        <time>2012-06-09T14:01:00Z</time>
      </trkpt>
      <trkpt lat="45.60507" lon="4.9321">
        <ele>307.69400024414</ele>
        <time>2012-06-09T14:01:22Z</time>
      </trkpt>
      <trkpt lat="45.60453" lon="4.93256">
        <ele>293.54901123047</ele>
        <time>2012-06-09T14:01:41Z</time>
      </trkpt>
      <trkpt lat="45.60365" lon="4.93248">
        <ele>282.80599975586</ele>
        <time>2012-06-09T14:01:57Z</time>
      </trkpt>
      <trkpt lat="45.60281" lon="4.93208">
        <ele>274.16799926758</ele>
        <time>2012-06-09T14:02:15Z</time>
      </trkpt>
      <trkpt lat="45.60275" lon="4.93132">
        <ele>271.95401000977</ele>
        <time>2012-06-09T14:02:31Z</time>
      </trkpt>
      <trkpt lat="45.60289" lon="4.93056">
        <ele>271.92401123047</ele>
        <time>2012-06-09T14:02:56Z</time>
      </trkpt>
      <trkpt lat="45.60294" lon="4.92981">
        <ele>273.17700195312</ele>
        <time>2012-06-09T14:03:17Z</time>
      </trkpt>
      <trkpt lat="45.60294" lon="4.92908">
        <ele>275.20599365234</ele>
        <time>2012-06-09T14:03:39Z</time>
      </trkpt>
      <trkpt lat="45.60276" lon="4.92914">
        <ele>278.65899658203</ele>
        <time>2012-06-09T14:03:57Z</time>
      </trkpt>
      <trkpt lat="45.60247" lon="4.92921">
        <ele>283.81600952148</ele>
        <time>2012-06-09T14:04:28Z</time>
      </trkpt>
      <trkpt lat="45.60251" lon="4.92904">
        <ele>286.75399780273</ele>
        <time>2012-06-09T14:04:51Z</time>
      </trkpt>
      <trkpt lat="45.60257" lon="4.92882">
        <ele>290.81399536133</ele>
        <time>2012-06-09T14:05:21Z</time>
      </trkpt>
      <trkpt lat="45.60279" lon="4.92854">
        <ele>293.41198730469</ele>
        <time>2012-06-09T14:05:43Z</time>
      </trkpt>
      <trkpt lat="45.60284" lon="4.92819">
        <ele>297.78500366211</ele>
        <time>2012-06-09T14:06:00Z</time>
      </trkpt>
      <trkpt lat="45.60256" lon="4.9281">
        <ele>301.07299804688</ele>
        <time>2012-06-09T14:06:26Z</time>
      </trkpt>
      <trkpt lat="45.60229" lon="4.92818">
        <ele>302.23098754883</ele>
        <time>2012-06-09T14:06:48Z</time>
      </trkpt>
      <trkpt lat="45.60201" lon="4.92858">
        <ele>300.4280090332</ele>
        <time>2012-06-09T14:09:13Z</time>
      </trkpt>
      <trkpt lat="45.60171" lon="4.92985">
        <ele>291.99700927734</ele>
        <time>2012-06-09T14:09:29Z</time>
      </trkpt>
      <trkpt lat="45.60184" lon="4.9312">
        <ele>280.80801391602</ele>
        <time>2012-06-09T14:09:43Z</time>
      </trkpt>
      <trkpt lat="45.60138" lon="4.93146">
        <ele>275.11599731445</ele>
        <time>2012-06-09T14:09:53Z</time>
      </trkpt>
      <trkpt lat="45.60085" lon="4.9309">
        <ele>274.39599609375</ele>
        <time>2012-06-09T14:10:09Z</time>
      </trkpt>
      <trkpt lat="45.60044" lon="4.93032">
        <ele>274.08700561523</ele>
        <time>2012-06-09T14:10:22Z</time>
      </trkpt>
      <trkpt lat="45.59974" lon="4.92986">
        <ele>276.45199584961</ele>
        <time>2012-06-09T14:10:44Z</time>
      </trkpt>
      <trkpt lat="45.59935" lon="4.9289">
        <ele>272.375</ele>
        <time>2012-06-09T14:10:59Z</time>
      </trkpt>
      <trkpt lat="45.59874" lon="4.92786">
        <ele>268.26699829102</ele>
        <time>2012-06-09T14:11:15Z</time>
      </trkpt>
      <trkpt lat="45.5979" lon="4.92749">
        <ele>267.74398803711</ele>
        <time>2012-06-09T14:11:36Z</time>
      </trkpt>
      <trkpt lat="45.59755" lon="4.92787">
        <ele>257.3030090332</ele>
        <time>2012-06-09T14:11:51Z</time>
      </trkpt>
      <trkpt lat="45.59704" lon="4.92799">
        <ele>248.63299560547</ele>
        <time>2012-06-09T14:12:01Z</time>
      </trkpt>
      <trkpt lat="45.5966" lon="4.92807">
        <ele>242.15400695801</ele>
        <time>2012-06-09T14:12:37Z</time>
      </trkpt>
      <trkpt lat="45.59601" lon="4.92695">
        <ele>240.89500427246</ele>
        <time>2012-06-09T14:13:02Z</time>
      </trkpt>
      <trkpt lat="45.59538" lon="4.92637">
        <ele>238.84599304199</ele>
        <time>2012-06-09T14:13:20Z</time>
      </trkpt>
      <trkpt lat="45.59501" lon="4.92623">
        <ele>229.18200683594</ele>
        <time>2012-06-09T14:13:42Z</time>
      </trkpt>
      <trkpt lat="45.59475" lon="4.92558">
        <ele>226.25399780273</ele>
        <time>2012-06-09T14:14:02Z</time>
      </trkpt>
      <trkpt lat="45.5943" lon="4.92479">
        <ele>224.99000549316</ele>
        <time>2012-06-09T14:14:22Z</time>
      </trkpt>
      <trkpt lat="45.59407" lon="4.92403">
        <ele>223.86000061035</ele>
        <time>2012-06-09T14:14:40Z</time>
      </trkpt>
      <trkpt lat="45.59358" lon="4.9234">
        <ele>223.07400512695</ele>
        <time>2012-06-09T14:14:59Z</time>
      </trkpt>
      <trkpt lat="45.59296" lon="4.92287">
        <ele>221.8690032959</ele>
        <time>2012-06-09T14:15:18Z</time>
      </trkpt>
      <trkpt lat="45.5924" lon="4.92279">
        <ele>221.14199829102</ele>
        <time>2012-06-09T14:15:34Z</time>
      </trkpt>
      <trkpt lat="45.59156" lon="4.92196">
        <ele>220.29600524902</ele>
        <time>2012-06-09T14:16:00Z</time>
      </trkpt>
      <trkpt lat="45.59129" lon="4.92129">
        <ele>219.75</ele>
        <time>2012-06-09T14:16:16Z</time>
      </trkpt>
      <trkpt lat="45.5907" lon="4.92036">
        <ele>218.98899841309</ele>
        <time>2012-06-09T14:16:34Z</time>
      </trkpt>
      <trkpt lat="45.58994" lon="4.92">
        <ele>217.96699523926</ele>
        <time>2012-06-09T14:16:57Z</time>
      </trkpt>
      <trkpt lat="45.58987" lon="4.91981">
        <ele>219.26400756836</ele>
        <time>2012-06-09T14:18:32Z</time>
      </trkpt>
      <trkpt lat="45.59001" lon="4.91928">
        <ele>219.77099609375</ele>
        <time>2012-06-09T14:19:26Z</time>
      </trkpt>
      <trkpt lat="45.59035" lon="4.91822">
        <ele>226.23500061035</ele>
        <time>2012-06-09T14:19:58Z</time>
      </trkpt>
      <trkpt lat="45.59045" lon="4.91674">
        <ele>228.70700073242</ele>
        <time>2012-06-09T14:20:33Z</time>
      </trkpt>
      <trkpt lat="45.5906" lon="4.91535">
        <ele>228.44299316406</ele>
        <time>2012-06-09T14:20:59Z</time>
      </trkpt>
      <trkpt lat="45.59109" lon="4.91523">
        <ele>230.18299865723</ele>
        <time>2012-06-09T14:21:19Z</time>
      </trkpt>
      <trkpt lat="45.59122" lon="4.91426">
        <ele>232.94000244141</ele>
        <time>2012-06-09T14:21:39Z</time>
      </trkpt>
      <trkpt lat="45.59145" lon="4.91192">
        <ele>229.72599792481</ele>
        <time>2012-06-09T14:22:08Z</time>
      </trkpt>
      <trkpt lat="45.59151" lon="4.9097">
        <ele>228.22099304199</ele>
        <time>2012-06-09T14:22:37Z</time>
      </trkpt>
      <trkpt lat="45.59122" lon="4.90906">
        <ele>227.40400695801</ele>
        <time>2012-06-09T14:22:49Z</time>
      </trkpt>
      <trkpt lat="45.59172" lon="4.90889">
        <ele>229.93499755859</ele>
        <time>2012-06-09T14:23:13Z</time>
      </trkpt>
      <trkpt lat="45.5924" lon="4.9088">
        <ele>236.08299255371</ele>
        <time>2012-06-09T14:23:46Z</time>
      </trkpt>
      <trkpt lat="45.59304" lon="4.90851">
        <ele>244.23500061035</ele>
        <time>2012-06-09T14:24:23Z</time>
      </trkpt>
      <trkpt lat="45.59333" lon="4.90824">
        <ele>249.24800109863</ele>
        <time>2012-06-09T14:24:46Z</time>
      </trkpt>
      <trkpt lat="45.5936" lon="4.90807">
        <ele>255.51300048828</ele>
        <time>2012-06-09T14:25:12Z</time>
      </trkpt>
      <trkpt lat="45.59403" lon="4.90785">
        <ele>264.84201049805</ele>
        <time>2012-06-09T14:25:47Z</time>
      </trkpt>
      <trkpt lat="45.59432" lon="4.90751">
        <ele>273.0419921875</ele>
        <time>2012-06-09T14:26:18Z</time>
      </trkpt>
      <trkpt lat="45.59436" lon="4.90701">
        <ele>278.58700561523</ele>
        <time>2012-06-09T14:26:41Z</time>
      </trkpt>
      <trkpt lat="45.59458" lon="4.90645">
        <ele>284.76699829102</ele>
        <time>2012-06-09T14:27:10Z</time>
      </trkpt>
      <trkpt lat="45.59488" lon="4.90635">
        <ele>289.11599731445</ele>
        <time>2012-06-09T14:27:36Z</time>
      </trkpt>
      <trkpt lat="45.59521" lon="4.90622">
        <ele>288.37701416016</ele>
        <time>2012-06-09T14:27:55Z</time>
      </trkpt>
      <trkpt lat="45.59649" lon="4.90588">
        <ele>283.82901000977</ele>
        <time>2012-06-09T14:28:24Z</time>
      </trkpt>
      <trkpt lat="45.59784" lon="4.90581">
        <ele>281.20001220703</ele>
        <time>2012-06-09T14:28:57Z</time>
      </trkpt>
      <trkpt lat="45.59875" lon="4.90599">
        <ele>281.28601074219</ele>
        <time>2012-06-09T14:29:22Z</time>
      </trkpt>
      <trkpt lat="45.59956" lon="4.90637">
        <ele>276.28698730469</ele>
        <time>2012-06-09T14:29:37Z</time>
      </trkpt>
      <trkpt lat="45.60022" lon="4.90627">
        <ele>278.4880065918</ele>
        <time>2012-06-09T14:30:03Z</time>
      </trkpt>
      <trkpt lat="45.60062" lon="4.90664">
        <ele>280.68798828125</ele>
        <time>2012-06-09T14:30:25Z</time>
      </trkpt>
      <trkpt lat="45.60096" lon="4.90729">
        <ele>280.99398803711</ele>
        <time>2012-06-09T14:30:45Z</time>
      </trkpt>
      <trkpt lat="45.60138" lon="4.90798">
        <ele>284.25399780273</ele>
        <time>2012-06-09T14:31:10Z</time>
      </trkpt>
      <trkpt lat="45.60153" lon="4.90831">
        <ele>288.55700683594</ele>
        <time>2012-06-09T14:31:32Z</time>
      </trkpt>
      <trkpt lat="45.60161" lon="4.90886">
        <ele>293.87701416016</ele>
        <time>2012-06-09T14:31:59Z</time>
      </trkpt>
      <trkpt lat="45.60178" lon="4.90907">
        <ele>297.29400634766</ele>
        <time>2012-06-09T14:32:21Z</time>
      </trkpt>
      <trkpt lat="45.60242" lon="4.90889">
        <ele>295.47100830078</ele>
        <time>2012-06-09T14:32:37Z</time>
      </trkpt>
      <trkpt lat="45.60272" lon="4.90839">
        <ele>298.11401367188</ele>
        <time>2012-06-09T14:33:01Z</time>
      </trkpt>
      <trkpt lat="45.60312" lon="4.90843">
        <ele>304.14498901367</ele>
        <time>2012-06-09T14:33:30Z</time>
      </trkpt>
      <trkpt lat="45.60348" lon="4.90852">
        <ele>307.37298583984</ele>
        <time>2012-06-09T14:33:55Z</time>
      </trkpt>
      <trkpt lat="45.60396" lon="4.90872">
        <ele>313.3630065918</ele>
        <time>2012-06-09T14:34:25Z</time>
      </trkpt>
      <trkpt lat="45.60421" lon="4.90926">
        <ele>316.06900024414</ele>
        <time>2012-06-09T14:34:49Z</time>
      </trkpt>
      <trkpt lat="45.60405" lon="4.90985">
        <ele>320.75601196289</ele>
        <time>2012-06-09T14:35:18Z</time>
      </trkpt>
      <trkpt lat="45.60366" lon="4.91027">
        <ele>325.13198852539</ele>
        <time>2012-06-09T14:35:46Z</time>
      </trkpt>
      <trkpt lat="45.60371" lon="4.91086">
        <ele>327.37399291992</ele>
        <time>2012-06-09T14:36:12Z</time>
      </trkpt>
      <trkpt lat="45.60355" lon="4.91146">
        <ele>330.26699829102</ele>
        <time>2012-06-09T14:36:36Z</time>
      </trkpt>
      <trkpt lat="45.60349" lon="4.91187">
        <ele>331.34899902344</ele>
        <time>2012-06-09T14:37:09Z</time>
      </trkpt>
      <trkpt lat="45.60354" lon="4.9119">
        <ele>331.31799316406</ele>
        <time>2012-06-09T14:45:12Z</time>
      </trkpt>
      <trkpt lat="45.604" lon="4.91203">
        <ele>331.1130065918</ele>
        <time>2012-06-09T14:45:34Z</time>
      </trkpt>
      <trkpt lat="45.60486" lon="4.91228">
        <ele>331.09100341797</ele>
        <time>2012-06-09T14:45:55Z</time>
      </trkpt>
      <trkpt lat="45.60603" lon="4.91201">
        <ele>330.20001220703</ele>
        <time>2012-06-09T14:46:22Z</time>
      </trkpt>
      <trkpt lat="45.607" lon="4.91212">
        <ele>327.98300170898</ele>
        <time>2012-06-09T14:46:42Z</time>
      </trkpt>
      <trkpt lat="45.607" lon="4.91055">
        <ele>324.9289855957</ele>
        <time>2012-06-09T14:47:05Z</time>
      </trkpt>
      <trkpt lat="45.60674" lon="4.90791">
        <ele>324.9289855957</ele>
        <time>2012-06-09T14:47:35Z</time>
      </trkpt>
      <trkpt lat="45.60661" lon="4.9053">
        <ele>326.62200927734</ele>
        <time>2012-06-09T14:48:09Z</time>
      </trkpt>
      <trkpt lat="45.60617" lon="4.90323">
        <ele>328.18798828125</ele>
        <time>2012-06-09T14:48:40Z</time>
      </trkpt>
      <trkpt lat="45.60629" lon="4.9012">
        <ele>331.67199707031</ele>
        <time>2012-06-09T14:49:13Z</time>
      </trkpt>
      <trkpt lat="45.60546" lon="4.89942">
        <ele>328.73901367188</ele>
        <time>2012-06-09T14:49:36Z</time>
      </trkpt>
      <trkpt lat="45.60582" lon="4.89844">
        <ele>329.7799987793</ele>
        <time>2012-06-09T14:49:57Z</time>
      </trkpt>
      <trkpt lat="45.60619" lon="4.89728">
        <ele>326.90100097656</ele>
        <time>2012-06-09T14:50:16Z</time>
      </trkpt>
      <trkpt lat="45.60592" lon="4.89624">
        <ele>318.93399047852</ele>
        <time>2012-06-09T14:50:28Z</time>
      </trkpt>
      <trkpt lat="45.60586" lon="4.89572">
        <ele>315.36999511719</ele>
        <time>2012-06-09T14:50:50Z</time>
      </trkpt>
      <trkpt lat="45.60566" lon="4.89547">
        <ele>315.78698730469</ele>
        <time>2012-06-09T14:51:13Z</time>
      </trkpt>
      <trkpt lat="45.60533" lon="4.89482">
        <ele>319.14999389648</ele>
        <time>2012-06-09T14:51:37Z</time>
      </trkpt>
      <trkpt lat="45.60513" lon="4.89434">
        <ele>322.55899047852</ele>
        <time>2012-06-09T14:51:54Z</time>
      </trkpt>
      <trkpt lat="45.60506" lon="4.89393">
        <ele>325.37899780273</ele>
        <time>2012-06-09T14:52:10Z</time>
      </trkpt>
      <trkpt lat="45.60479" lon="4.89352">
        <ele>330.7080078125</ele>
        <time>2012-06-09T14:52:34Z</time>
      </trkpt>
      <trkpt lat="45.60459" lon="4.89324">
        <ele>335.45098876953</ele>
        <time>2012-06-09T14:52:56Z</time>
      </trkpt>
      <trkpt lat="45.60474" lon="4.89311">
        <ele>337.29901123047</ele>
        <time>2012-06-09T14:53:18Z</time>
      </trkpt>
      <trkpt lat="45.60518" lon="4.89343">
        <ele>331.95300292969</ele>
        <time>2012-06-09T14:53:36Z</time>
      </trkpt>
      <trkpt lat="45.60598" lon="4.89341">
        <ele>322.02099609375</ele>
        <time>2012-06-09T14:53:57Z</time>
      </trkpt>
      <trkpt lat="45.60673" lon="4.89302">
        <ele>321.35699462891</ele>
        <time>2012-06-09T14:54:19Z</time>
      </trkpt>
      <trkpt lat="45.60679" lon="4.89217">
        <ele>313.01501464844</ele>
        <time>2012-06-09T14:54:33Z</time>
      </trkpt>
      <trkpt lat="45.60648" lon="4.89092">
        <ele>312.62899780273</ele>
        <time>2012-06-09T14:55:01Z</time>
      </trkpt>
      <trkpt lat="45.60632" lon="4.8903">
        <ele>313.71798706055</ele>
        <time>2012-06-09T14:55:21Z</time>
      </trkpt>
      <trkpt lat="45.60583" lon="4.89006">
        <ele>312.11700439453</ele>
        <time>2012-06-09T14:55:38Z</time>
      </trkpt>
      <trkpt lat="45.60518" lon="4.89001">
        <ele>314.24301147461</ele>
        <time>2012-06-09T14:55:59Z</time>
      </trkpt>
      <trkpt lat="45.60454" lon="4.8901">
        <ele>315.72500610352</ele>
        <time>2012-06-09T14:56:20Z</time>
      </trkpt>
      <trkpt lat="45.6039" lon="4.88994">
        <ele>317.34799194336</ele>
        <time>2012-06-09T14:56:39Z</time>
      </trkpt>
      <trkpt lat="45.60368" lon="4.88979">
        <ele>317.02600097656</ele>
        <time>2012-06-09T14:56:58Z</time>
      </trkpt>
      <trkpt lat="45.60352" lon="4.88901">
        <ele>318.39300537109</ele>
        <time>2012-06-09T14:57:18Z</time>
      </trkpt>
      <trkpt lat="45.60408" lon="4.88793">
        <ele>317.41101074219</ele>
        <time>2012-06-09T14:57:40Z</time>
      </trkpt>
      <trkpt lat="45.60455" lon="4.88704">
        <ele>318.86099243164</ele>
        <time>2012-06-09T14:58:04Z</time>
      </trkpt>
      <trkpt lat="45.60476" lon="4.8868">
        <ele>317.37298583984</ele>
        <time>2012-06-09T15:01:21Z</time>
      </trkpt>
      <trkpt lat="45.60443" lon="4.88518">
        <ele>311.62298583984</ele>
        <time>2012-06-09T15:01:43Z</time>
      </trkpt>
      <trkpt lat="45.6042" lon="4.88272">
        <ele>305.83999633789</ele>
        <time>2012-06-09T15:02:07Z</time>
      </trkpt>
      <trkpt lat="45.60438" lon="4.88118">
        <ele>307.72100830078</ele>
        <time>2012-06-09T15:02:35Z</time>
      </trkpt>
      <trkpt lat="45.60411" lon="4.88124">
        <ele>310.24798583984</ele>
        <time>2012-06-09T15:02:59Z</time>
      </trkpt>
      <trkpt lat="45.6036" lon="4.88173">
        <ele>316.97100830078</ele>
        <time>2012-06-09T15:03:30Z</time>
      </trkpt>
      <trkpt lat="45.6032" lon="4.8821">
        <ele>322.88400268555</ele>
        <time>2012-06-09T15:03:56Z</time>
      </trkpt>
      <trkpt lat="45.60264" lon="4.88239">
        <ele>332.76599121094</ele>
        <time>2012-06-09T15:04:27Z</time>
      </trkpt>
      <trkpt lat="45.60213" lon="4.88238">
        <ele>341.62399291992</ele>
        <time>2012-06-09T15:04:55Z</time>
      </trkpt>
      <trkpt lat="45.60195" lon="4.88204">
        <ele>345.36499023438</ele>
        <time>2012-06-09T15:05:22Z</time>
      </trkpt>
      <trkpt lat="45.60217" lon="4.88074">
        <ele>349.34298706055</ele>
        <time>2012-06-09T15:05:58Z</time>
      </trkpt>
      <trkpt lat="45.60228" lon="4.87969">
        <ele>349.2080078125</ele>
        <time>2012-06-09T15:06:17Z</time>
      </trkpt>
      <trkpt lat="45.60261" lon="4.87826">
        <ele>341.5419921875</ele>
        <time>2012-06-09T15:06:31Z</time>
      </trkpt>
      <trkpt lat="45.60293" lon="4.87664">
        <ele>322.01300048828</ele>
        <time>2012-06-09T15:06:45Z</time>
      </trkpt>
      <trkpt lat="45.60279" lon="4.87667">
        <ele>316.38299560547</ele>
        <time>2012-06-09T15:07:44Z</time>
      </trkpt>
      <trkpt lat="45.60236" lon="4.87698">
        <ele>313.58599853516</ele>
        <time>2012-06-09T15:08:00Z</time>
      </trkpt>
      <trkpt lat="45.60165" lon="4.87771">
        <ele>306.43899536133</ele>
        <time>2012-06-09T15:08:16Z</time>
      </trkpt>
      <trkpt lat="45.60159" lon="4.87759">
        <ele>304.89300537109</ele>
        <time>2012-06-09T15:08:45Z</time>
      </trkpt>
      <trkpt lat="45.60151" lon="4.87745">
        <ele>306.41101074219</ele>
        <time>2012-06-09T15:09:40Z</time>
      </trkpt>
      <trkpt lat="45.60149" lon="4.87727">
        <ele>307.52200317383</ele>
        <time>2012-06-09T15:10:01Z</time>
      </trkpt>
      <trkpt lat="45.60153" lon="4.877">
        <ele>310.23098754883</ele>
        <time>2012-06-09T15:10:27Z</time>
      </trkpt>
      <trkpt lat="45.60161" lon="4.87663">
        <ele>311.33499145508</ele>
        <time>2012-06-09T15:11:18Z</time>
      </trkpt>
      <trkpt lat="45.6017" lon="4.87626">
        <ele>308.98999023438</ele>
        <time>2012-06-09T15:11:44Z</time>
      </trkpt>
      <trkpt lat="45.60165" lon="4.87605">
        <ele>309.59600830078</ele>
        <time>2012-06-09T15:12:16Z</time>
      </trkpt>
      <trkpt lat="45.60157" lon="4.87575">
        <ele>309.38299560547</ele>
        <time>2012-06-09T15:12:42Z</time>
      </trkpt>
      <trkpt lat="45.60123" lon="4.87571">
        <ele>312.29400634766</ele>
        <time>2012-06-09T15:13:17Z</time>
      </trkpt>
      <trkpt lat="45.60072" lon="4.87557">
        <ele>308.39401245117</ele>
        <time>2012-06-09T15:13:36Z</time>
      </trkpt>
      <trkpt lat="45.60043" lon="4.87554">
        <ele>310.08099365234</ele>
        <time>2012-06-09T15:14:03Z</time>
      </trkpt>
      <trkpt lat="45.60058" lon="4.87534">
        <ele>312.48901367188</ele>
        <time>2012-06-09T15:14:28Z</time>
      </trkpt>
      <trkpt lat="45.6005" lon="4.87526">
        <ele>316.83401489258</ele>
        <time>2012-06-09T15:14:56Z</time>
      </trkpt>
      <trkpt lat="45.60035" lon="4.87512">
        <ele>320.69400024414</ele>
        <time>2012-06-09T15:15:53Z</time>
      </trkpt>
      <trkpt lat="45.60022" lon="4.87487">
        <ele>324.54299926758</ele>
        <time>2012-06-09T15:16:23Z</time>
      </trkpt>
      <trkpt lat="45.60009" lon="4.87466">
        <ele>330.03601074219</ele>
        <time>2012-06-09T15:16:55Z</time>
      </trkpt>
      <trkpt lat="45.59981" lon="4.87454">
        <ele>337.9280090332</ele>
        <time>2012-06-09T15:17:53Z</time>
      </trkpt>
      <trkpt lat="45.59969" lon="4.87443">
        <ele>342.48498535156</ele>
        <time>2012-06-09T15:18:24Z</time>
      </trkpt>
      <trkpt lat="45.59967" lon="4.8743">
        <ele>345.54000854492</ele>
        <time>2012-06-09T15:18:53Z</time>
      </trkpt>
      <trkpt lat="45.59959" lon="4.8742">
        <ele>348.10598754883</ele>
        <time>2012-06-09T15:19:27Z</time>
      </trkpt>
      <trkpt lat="45.5993" lon="4.87401">
        <ele>353.5719909668</ele>
        <time>2012-06-09T15:19:56Z</time>
      </trkpt>
      <trkpt lat="45.59906" lon="4.87381">
        <ele>356.22799682617</ele>
        <time>2012-06-09T15:20:14Z</time>
      </trkpt>
      <trkpt lat="45.5988" lon="4.87357">
        <ele>358.29800415039</ele>
        <time>2012-06-09T15:20:35Z</time>
      </trkpt>
      <trkpt lat="45.59867" lon="4.87317">
        <ele>359.42199707031</ele>
        <time>2012-06-09T15:20:53Z</time>
      </trkpt>
      <trkpt lat="45.59842" lon="4.87254">
        <ele>359.44000244141</ele>
        <time>2012-06-09T15:21:17Z</time>
      </trkpt>
      <trkpt lat="45.59824" lon="4.87166">
        <ele>358.90701293945</ele>
        <time>2012-06-09T15:21:39Z</time>
      </trkpt>
      <trkpt lat="45.59816" lon="4.87102">
        <ele>354.68301391602</ele>
        <time>2012-06-09T15:23:10Z</time>
      </trkpt>
      <trkpt lat="45.59813" lon="4.87051">
        <ele>351.8450012207</ele>
        <time>2012-06-09T15:23:26Z</time>
      </trkpt>
      <trkpt lat="45.59792" lon="4.87053">
        <ele>350.24499511719</ele>
        <time>2012-06-09T15:24:00Z</time>
      </trkpt>
      <trkpt lat="45.59732" lon="4.87019">
        <ele>342.32901000977</ele>
        <time>2012-06-09T15:24:18Z</time>
      </trkpt>
      <trkpt lat="45.5969" lon="4.86983">
        <ele>337.71301269531</ele>
        <time>2012-06-09T15:24:34Z</time>
      </trkpt>
      <trkpt lat="45.5965" lon="4.86934">
        <ele>331.54598999023</ele>
        <time>2012-06-09T15:24:50Z</time>
      </trkpt>
      <trkpt lat="45.59589" lon="4.86888">
        <ele>318.97500610352</ele>
        <time>2012-06-09T15:25:10Z</time>
      </trkpt>
      <trkpt lat="45.59537" lon="4.86861">
        <ele>319.3030090332</ele>
        <time>2012-06-09T15:25:29Z</time>
      </trkpt>
      <trkpt lat="45.59518" lon="4.86815">
        <ele>320.88000488281</ele>
        <time>2012-06-09T15:25:48Z</time>
      </trkpt>
      <trkpt lat="45.59471" lon="4.86732">
        <ele>319.98699951172</ele>
        <time>2012-06-09T15:26:06Z</time>
      </trkpt>
      <trkpt lat="45.59363" lon="4.86618">
        <ele>314.27301025391</ele>
        <time>2012-06-09T15:26:28Z</time>
      </trkpt>
      <trkpt lat="45.59213" lon="4.86507">
        <ele>306.58099365234</ele>
        <time>2012-06-09T15:26:55Z</time>
      </trkpt>
      <trkpt lat="45.5916" lon="4.86504">
        <ele>300.45300292969</ele>
        <time>2012-06-09T15:27:47Z</time>
      </trkpt>
      <trkpt lat="45.5915" lon="4.86515">
        <ele>300.60699462891</ele>
        <time>2012-06-09T15:28:51Z</time>
      </trkpt>
      <trkpt lat="45.59063" lon="4.86556">
        <ele>301.1549987793</ele>
        <time>2012-06-09T15:29:09Z</time>
      </trkpt>
      <trkpt lat="45.58994" lon="4.86606">
        <ele>301.15899658203</ele>
        <time>2012-06-09T15:29:24Z</time>
      </trkpt>
      <trkpt lat="45.58961" lon="4.86732">
        <ele>296.53399658203</ele>
        <time>2012-06-09T15:29:38Z</time>
      </trkpt>
      <trkpt lat="45.58867" lon="4.86845">
        <ele>296.89498901367</ele>
        <time>2012-06-09T15:29:56Z</time>
      </trkpt>
      <trkpt lat="45.58724" lon="4.8698">
        <ele>285.96600341797</ele>
        <time>2012-06-09T15:30:13Z</time>
      </trkpt>
      <trkpt lat="45.58673" lon="4.87099">
        <ele>280.00201416016</ele>
        <time>2012-06-09T15:30:23Z</time>
      </trkpt>
      <trkpt lat="45.58573" lon="4.87219">
        <ele>268.00100708008</ele>
        <time>2012-06-09T15:30:37Z</time>
      </trkpt>
      <trkpt lat="45.58549" lon="4.87302">
        <ele>259.43899536133</ele>
        <time>2012-06-09T15:30:52Z</time>
      </trkpt>
      <trkpt lat="45.58569" lon="4.87536">
        <ele>256.44900512695</ele>
        <time>2012-06-09T15:31:12Z</time>
      </trkpt>
      <trkpt lat="45.58468" lon="4.8769">
        <ele>247.66799926758</ele>
        <time>2012-06-09T15:31:35Z</time>
      </trkpt>
      <trkpt lat="45.58441" lon="4.87706">
        <ele>238.75500488281</ele>
        <time>2012-06-09T15:31:51Z</time>
      </trkpt>
    </trkseg>
  </trk>
</gpx>